GFSSGP_prec_cthk_000.txt.gz
RH
54 54 47 48 44 58 69 68 70 72 73 76 76 78 82 83 81 84 83 85 88 86 83 81 77 77 74 69 63 65 62 56 51 50 47 45 42 41 39 38 37 35 39 40 40 41 42 47 55
58 54 45 47 37 44 50 55 66 72 71 71 73 77 81 83 77 77 81 82 81 79 78 76 74 69 63 59 55 57 53 49 48 47 45 44 45 45 46 49 46 44 44 44 44 45 46 47 52
59 63 52 48 40 43 42 45 55 66 69 65 66 72 78 79 73 74 73 72 74 72 72 71 64 58 53 53 51 51 49 50 49 48 47 47 49 49 51 54 55 54 51 49 48 48 50 53 51
61 60 57 43 37 36 34 36 43 58 63 62 61 67 71 70 67 66 65 63 64 63 61 58 55 52 52 53 51 51 50 51 50 49 50 50 50 51 53 56 56 56 57 58 54 51 49 54 53
57 55 47 45 42 41 36 34 37 45 56 62 60 64 64 64 61 61 60 57 61 60 57 54 54 52 50 51 49 46 46 48 49 52 53 53 55 58 62 64 62 58 56 58 60 59 54 50 54
55 54 48 45 46 41 38 33 38 39 44 50 54 58 64 61 59 59 59 57 58 57 57 55 51 50 50 49 48 46 47 47 52 58 58 58 58 61 65 67 67 69 60 59 60 58 56 57 53
54 53 54 52 58 48 43 39 35 37 36 39 45 47 57 59 57 56 54 53 56 57 55 53 48 48 49 49 49 48 49 52 56 59 60 60 64 66 68 72 68 66 64 62 60 58 63 54 53
51 49 51 50 54 51 46 45 43 35 37 35 40 43 47 51 51 53 51 52 52 52 49 48 47 46 51 52 52 51 52 55 56 58 60 65 65 66 63 73 66 61 61 66 65 70 71 72 66
54 56 53 52 51 46 49 50 44 37 35 33 33 34 39 44 46 47 46 46 46 48 47 47 47 47 47 50 51 54 50 54 56 55 58 63 67 66 62 67 68 68 65 74 72 68 69 72 72
51 52 49 46 44 51 51 50 43 41 33 32 33 31 35 38 40 41 42 42 42 44 45 46 46 49 51 53 53 53 57 53 52 53 54 56 57 61 61 58 61 61 64 72 70 75 77 69 66
46 45 41 40 41 44 48 54 45 39 35 29 30 28 32 37 39 39 38 38 40 42 46 48 46 47 46 45 45 48 48 48 49 50 50 53 58 60 61 60 59 59 58 57 56 63 64 64 63
44 42 37 38 41 45 42 46 44 33 32 28 26 26 30 32 34 36 37 37 39 39 43 45 43 43 47 47 49 49 50 47 44 46 48 56 59 63 60 59 57 55 50 48 46 46 48 47 44
37 37 35 36 36 38 39 34 38 36 32 25 24 27 29 30 32 35 36 37 38 37 35 37 39 38 40 44 46 52 50 50 51 50 49 58 64 65 66 58 56 54 50 47 45 43 41 39 38
33 35 39 41 33 34 35 35 32 35 33 28 24 26 28 29 32 36 38 37 35 36 35 34 33 34 37 48 51 52 52 50 51 50 51 50 58 56 57 57 53 52 49 45 45 43 41 40 35
33 40 38 39 37 40 40 38 33 32 31 31 28 28 29 32 34 32 33 33 33 33 34 34 36 52 40 42 51 50 47 46 49 51 50 49 50 49 51 57 52 51 44 43 43 42 39 35 30
39 40 44 41 38 42 47 46 42 38 34 33 31 29 30 30 31 31 32 32 34 33 33 36 38 40 41 36 39 38 40 37 40 47 48 50 48 44 48 57 56 49 47 46 43 40 36 30 24
39 38 46 44 39 46 52 52 52 46 41 38 30 28 29 29 31 30 31 33 33 33 34 34 37 37 35 46 35 36 37 37 36 40 42 42 41 42 43 43 46 44 44 39 32 29 26 24 22
36 39 43 45 44 46 49 51 52 46 40 40 29 27 27 27 27 30 32 33 33 32 33 33 33 34 42 40 37 41 35 36 35 36 46 40 38 38 38 48 56 45 33 27 23 20 22 22 22
31 38 38 44 45 46 49 51 54 51 45 43 33 26 25 24 24 28 31 33 32 32 33 32 32 35 38 30 29 31 31 33 35 34 36 35 36 35 34 37 39 26 24 20 19 19 19 20 22
26 34 40 46 45 50 53 53 53 54 48 45 40 31 27 27 28 29 32 33 32 29 28 30 31 32 29 26 26 28 31 32 32 30 29 28 30 30 28 26 24 20 17 15 16 16 20 22 26
26 27 35 39 47 49 53 55 55 56 52 47 46 42 39 35 33 31 28 28 28 27 26 27 28 28 24 23 24 26 27 24 22 22 21 23 23 23 25 21 17 13 15 18 20 19 22 26 27
27 22 32 36 40 45 46 50 53 51 52 47 42 43 41 40 34 30 28 25 26 26 28 28 28 25 25 25 24 24 23 23 22 21 20 18 17 20 18 14 14 17 19 21 22 21 24 26 27
24 25 30 36 38 41 46 46 36 48 52 44 39 42 41 41 38 39 35 29 26 29 29 28 26 24 28 29 28 27 24 25 26 25 25 24 25 24 19 15 17 18 21 22 21 22 23 25 27
22 30 34 35 38 45 36 38 34 45 38 39 40 40 42 40 39 35 39 39 31 30 29 27 28 27 31 34 33 31 28 26 25 25 25 24 27 27 25 19 20 22 21 21 21 22 24 27 31
22 29 33 34 45 45 36 41 28 29 33 30 34 36 40 45 42 37 43 41 36 30 30 28 28 30 33 35 32 31 29 29 27 26 26 28 29 28 27 26 24 23 22 18 20 23 27 28 29
21 26 32 34 39 40 40 40 27 24 28 32 34 35 38 39 40 38 41 42 45 41 37 34 32 32 37 35 31 30 30 31 31 29 26 29 31 32 30 29 31 25 22 20 20 24 25 29 32
21 25 27 33 34 34 37 30 23 24 25 29 32 34 34 35 35 34 35 36 39 43 44 44 38 38 32 33 33 34 33 35 35 37 37 39 31 31 33 34 35 31 26 24 22 22 21 25 28
20 21 27 33 34 35 33 28 27 24 23 23 28 30 31 33 33 31 34 36 40 41 45 50 49 38 36 35 35 33 34 36 38 39 44 46 41 33 34 37 37 35 27 25 21 20 18 21 24
19 21 25 28 32 33 31 31 24 22 23 24 25 26 28 31 29 28 29 29 30 37 40 41 40 41 38 38 41 40 57 41 44 42 47 52 51 49 39 35 35 36 30 27 21 21 25 27 30
13 17 20 26 28 33 29 25 21 20 20 24 27 25 30 30 27 28 27 29 29 30 32 33 38 45 41 45 45 51 36 59 43 46 54 56 57 51 47 39 37 35 33 30 26 26 28 31 35

GFSSGP_prec_cthk_003.txt.gz
RH
43 43 42 50 60 63 69 73 76 79 79 81 81 81 84 87 86 84 84 80 78 77 75 74 74 73 74 75 71 65 60 56 52 51 48 44 41 40 38 39 37 40 40 42 43 44 49 57 56
44 44 42 39 39 49 67 71 72 73 78 78 79 82 82 83 82 83 81 79 77 75 74 71 69 64 67 70 66 60 54 51 50 47 45 44 45 47 50 49 45 45 46 45 49 47 47 54 57
52 44 43 36 33 37 49 62 68 68 68 68 76 80 79 80 78 78 76 74 74 71 67 62 60 60 61 63 60 54 51 50 48 47 47 48 49 50 54 55 56 56 52 49 50 50 50 51 54
53 50 43 31 32 33 37 52 63 63 64 65 72 77 74 76 75 70 69 68 66 62 57 53 55 58 58 59 56 52 51 47 47 48 48 48 50 54 57 57 58 57 57 59 55 52 53 52 54
54 45 32 33 35 34 34 41 52 57 61 61 64 72 71 70 68 64 62 60 58 55 53 52 54 55 52 53 53 51 49 47 48 51 52 53 55 60 65 67 66 60 58 59 58 57 54 51 53
55 48 41 38 39 37 32 36 40 46 52 58 57 59 65 63 62 60 60 60 58 56 55 53 54 50 51 47 48 48 49 51 53 54 54 58 63 64 68 64 70 65 61 60 60 58 59 55 49
53 48 45 44 43 41 37 37 36 38 39 43 49 55 60 59 57 57 58 59 57 56 53 53 52 51 50 47 45 47 48 51 55 56 60 62 65 66 67 73 69 66 64 65 65 68 70 60 54
50 45 45 44 49 43 41 36 34 34 35 38 41 45 52 54 54 55 56 59 58 55 52 50 52 53 49 50 49 49 51 55 56 59 65 65 63 61 62 72 66 61 66 75 68 70 71 73 70
49 48 46 45 50 48 47 37 39 34 33 35 38 38 44 48 50 52 53 54 53 52 51 50 47 48 50 53 53 51 52 55 54 56 59 60 62 62 62 62 64 66 65 74 74 71 76 72 68
47 46 41 41 44 44 45 44 38 36 34 33 34 37 41 44 45 45 47 48 48 48 48 47 49 48 52 52 51 52 50 51 51 51 51 55 57 60 64 62 61 60 58 62 60 62 65 66 65
47 44 39 39 40 43 46 50 39 34 31 31 32 33 37 39 40 41 42 43 43 45 49 47 45 45 46 46 52 50 46 45 45 46 50 54 56 61 60 58 55 54 54 53 47 47 48 48 43
39 37 40 41 41 41 42 41 40 33 30 30 30 32 35 37 38 38 40 42 43 42 45 44 43 44 47 48 48 49 46 45 46 48 52 51 58 64 62 59 54 55 52 47 44 41 37 36 36
37 33 34 34 35 35 32 34 38 34 31 31 29 32 31 33 36 38 39 40 39 39 41 42 40 40 42 42 46 47 46 47 48 47 50 54 62 63 58 57 54 53 51 47 42 40 39 38 37
33 33 34 33 31 31 33 35 32 32 34 29 29 29 30 32 34 37 38 39 38 35 35 35 32 37 43 45 44 43 45 45 47 46 46 48 55 55 61 53 53 46 46 41 39 38 39 37 35
34 35 36 41 33 33 33 38 34 30 33 30 26 28 30 30 33 36 36 37 35 33 33 33 33 34 37 40 40 43 41 41 43 45 48 48 53 50 53 57 52 47 42 40 40 40 38 34 29
36 34 35 38 37 38 35 37 42 39 32 29 26 26 28 29 31 32 35 32 29 32 32 32 37 34 40 36 38 44 41 42 42 44 49 51 53 51 46 49 51 43 39 39 39 37 29 26 23
35 31 39 36 41 42 41 40 43 46 41 36 28 25 25 27 30 30 29 28 29 31 31 31 33 34 37 39 40 35 37 38 37 35 38 47 39 40 41 45 47 46 45 38 35 30 24 19 21
30 34 36 35 43 48 49 45 49 48 43 37 30 29 26 25 26 28 29 28 29 30 31 31 32 33 42 44 45 44 40 42 35 34 37 38 43 43 34 35 37 44 45 36 24 24 21 21 20
28 32 36 42 44 46 48 49 50 51 51 47 34 30 28 23 26 30 30 31 32 31 30 30 30 31 42 34 33 31 33 32 35 33 38 40 40 35 37 36 32 33 28 22 20 19 19 22 18
28 33 36 42 45 45 49 48 49 53 52 50 47 39 28 31 29 29 31 31 31 31 30 30 29 30 36 33 30 28 27 26 27 26 27 26 27 28 31 26 23 20 18 15 15 17 22 22 22
24 27 33 37 46 48 49 48 49 49 52 53 47 42 40 35 30 29 32 30 30 29 28 28 27 26 28 27 26 25 25 23 24 26 27 27 29 29 24 20 20 15 11 16 17 19 20 28 29
21 20 27 37 44 45 46 41 45 48 51 48 46 42 42 39 38 36 33 30 28 25 27 29 29 26 24 25 26 25 24 25 28 29 28 26 26 22 20 22 15 13 15 15 17 17 19 22 27
24 23 26 33 42 40 41 41 35 43 44 43 43 41 39 37 38 37 37 34 28 24 25 28 29 27 26 26 27 27 27 29 30 26 24 24 24 23 25 21 15 17 18 18 18 18 18 19 22
27 28 27 32 40 40 31 35 27 34 29 31 37 41 40 39 37 36 32 34 38 35 28 27 27 26 27 28 29 29 30 30 29 27 26 28 28 27 27 25 22 22 20 21 18 19 19 21 24
29 31 34 32 38 34 30 34 24 25 26 27 33 38 40 42 43 37 33 31 38 38 30 27 28 27 28 31 33 31 32 32 31 28 28 28 27 28 28 30 26 26 27 22 19 19 22 23 24
28 27 31 37 33 31 35 30 22 25 24 26 29 35 42 42 41 41 35 29 32 36 35 29 27 29 30 36 35 33 33 34 32 33 32 30 31 31 30 29 28 31 31 24 20 19 22 23 24
28 29 26 29 33 31 30 27 23 24 24 25 27 31 34 35 38 39 38 35 34 35 34 31 32 31 32 36 33 35 37 37 36 35 37 35 38 43 46 32 31 32 34 28 24 22 21 20 22
23 25 28 28 35 37 31 27 21 22 23 23 26 26 29 31 35 37 36 33 36 36 33 34 34 33 35 32 32 33 34 33 41 48 41 41 42 48 51 50 46 35 34 31 26 24 22 22 22
24 24 28 27 26 29 30 25 22 22 21 20 21 21 24 28 32 34 31 33 34 36 36 34 38 40 38 34 37 39 39 44 47 48 52 46 46 60 53 58 53 48 41 35 26 23 23 24 27
20 23 22 26 27 24 26 26 21 22 21 21 19 18 25 28 30 33 31 34 33 34 33 33 35 39 42 43 41 44 44 43 52 57 62 56 44 53 57 61 60 53 52 45 36 27 29 31 34

GFSSGP_prec_cthk_006.txt.gz
RH
42 41 59 72 74 66 79 78 72 75 80 80 80 79 84 85 82 80 83 86 82 80 77 78 84 79 75 71 70 60 55 52 49 46 45 45 41 39 39 37 38 39 41 42 43 50 57 57 63
46 45 49 58 56 62 66 70 72 74 75 77 78 78 81 82 83 78 79 80 78 76 73 72 72 72 69 64 60 56 53 52 49 44 43 44 45 45 45 42 45 47 46 47 45 47 54 59 60
44 43 52 41 42 57 65 69 70 69 67 74 76 78 79 84 80 76 76 74 74 70 68 61 64 65 64 61 55 54 52 49 46 45 44 45 47 50 53 54 55 54 50 49 49 48 50 55 59
48 45 41 36 32 41 57 62 61 64 65 72 72 73 75 75 75 73 72 71 68 63 64 59 60 63 62 57 53 51 48 46 47 46 46 47 48 52 54 55 56 55 54 52 51 51 50 51 55
49 43 37 33 31 32 42 54 59 61 61 67 70 68 71 70 67 66 65 62 60 56 60 62 62 60 60 54 50 47 46 46 46 47 48 51 56 63 64 68 61 57 55 56 55 54 53 50 53
52 46 42 38 32 31 34 41 50 53 57 59 64 66 68 63 61 59 59 58 60 58 60 59 58 58 55 51 49 46 47 48 49 50 54 58 59 64 64 63 69 62 59 59 59 58 60 50 50
52 49 47 47 37 34 30 31 40 40 51 54 55 59 64 60 59 60 60 61 62 59 58 57 56 50 48 48 49 49 50 51 52 55 57 58 62 65 70 73 66 63 63 69 72 68 69 65 58
50 49 46 50 51 36 29 30 31 34 39 40 50 56 58 57 58 59 60 61 59 58 56 57 57 52 50 48 49 50 51 52 55 58 60 59 59 60 60 67 63 61 66 73 71 65 65 70 67
45 51 46 47 53 41 37 31 28 30 33 38 42 47 54 55 55 57 59 58 56 56 56 56 56 56 55 51 48 48 50 51 54 57 55 58 67 65 64 58 59 60 58 66 63 67 68 64 65
43 51 46 43 48 44 40 39 30 29 31 36 41 43 47 50 52 54 53 53 54 55 52 53 57 60 57 57 55 52 52 52 53 52 55 59 62 61 58 57 53 53 50 50 48 46 50 57 59
38 49 44 43 41 45 40 43 39 30 31 32 34 41 43 47 48 49 50 52 52 52 52 54 51 52 52 55 54 51 51 51 49 51 52 58 56 59 60 58 54 50 48 52 48 44 45 39 37
35 33 35 41 38 41 44 38 39 29 28 31 32 32 39 42 43 47 48 49 50 52 52 48 49 50 53 55 54 52 51 52 53 54 50 56 58 60 58 59 56 49 53 50 47 46 41 40 39
33 31 32 32 33 36 40 36 37 32 28 29 32 32 34 38 40 42 44 45 46 47 48 49 46 44 44 46 50 51 53 51 51 52 51 52 57 66 61 62 60 52 50 48 46 44 41 40 42
32 30 31 27 25 27 33 33 32 32 30 30 31 33 34 36 37 40 42 43 42 44 44 45 42 42 44 44 46 45 48 51 51 52 47 44 49 72 66 60 55 50 47 44 42 39 39 40 39
33 30 33 30 28 28 32 36 32 30 31 30 31 33 34 34 36 36 37 38 38 39 40 38 39 42 45 43 44 42 47 47 48 48 45 48 60 61 57 62 55 53 49 39 39 42 40 36 32
32 32 36 30 33 31 37 42 37 34 27 31 30 30 32 31 36 35 35 36 36 36 36 36 39 41 37 41 38 41 45 45 45 48 53 59 59 52 52 55 53 53 45 46 44 44 34 35 34
32 35 35 35 33 37 39 47 43 43 36 28 29 30 30 32 30 30 32 32 33 35 36 34 36 36 33 39 42 39 42 51 55 47 47 48 45 48 49 49 48 48 53 58 53 45 28 28 29
33 33 34 35 34 38 40 46 43 45 42 34 28 29 28 26 26 29 29 30 32 33 34 32 31 32 33 42 52 55 51 47 45 40 42 40 50 45 48 46 42 39 45 45 40 28 28 26 26
31 35 36 36 43 45 46 45 43 44 44 39 30 28 27 24 26 29 29 29 31 32 33 33 31 32 49 53 46 43 44 43 42 42 46 41 40 38 39 40 37 37 36 27 23 23 25 25 34
30 32 33 35 44 44 45 45 43 44 46 45 40 35 27 27 29 30 28 28 29 31 32 33 31 32 37 41 39 39 39 40 42 40 41 39 34 30 30 32 32 25 25 24 19 21 26 28 28
26 30 34 39 40 42 47 45 42 43 47 47 47 43 38 34 32 32 30 28 29 31 32 29 28 30 35 41 45 39 37 34 35 32 33 31 28 30 29 27 23 22 17 23 25 27 26 30 32
24 24 33 38 44 43 41 42 39 41 42 43 43 45 42 44 41 41 39 31 30 28 30 28 28 28 33 36 35 32 32 34 34 36 37 32 27 27 26 24 22 16 22 23 26 23 24 23 34
22 27 28 33 40 43 46 46 39 39 38 39 39 40 41 39 42 42 41 36 34 32 31 25 24 26 29 31 29 31 30 36 35 34 34 32 32 28 25 26 21 19 21 25 22 21 22 28 28
23 30 32 32 34 38 39 42 34 36 32 34 35 38 39 40 40 44 40 35 39 40 38 25 24 23 26 28 29 31 34 34 37 37 35 34 35 31 30 29 24 22 25 26 23 19 21 20 26
24 29 34 35 34 35 37 39 32 31 31 27 30 33 39 42 42 43 41 34 33 38 40 31 26 22 25 27 31 33 33 34 36 40 36 38 38 39 37 32 31 32 32 32 26 20 23 22 27
22 24 30 34 30 31 35 37 28 25 27 26 28 28 36 40 37 35 36 37 31 31 32 35 29 25 26 28 32 34 34 35 38 44 46 45 47 47 48 41 43 43 40 34 29 26 28 32 29
21 25 26 27 27 26 24 30 24 26 27 26 25 28 31 35 36 36 37 34 33 29 29 33 32 29 30 32 33 35 33 36 46 49 50 49 48 48 46 47 51 57 57 44 34 30 31 29 28
19 22 29 28 33 32 28 28 30 26 23 24 25 25 27 31 34 36 36 36 34 29 29 33 31 28 29 31 31 31 32 35 40 46 50 49 54 52 54 51 56 55 61 58 49 43 34 27 26
14 23 26 28 28 29 31 28 27 24 25 26 26 26 25 27 30 33 35 36 35 32 30 37 32 31 29 29 31 33 38 43 40 47 48 53 57 51 53 53 56 67 57 61 58 51 46 38 29
16 20 27 29 31 29 27 23 23 27 22 20 22 24 25 23 26 29 34 39 36 34 34 32 31 32 35 36 36 39 44 46 45 48 48 52 50 52 54 56 57 50 64 63 65 60 53 49 44

GFSSGP_prec_cthk_009.txt.gz
RH
43 58 73 84 94 81 73 71 71 75 74 75 77 86 82 80 89 87 89 85 85 86 84 81 80 74 70 64 62 60 54 50 48 46 44 42 42 40 35 37 38 37 39 41 48 53 53 58 68
43 54 74 74 68 87 75 76 81 72 72 74 76 79 79 82 77 79 82 79 78 79 78 74 71 71 70 62 57 54 51 48 45 43 43 44 43 42 39 41 43 41 43 42 44 51 54 56 62
47 67 85 61 60 66 65 70 67 66 73 75 73 81 80 77 74 73 74 73 75 75 74 70 68 64 61 56 53 52 50 44 44 46 45 45 46 49 51 51 50 46 45 45 44 47 51 55 57
50 63 52 40 45 56 64 62 59 63 69 73 74 75 74 74 73 69 70 70 69 69 69 64 63 61 55 53 51 49 46 44 45 46 45 45 48 51 52 52 51 50 47 47 48 49 48 51 56
60 63 51 32 36 48 56 57 59 64 66 68 69 69 68 70 70 68 67 62 61 60 62 59 60 59 55 51 47 44 44 45 45 46 48 51 57 60 63 59 57 55 53 53 52 52 51 47 54
71 53 45 35 31 37 47 53 56 60 63 67 69 64 67 64 64 62 59 58 59 60 60 56 56 54 50 47 44 43 43 46 48 51 54 55 58 60 60 61 63 58 58 58 62 61 57 50 54
67 58 46 36 32 32 39 44 54 54 58 63 66 66 62 59 58 57 58 57 61 56 58 56 55 50 47 44 43 44 45 47 49 52 54 57 60 63 65 60 59 60 65 69 69 65 67 66 60
61 49 37 47 41 30 30 42 35 45 56 57 63 62 59 58 58 61 56 58 59 54 56 56 52 49 48 45 46 47 47 49 52 53 52 53 55 55 58 63 59 59 62 70 68 67 67 66 66
47 51 41 43 56 42 31 35 33 38 36 46 57 58 59 59 58 58 61 57 56 55 52 56 54 50 51 51 48 47 47 49 52 51 53 56 68 65 62 57 54 56 55 56 53 54 59 65 66
49 64 48 38 53 47 39 39 33 34 35 40 45 56 56 56 55 56 54 55 56 57 59 55 57 52 49 55 47 48 48 50 50 53 54 54 66 60 53 55 48 45 45 43 42 40 43 47 47
40 58 46 42 42 54 40 43 41 41 34 38 42 47 49 51 54 54 54 54 53 52 56 57 57 53 54 55 48 51 51 53 54 53 56 58 63 59 61 56 69 50 49 78 48 54 48 46 44
32 42 41 43 39 49 44 47 41 34 42 34 39 42 43 49 52 51 54 54 55 51 53 49 51 53 56 56 51 55 56 57 56 53 54 56 57 59 55 70 66 72 58 53 59 49 46 47 41
29 35 33 35 37 41 50 47 40 38 30 31 34 34 37 43 48 48 53 52 52 51 53 51 50 47 51 53 52 57 57 54 57 58 53 54 65 65 64 60 53 51 52 53 52 49 45 46 51
30 31 31 33 32 32 47 45 42 39 31 30 31 31 34 39 42 46 46 47 48 48 50 50 47 43 43 48 50 51 54 60 53 56 54 48 58 69 63 62 57 56 53 50 48 47 42 43 42
30 30 32 31 34 31 37 38 33 40 37 29 30 33 34 38 38 39 41 43 43 45 47 46 43 47 44 44 44 43 49 48 53 51 52 50 62 58 55 61 60 56 51 46 49 57 48 37 41
29 28 31 34 34 33 33 37 27 34 35 35 31 32 33 34 36 37 36 36 38 39 40 40 39 41 44 46 44 45 46 50 49 54 62 57 55 53 52 53 59 55 54 58 56 53 54 43 33
31 29 30 40 31 38 32 58 44 33 33 36 31 30 31 33 36 33 34 35 36 37 37 36 40 44 41 38 43 41 43 55 59 59 54 61 50 52 50 51 52 47 51 56 48 48 47 36 31
32 30 30 40 36 40 28 59 44 39 39 32 33 31 28 30 28 30 31 34 35 37 37 35 37 37 38 38 50 54 54 56 49 47 46 49 50 46 48 48 53 47 48 40 54 45 29 23 31
28 28 27 30 36 31 40 44 39 41 40 37 35 29 28 26 29 32 31 31 33 34 36 35 33 33 33 52 58 52 52 49 45 46 55 45 41 41 44 46 48 44 42 45 36 24 25 31 35
28 27 29 33 34 36 38 44 44 45 40 38 35 32 28 29 29 31 29 30 31 33 34 30 30 31 30 45 42 43 44 46 45 48 43 43 44 44 38 36 38 37 38 26 24 20 23 32 35
27 27 27 28 35 47 41 46 44 44 45 42 41 37 31 33 35 34 31 29 31 32 29 29 29 29 30 41 45 47 51 40 48 46 41 37 32 33 30 32 32 29 20 21 25 26 24 30 36
25 27 27 27 40 45 34 37 43 36 42 42 41 42 39 38 37 41 39 32 32 32 31 30 29 28 29 33 43 47 49 41 40 40 41 36 35 32 33 33 30 21 22 27 26 26 22 21 32
21 24 27 28 30 45 34 32 37 39 38 43 39 40 39 40 43 43 44 43 36 34 36 30 30 29 29 29 40 41 40 39 43 42 41 37 37 32 34 34 31 25 22 31 28 24 20 30 26
18 25 26 25 27 30 33 36 32 45 37 39 41 38 40 41 42 44 46 48 42 42 42 39 31 27 25 28 32 33 39 35 41 38 42 40 35 36 36 35 33 31 29 35 33 29 26 24 27
19 25 28 28 26 26 27 33 46 33 34 36 35 41 42 37 38 39 43 43 42 38 41 44 40 29 25 26 28 29 35 38 40 44 41 39 38 43 42 39 41 39 36 43 40 33 32 29 30
14 19 23 30 27 25 25 28 27 36 30 32 35 30 34 47 37 38 38 39 39 38 37 35 35 32 29 28 28 34 33 38 40 41 46 44 49 51 52 52 47 47 49 52 53 45 34 36 33
13 17 20 23 24 25 23 24 30 34 35 31 31 29 30 38 38 38 35 35 39 38 31 32 36 32 29 31 31 34 39 38 42 42 43 49 51 55 56 54 51 53 54 54 57 55 54 42 36
9 14 21 24 27 27 22 23 26 28 30 29 32 30 30 35 37 38 35 36 38 40 33 30 31 31 30 31 34 36 38 39 37 45 46 49 56 51 54 53 57 60 58 61 56 60 59 55 48
10 10 19 22 23 24 26 24 21 27 35 30 30 27 28 33 37 36 35 35 38 39 36 32 32 33 31 29 31 32 36 37 39 39 43 47 45 48 52 54 56 59 64 70 71 63 59 67 57
16 12 14 22 27 23 23 22 24 24 27 28 30 29 28 32 35 32 36 36 35 37 37 36 32 33 28 29 29 31 33 38 38 42 43 44 44 46 48 48 47 56 61 68 65 58 64 68 61

GFSSGP_prec_cthk_012.txt.gz
RH
64 73 86 88 88 76 89 75 79 79 72 72 76 75 83 85 81 85 89 87 90 88 82 81 76 75 68 60 54 49 46 45 46 43 41 40 38 33 34 36 37 39 41 44 48 48 52 58 64
58 75 88 96 89 85 76 76 74 68 70 78 75 77 79 83 79 78 84 83 83 83 79 71 67 62 58 56 51 47 45 45 43 41 42 40 39 36 40 43 42 42 40 43 46 49 49 55 59
61 74 77 82 69 90 68 70 73 68 71 76 80 82 73 74 76 73 75 77 74 72 68 63 62 58 55 53 50 48 46 43 43 44 43 42 43 46 49 50 47 43 42 42 43 45 48 51 56
71 94 82 76 71 63 62 59 60 65 70 71 73 74 70 71 68 67 71 75 73 71 66 64 62 56 52 51 50 47 44 42 44 44 42 42 48 51 52 51 51 48 46 46 45 45 43 48 52
72 76 66 48 56 64 52 57 67 63 71 70 70 70 68 68 68 66 66 64 65 68 63 60 56 54 51 48 46 46 44 44 43 43 45 50 55 59 59 57 57 52 52 52 52 49 44 45 51
84 60 61 38 34 46 45 48 60 63 74 66 67 66 70 64 66 62 57 56 59 59 59 57 55 52 48 45 43 44 44 45 46 48 49 53 56 59 61 61 60 58 57 60 58 59 55 49 52
61 65 49 44 35 35 39 52 58 50 59 67 63 66 63 64 58 56 55 59 59 54 54 53 51 48 44 43 42 42 44 45 47 49 52 55 58 60 57 56 56 57 67 68 64 60 62 59 53
58 61 61 47 40 38 33 45 56 44 63 60 66 59 60 57 57 56 54 56 56 58 52 52 47 45 41 40 41 42 43 44 46 47 48 50 52 54 60 58 56 59 62 64 64 65 64 64 63
55 55 58 52 42 40 34 32 47 52 47 56 69 56 56 58 55 57 54 55 54 53 51 52 47 45 44 41 42 41 42 44 45 46 48 49 63 55 85 56 54 47 45 45 44 45 49 49 51
50 56 56 62 43 45 38 36 29 33 39 54 50 57 52 60 54 53 53 49 61 49 50 53 46 43 46 46 41 40 39 40 42 44 44 47 91 57 56 73 41 46 48 34 36 48 61 53 36
45 53 51 48 44 42 48 41 31 36 36 40 55 52 52 58 50 50 51 47 47 48 57 51 46 48 47 46 39 37 40 44 45 47 52 52 74 61 76 59 54 74 79 51 47 60 56 42 41
35 38 40 50 45 41 44 43 37 39 49 38 46 44 50 53 55 49 52 46 50 49 56 51 46 46 51 47 41 40 43 44 47 50 49 46 50 61 70 76 78 72 62 90 48 41 48 38 35
31 35 36 34 36 35 50 47 43 39 45 40 37 41 45 48 51 51 45 51 48 45 48 44 44 47 46 48 46 53 52 54 58 51 48 50 51 62 68 56 54 43 48 43 45 42 43 39 34
29 29 31 29 30 35 46 48 40 37 38 38 34 34 39 45 47 48 48 47 49 44 46 40 41 39 42 45 42 52 45 54 48 54 53 48 54 52 56 51 48 48 49 47 46 46 46 42 36
29 28 28 29 29 34 34 52 42 37 35 38 32 31 35 40 40 40 44 47 48 44 47 42 42 35 34 36 41 38 46 45 50 43 41 57 56 44 51 52 52 50 54 54 47 52 51 48 40
25 27 29 29 33 32 29 47 33 39 35 35 34 29 32 36 38 40 40 42 42 42 39 38 39 35 37 36 38 35 36 44 42 54 61 53 48 44 46 47 59 63 46 60 56 52 49 48 41
24 28 27 28 36 35 27 46 51 44 37 36 37 32 28 32 34 35 35 37 37 35 34 33 35 37 33 33 34 36 38 46 51 53 50 58 61 52 46 43 48 52 45 40 44 49 51 38 26
23 26 27 27 31 34 42 37 42 44 50 43 35 33 30 28 30 32 31 31 33 33 32 30 30 36 35 31 34 47 41 52 47 45 63 54 54 41 51 43 43 43 39 45 40 46 40 23 24
22 28 26 29 39 38 47 51 40 41 52 43 34 34 31 30 28 31 30 31 31 32 32 29 28 30 34 34 44 48 48 48 44 40 42 41 51 41 45 40 45 45 40 40 39 27 20 24 30
21 28 28 28 33 43 41 46 39 51 51 41 33 29 29 28 30 29 31 31 29 30 30 27 27 28 29 32 40 41 40 39 40 47 40 42 40 37 40 33 34 36 34 30 24 19 18 28 33
21 26 28 29 34 35 34 37 48 52 47 39 34 32 27 27 28 30 30 28 29 29 26 24 25 26 26 28 32 36 52 44 43 44 39 36 34 33 40 35 34 36 32 25 21 23 21 27 35
21 22 26 26 34 38 35 41 42 50 45 41 30 34 31 27 30 32 33 33 30 29 25 24 25 26 25 27 32 35 40 46 45 39 39 31 34 31 30 25 29 28 24 23 24 21 19 21 34
18 21 24 25 31 39 43 43 42 42 48 49 40 32 34 34 31 35 37 37 35 31 30 26 24 26 25 24 29 40 42 40 36 31 33 38 38 30 32 31 30 25 20 26 29 28 20 25 28
16 24 23 24 27 32 36 38 32 43 33 44 49 46 34 33 35 37 38 40 40 37 40 36 30 27 27 26 28 33 41 35 33 40 39 37 32 30 31 34 33 30 29 38 39 37 33 30 27
12 21 25 25 26 27 28 38 32 39 36 34 46 54 44 34 40 38 38 38 41 44 40 40 39 35 30 26 27 27 34 32 36 37 37 35 33 33 38 46 47 47 47 54 53 53 52 47 37
11 16 21 28 26 25 21 26 29 37 37 35 45 48 44 38 41 40 37 36 40 42 40 40 37 33 36 34 31 31 30 33 31 35 34 34 37 47 53 53 53 51 53 53 56 58 56 54 55
10 14 14 21 22 24 22 22 19 26 34 33 42 37 36 41 43 42 40 36 38 37 41 39 33 35 31 31 29 30 30 33 33 33 34 40 44 51 51 52 53 55 53 58 65 64 67 66 59
9 11 14 18 25 26 22 24 26 24 31 37 35 37 32 27 37 44 38 34 38 38 41 41 38 31 34 31 27 31 32 32 33 29 36 43 49 47 51 54 55 54 52 57 58 63 66 60 58
13 10 12 15 18 22 25 23 22 25 26 29 31 29 33 29 28 37 37 32 34 39 41 41 37 35 35 36 27 27 29 27 28 31 37 41 44 50 49 50 50 51 48 51 55 58 57 55 57
14 10 10 14 19 17 21 21 21 22 24 28 30 28 27 21 27 35 39 33 31 34 38 38 38 38 33 34 28 24 23 24 26 31 35 39 43 47 48 53 49 50 49 49 51 53 52 53 53

GFSSGP_prec_cthk_015.txt.gz
RH
76 82 80 84 90 93 84 82 76 74 73 73 72 78 84 80 77 87 90 84 84 86 84 79 77 70 64 57 50 45 42 41 40 39 39 36 31 34 34 35 35 37 43 45 47 49 55 58 64
73 82 86 78 86 91 77 71 75 70 72 68 75 78 77 80 78 83 82 79 77 75 73 71 66 59 52 48 44 41 41 39 39 39 38 35 35 38 40 39 39 39 41 45 48 47 53 58 61
77 89 97 85 81 82 72 65 66 70 74 71 73 73 72 76 76 77 76 73 70 68 65 62 57 53 49 43 40 39 40 40 41 41 40 40 42 47 48 46 43 42 41 44 46 47 50 53 59
75 81 86 93 70 63 63 72 65 65 71 69 66 65 68 70 69 67 69 68 64 59 57 55 52 49 46 42 41 39 39 41 42 41 42 46 49 51 52 53 50 48 47 47 48 42 48 56 58
68 70 85 92 60 67 51 62 75 64 65 67 67 67 66 65 63 64 64 62 58 58 58 57 50 46 44 43 41 40 40 41 44 47 49 53 56 57 57 57 54 53 54 56 54 50 52 56 57
67 73 76 64 58 53 63 51 61 59 69 63 62 61 64 65 63 60 58 61 58 55 54 52 48 45 43 42 42 40 41 45 48 50 52 55 60 61 62 58 58 62 66 63 61 62 59 55 56
66 72 67 60 50 50 48 50 74 63 52 60 59 59 63 62 56 54 53 53 54 54 53 49 46 44 41 41 41 43 45 47 50 53 55 57 59 58 58 60 60 62 67 65 62 62 67 66 66
64 69 70 58 57 49 54 51 53 55 59 58 55 55 54 52 52 52 55 54 50 51 52 48 45 41 39 40 42 43 42 45 47 48 50 51 56 57 60 55 56 53 58 55 57 64 67 67 63
64 68 77 62 54 49 52 53 59 50 63 52 61 54 50 48 50 50 52 52 51 50 47 45 43 39 38 38 39 40 42 44 46 46 46 52 63 57 57 60 52 46 45 43 40 44 43 41 39
52 63 63 54 53 49 48 50 46 47 47 51 61 58 54 49 50 47 47 47 56 46 48 43 41 39 37 36 37 38 40 42 42 40 46 60 52 56 66 65 56 56 46 38 46 62 60 44 36
54 51 51 53 46 50 48 47 40 38 46 46 39 50 51 46 47 44 43 41 44 45 48 44 39 40 39 36 37 38 40 42 44 44 46 53 65 76 67 62 63 62 44 55 57 40 43 39 42
46 44 44 47 47 45 48 50 48 36 39 47 42 44 45 49 42 39 38 40 43 43 48 44 39 39 39 38 39 37 39 44 48 48 47 46 57 61 82 65 59 61 55 42 43 39 42 39 40
37 37 38 44 43 44 44 45 52 43 40 39 44 41 41 44 42 40 39 37 40 43 47 43 42 39 38 41 41 41 42 45 49 52 53 52 52 55 58 59 49 48 47 45 43 46 46 41 38
32 33 33 35 43 39 38 50 50 54 43 35 37 37 41 40 43 41 40 40 40 40 39 42 42 36 37 41 42 45 46 47 45 50 56 59 55 52 51 54 52 52 48 58 55 49 49 44 39
30 32 30 30 30 38 41 45 57 55 43 36 37 31 37 45 41 41 37 38 39 39 40 37 35 34 33 34 36 44 46 45 49 48 51 54 52 49 49 51 56 58 51 62 50 53 47 43 37
29 28 30 30 28 31 40 51 52 53 44 35 34 30 32 40 42 41 40 42 39 36 36 35 36 33 32 32 35 35 38 39 42 44 54 54 50 49 48 51 49 59 53 46 43 47 45 42 34
26 25 24 28 30 35 38 44 33 46 51 41 33 29 30 37 39 40 39 39 38 32 32 31 30 29 30 31 30 32 34 41 41 45 46 51 57 60 47 42 43 45 53 44 40 39 41 35 27
24 22 23 29 30 32 39 41 42 42 43 41 31 29 26 31 35 34 33 37 34 31 30 28 25 26 30 30 34 37 36 40 36 40 43 56 54 48 42 44 41 44 45 39 37 32 29 22 18
23 23 23 27 29 40 42 42 44 42 41 37 28 29 28 25 27 33 32 31 33 30 29 27 27 25 28 29 35 39 37 41 41 41 46 37 39 43 43 40 38 40 38 28 26 26 17 20 23
23 21 22 28 32 38 41 42 42 44 33 35 30 30 26 27 25 26 30 28 27 27 26 26 26 26 26 28 34 39 37 40 39 37 35 36 39 38 37 34 31 29 32 28 23 18 15 24 26
20 22 23 29 37 39 44 46 45 46 42 49 41 34 28 22 23 23 24 25 25 25 23 23 23 26 25 25 32 33 35 39 37 38 37 43 35 33 30 31 28 26 29 29 27 19 19 26 28
18 22 23 29 32 44 49 52 54 49 49 49 48 47 32 24 23 25 26 25 25 24 22 21 23 24 25 25 26 31 33 36 40 37 32 32 35 32 31 25 23 25 32 35 27 29 27 33 34
11 20 24 28 30 36 39 44 50 50 49 43 48 52 39 32 25 24 25 26 27 28 25 21 22 23 24 25 24 26 29 32 40 37 35 37 33 35 29 23 26 35 39 40 44 45 44 47 42
8 14 20 26 28 33 34 42 46 56 49 48 48 51 48 46 32 30 32 34 35 35 35 30 25 25 25 25 23 22 25 31 34 33 30 33 33 32 29 38 45 46 47 47 51 56 58 55 54
9 12 19 27 30 31 30 35 37 38 43 37 44 53 51 53 43 35 41 38 35 36 37 36 33 30 30 28 24 22 23 29 28 26 28 31 31 32 41 44 45 46 47 50 53 59 57 58 56
10 10 15 25 26 26 26 30 29 29 31 34 43 49 47 45 43 42 40 36 35 38 39 39 35 33 32 32 31 27 25 27 30 26 33 33 33 41 47 45 47 47 50 47 52 52 55 52 54
12 11 10 16 22 27 23 24 24 26 28 36 43 42 43 47 45 45 45 40 36 35 37 36 36 34 31 28 27 29 30 29 34 27 31 34 40 45 45 44 48 51 50 45 45 49 52 51 50
11 11 13 13 17 22 18 24 24 26 26 29 35 38 39 38 46 47 49 42 33 31 34 37 37 34 32 32 27 25 23 32 33 30 31 37 44 45 44 44 48 49 54 53 48 50 54 56 56
13 11 12 13 15 18 24 18 19 25 29 31 32 33 33 33 31 41 44 41 33 32 33 34 36 36 34 32 30 25 22 28 30 27 30 36 43 43 46 46 49 48 51 53 48 47 52 54 54
15 14 12 14 16 19 19 16 18 21 25 30 28 30 30 32 33 38 41 40 33 33 31 32 35 35 33 31 31 27 23 25 26 27 30 33 38 43 44 48 48 52 51 51 50 45 47 51 52

GFSSGP_prec_cthk_018.txt.gz
RH
79 85 89 93 96 94 87 81 75 76 76 75 73 76 78 81 77 84 85 84 89 91 86 83 79 71 60 52 45 41 40 40 38 38 34 30 32 33 34 35 38 41 43 46 49 54 56 62 67
78 87 84 89 92 86 78 75 76 72 72 73 75 76 76 79 77 78 78 81 83 80 78 74 68 62 51 45 40 39 38 37 37 35 32 34 38 40 39 39 39 40 43 45 46 51 56 60 67
82 85 77 86 84 77 71 69 72 71 71 70 75 71 72 76 76 72 71 72 73 72 70 64 58 52 45 40 40 38 39 40 39 39 38 43 47 47 46 44 42 42 44 45 45 50 53 58 64
85 82 81 89 74 69 74 73 67 68 71 68 67 71 72 73 73 68 66 65 66 66 63 55 50 45 40 39 39 39 40 41 41 41 45 48 50 52 55 51 49 50 51 47 43 50 53 56 59
81 82 90 82 72 66 60 63 69 63 67 66 60 68 67 71 69 65 62 60 60 57 54 50 45 40 38 38 39 40 42 43 45 47 52 53 55 58 57 54 55 57 57 58 53 54 53 57 58
74 78 79 77 69 59 56 62 65 60 60 64 62 61 65 64 64 61 57 53 52 51 52 47 43 42 41 39 40 42 45 47 49 49 54 59 59 59 57 59 64 67 66 65 64 62 61 61 62
69 65 69 66 71 71 61 51 58 53 55 59 55 58 62 61 59 55 55 55 54 53 49 44 43 43 43 42 42 44 47 49 50 53 56 58 57 61 59 59 58 63 62 62 65 64 66 67 70
66 63 62 62 67 64 59 55 48 47 58 52 51 53 55 54 52 52 54 55 52 50 48 45 43 42 42 43 43 43 46 45 46 48 49 51 55 58 53 50 47 47 48 48 48 49 49 50 48
64 61 60 56 56 61 63 62 60 44 50 47 54 45 45 46 46 49 52 52 51 50 48 45 43 41 42 43 44 44 44 43 43 44 46 57 60 64 60 54 44 43 43 45 44 50 46 44 37
62 59 54 50 53 58 58 57 50 45 37 36 53 50 47 46 45 46 46 46 46 47 45 44 41 40 40 40 40 41 39 38 38 44 50 54 63 63 61 56 56 51 46 48 50 46 41 35 34
51 54 56 47 52 52 57 52 53 53 43 35 32 43 45 41 47 47 43 41 43 44 42 40 40 37 35 35 35 35 36 38 37 42 51 62 64 68 67 67 64 62 45 53 55 42 36 35 33
43 46 51 50 52 50 51 48 54 49 36 39 35 31 40 40 41 38 37 42 40 43 41 37 39 36 35 34 34 36 39 40 39 41 46 53 59 63 60 61 56 51 51 49 46 41 44 40 34
38 42 47 51 48 52 54 50 50 50 43 43 43 35 37 41 39 40 36 36 36 40 40 38 37 34 35 36 37 35 40 41 46 49 50 49 51 50 51 49 48 45 45 48 45 45 44 41 38
37 36 38 40 45 51 51 50 49 53 49 47 44 36 34 40 40 41 36 36 39 39 37 40 37 34 36 37 38 39 44 46 46 52 58 56 50 53 56 51 50 46 48 55 51 50 49 44 41
33 32 30 31 35 53 47 50 47 44 47 40 44 39 31 36 41 39 35 34 37 34 37 37 35 35 34 33 37 41 41 44 45 44 56 55 47 48 50 49 49 51 61 46 54 46 48 46 42
30 28 28 30 31 43 43 49 47 45 49 55 48 42 31 32 37 37 35 35 34 36 37 37 37 32 31 31 35 40 44 39 39 43 48 48 50 51 49 49 44 43 48 47 41 39 41 44 41
31 29 27 27 31 44 46 50 46 50 46 44 54 47 32 29 34 34 34 33 33 35 37 37 35 33 31 33 30 36 41 43 44 44 44 50 56 57 54 46 43 44 44 46 38 36 34 34 30
30 29 27 27 30 37 41 42 45 49 51 49 51 45 36 24 27 30 31 32 32 32 33 35 34 31 31 29 33 36 39 43 40 36 39 46 50 53 47 41 41 39 37 31 31 33 29 24 17
30 30 27 28 31 34 37 40 43 49 53 51 48 40 34 27 22 28 31 32 32 32 31 31 29 28 30 32 36 37 38 39 38 35 39 41 44 47 43 43 36 35 30 28 24 27 21 16 24
25 27 26 26 28 32 43 40 43 47 48 45 43 44 32 31 21 24 27 30 27 27 29 29 27 27 26 29 32 36 34 33 36 37 38 40 37 37 37 35 34 27 26 26 25 28 20 24 26
18 24 25 25 28 35 42 47 48 47 50 50 47 41 31 29 29 19 24 23 24 24 25 24 23 24 24 26 30 35 37 30 33 34 34 33 34 36 34 31 27 26 27 32 34 34 31 38 38
16 18 24 27 30 37 48 53 51 50 51 49 47 43 32 30 30 24 19 21 23 22 22 22 23 23 22 24 25 29 28 33 33 35 36 34 36 36 33 28 28 33 34 39 44 47 47 52 54
11 16 25 28 30 33 40 47 46 47 49 48 45 44 43 31 31 30 23 25 21 22 23 23 22 22 22 23 23 24 28 30 31 36 34 34 35 33 31 31 37 41 46 49 51 48 46 50 57
9 12 20 27 31 36 32 38 42 45 43 45 44 42 43 39 32 32 32 35 35 32 31 30 28 24 23 24 23 21 22 25 29 30 34 33 38 32 31 42 39 44 48 46 49 50 48 44 57
12 11 16 24 30 29 29 37 33 33 36 38 41 42 41 43 43 40 35 39 38 34 34 35 36 36 29 26 24 23 21 21 24 27 32 31 30 29 35 43 45 44 46 47 44 48 49 45 46
13 12 12 18 26 27 27 35 25 28 34 36 38 41 40 41 44 37 38 36 35 35 35 36 36 39 34 30 29 28 26 21 21 26 30 29 26 32 39 45 46 45 43 45 44 46 49 50 48
13 13 11 12 17 25 25 26 23 25 31 32 36 40 38 38 42 44 45 38 35 38 35 37 37 38 36 29 28 28 27 26 24 33 31 26 31 38 44 46 47 44 43 45 45 47 49 50 50
13 12 13 14 14 16 18 22 21 21 26 27 30 35 34 36 39 41 36 31 32 36 38 37 36 36 35 32 28 25 24 25 26 32 29 28 33 42 44 46 46 45 50 51 52 47 46 49 50
14 14 14 13 14 12 17 12 14 15 24 28 29 28 32 34 36 38 36 36 33 34 37 38 36 37 37 34 31 27 24 23 25 30 28 29 39 41 42 43 43 45 48 50 51 53 47 48 51
16 14 13 14 14 15 10 8 9 13 22 27 28 33 36 33 38 39 37 35 39 34 34 37 34 36 34 34 35 31 26 22 25 29 25 31 39 40 41 43 46 48 49 50 52 54 53 48 48

GFSSGP_prec_cthk_021.txt.gz
RH
74 80 84 89 91 91 87 79 77 76 76 81 78 80 83 87 84 85 85 89 89 86 86 85 80 70 56 48 44 43 42 39 39 35 31 31 33 34 37 42 43 44 45 50 55 57 63 66 67
76 80 80 84 89 90 82 77 78 78 81 79 79 81 83 85 82 83 84 84 86 83 82 76 72 57 50 45 44 43 40 39 37 31 34 37 37 39 40 40 43 45 43 46 50 54 59 66 69
69 69 80 86 84 83 75 74 78 77 77 77 80 82 81 81 81 80 80 81 77 76 76 71 62 50 45 42 41 40 39 38 34 36 42 45 46 46 41 41 43 44 42 47 49 51 54 65 66
73 73 76 79 77 69 68 68 70 74 76 74 75 79 78 78 75 74 75 73 71 70 69 64 50 43 41 39 39 41 40 39 40 43 46 48 53 51 47 46 47 46 42 46 47 46 50 60 63
76 76 75 74 65 62 64 67 68 69 72 69 68 75 77 74 69 69 69 67 66 64 58 52 45 40 39 40 41 41 41 43 46 49 52 56 56 55 53 56 57 59 58 55 52 50 49 51 59
73 78 79 66 64 61 64 69 60 58 68 66 65 66 73 68 64 62 63 61 59 56 51 46 42 40 39 39 41 43 45 47 48 53 57 59 59 55 58 60 63 62 61 59 59 61 63 67 66
71 74 72 67 65 59 58 54 55 60 60 60 57 62 66 63 59 57 56 54 53 52 48 43 40 39 38 39 42 45 48 50 51 55 56 57 59 56 54 52 53 53 54 55 54 58 59 57 55
71 67 66 74 67 63 60 58 57 58 53 51 54 56 58 55 51 52 52 50 49 50 46 43 41 39 39 39 42 44 46 47 47 48 48 51 55 52 48 47 45 45 44 44 45 46 43 45 45
71 67 63 53 52 53 55 58 59 48 43 50 53 46 46 46 48 51 52 52 51 50 45 44 41 41 41 42 42 44 44 41 41 43 51 59 60 57 60 51 47 44 44 45 48 49 42 40 37
67 64 56 53 50 49 55 59 64 57 41 41 53 44 45 45 46 49 50 49 49 47 45 43 42 40 41 42 41 41 40 40 41 43 55 60 62 61 61 61 56 48 43 46 44 42 40 38 35
58 57 52 51 54 53 53 59 62 61 49 37 41 40 46 45 45 46 47 47 46 46 44 41 40 40 40 40 39 36 36 36 40 44 55 60 65 69 68 64 61 50 43 45 47 43 37 37 32
53 49 48 49 55 59 58 55 56 59 38 34 32 32 40 39 41 41 41 41 43 45 42 41 39 36 36 36 35 35 36 35 36 45 51 59 60 58 58 61 52 50 49 46 41 40 43 38 32
44 45 42 44 53 55 56 53 50 54 48 44 32 34 33 36 39 37 35 37 40 44 38 39 38 34 34 32 33 34 36 37 38 44 49 51 50 51 51 51 51 48 48 48 49 52 47 40 36
39 39 38 36 39 44 55 57 53 56 55 53 41 36 29 35 37 38 36 35 39 40 38 38 34 33 34 33 35 35 36 40 45 51 52 55 52 55 56 55 52 51 52 54 60 55 48 45 40
34 36 34 33 35 40 50 57 49 52 58 61 57 42 32 32 37 36 32 32 36 38 39 33 33 34 34 34 36 34 36 40 46 50 56 53 51 52 56 56 51 51 52 56 46 42 42 45 41
32 33 32 32 31 32 43 45 49 54 55 59 57 54 38 27 33 35 32 32 34 35 37 34 34 33 32 30 33 33 37 40 42 48 49 48 52 50 54 54 49 45 45 48 46 40 38 40 39
32 31 31 31 29 30 34 40 47 52 56 57 58 52 45 28 33 36 33 32 31 35 36 38 36 34 32 31 33 36 36 36 41 44 45 49 52 55 54 49 44 42 40 36 35 32 26 33 31
29 29 31 31 32 35 36 42 52 54 55 55 52 44 46 33 26 30 32 32 33 36 36 37 36 34 34 31 32 35 41 41 41 41 43 49 49 51 54 42 40 40 32 30 28 29 28 28 28
29 28 31 31 30 33 35 43 51 51 55 56 58 47 40 33 22 29 32 32 34 36 36 35 34 34 33 36 38 35 37 42 40 37 40 39 44 46 49 41 41 34 27 27 25 27 32 26 24
26 28 29 31 31 30 32 35 41 50 50 50 48 52 39 39 29 24 29 31 29 29 30 30 31 33 33 35 33 35 39 38 39 39 39 39 44 41 39 39 37 28 26 32 36 39 45 40 47
20 24 28 30 31 33 35 38 41 49 54 54 51 46 43 38 34 28 20 22 24 23 23 23 25 29 31 32 33 35 37 36 35 36 36 37 39 39 38 38 31 28 32 37 48 52 48 47 53
17 19 28 29 32 33 36 47 44 44 53 51 55 48 42 36 32 28 28 18 16 16 19 23 26 27 29 31 31 33 31 32 31 31 36 37 33 36 36 31 33 38 44 50 54 54 47 49 50
12 17 26 30 31 31 32 39 37 46 49 50 50 45 47 36 31 26 24 25 16 13 15 18 20 23 27 28 28 29 32 30 34 33 36 35 32 36 34 35 42 47 49 53 53 51 43 44 53
10 14 19 30 33 36 28 34 32 45 41 43 41 45 48 44 36 28 25 30 31 28 23 21 21 22 23 24 24 25 27 30 32 34 35 33 32 30 30 39 47 49 47 50 49 46 45 42 44
12 13 20 25 31 25 27 33 24 35 34 37 39 41 44 46 47 40 37 38 33 32 29 28 26 26 25 23 24 24 24 26 27 30 29 30 31 27 34 40 47 47 46 47 45 46 46 47 45
14 13 18 20 24 22 24 29 20 26 29 33 38 39 42 42 44 46 41 36 37 31 31 31 31 32 34 34 29 25 26 26 25 26 28 27 29 28 35 39 46 47 48 47 47 44 47 50 49
14 16 11 14 17 21 21 20 19 22 27 32 35 39 39 40 41 43 45 41 44 38 33 33 34 34 35 35 36 32 28 27 28 26 25 29 29 31 35 41 44 47 47 45 46 44 45 47 48
14 13 14 16 18 19 15 17 18 20 23 29 32 30 33 35 38 40 42 40 39 35 33 36 37 34 34 35 36 33 30 29 26 30 27 31 29 32 34 40 44 49 49 45 44 47 44 46 48
15 15 16 16 15 14 15 11 10 14 20 25 30 28 29 31 32 36 39 39 36 39 36 34 35 36 36 36 37 38 31 27 27 29 28 28 29 32 37 40 43 46 49 46 48 50 53 48 46
12 13 16 18 16 15 12 10 8 8 13 20 23 25 24 26 28 32 39 42 39 39 37 32 34 38 37 36 36 37 36 28 26 26 29 25 27 31 36 41 42 45 48 49 50 50 54 57 54

GFSSGP_prec_cthk_024.txt.gz
RH
77 83 88 92 95 93 91 84 78 80 81 83 81 84 86 88 86 89 89 92 91 91 91 91 87 71 54 44 42 42 40 38 37 32 32 33 35 39 42 42 42 42 50 57 57 61 64 66 65
80 80 87 89 88 90 86 81 79 79 82 79 81 83 84 87 87 86 89 89 86 86 85 84 79 54 42 40 40 40 38 37 33 36 38 37 37 38 40 43 42 42 45 49 56 62 65 68 68
76 78 82 84 83 84 80 78 78 80 81 78 79 82 83 85 85 87 86 84 82 78 78 76 61 44 40 40 40 38 38 35 36 42 44 44 44 41 41 43 41 41 45 47 50 54 58 62 65
76 73 79 78 73 72 73 73 74 77 76 76 74 80 82 81 82 83 83 77 75 71 71 66 47 42 40 39 39 40 39 40 43 47 49 53 50 48 47 47 45 43 46 46 47 48 51 57 65
74 72 73 70 66 68 64 67 70 70 72 72 72 76 77 79 77 78 75 73 68 66 66 53 41 39 39 39 41 42 44 46 48 53 56 56 55 54 58 60 62 60 59 58 57 54 56 59 63
75 70 75 69 59 56 59 58 63 68 71 68 67 69 75 70 69 69 69 68 64 60 55 44 38 38 39 41 42 44 46 47 55 58 59 57 55 56 58 61 60 59 60 60 62 64 64 62 58
73 75 71 61 60 57 55 56 60 65 66 62 62 67 68 65 65 63 61 60 59 54 49 41 37 38 40 42 45 48 48 49 55 56 57 56 55 52 49 48 48 51 50 52 50 47 48 46 45
70 71 70 67 66 61 56 56 56 53 55 57 59 62 62 60 58 57 56 54 52 49 45 40 38 38 39 42 44 47 49 49 50 48 50 53 51 48 46 44 42 44 47 46 44 49 48 43 39
71 69 65 57 61 57 58 60 52 44 44 54 53 51 52 50 50 52 52 51 49 45 41 38 38 39 39 40 43 44 45 44 44 49 56 56 56 57 53 46 42 43 45 43 43 41 42 37 33
71 69 57 48 52 59 64 59 56 52 39 44 53 45 44 45 46 47 47 45 44 42 42 39 38 38 39 40 42 42 42 41 45 53 59 63 62 58 62 58 48 43 43 48 46 39 37 34 30
62 62 54 47 47 53 65 65 58 53 44 36 40 39 41 42 43 45 44 43 41 42 41 38 39 40 41 40 39 39 40 43 45 51 59 60 67 63 62 59 53 43 42 44 43 41 41 40 29
56 54 54 46 42 50 54 66 60 57 50 44 34 27 39 37 39 41 43 43 42 42 39 37 38 39 39 37 37 37 37 42 45 50 55 59 57 56 54 56 48 48 47 47 45 44 46 41 32
52 52 49 42 40 42 52 56 58 62 61 59 47 36 32 35 37 39 42 43 42 41 38 36 36 36 34 35 36 36 36 38 40 44 49 53 51 49 50 51 49 50 53 55 55 55 48 45 40
42 42 43 42 38 36 43 48 54 61 66 65 60 57 35 32 35 36 35 37 39 41 36 37 34 34 32 33 34 35 37 38 40 47 51 52 56 54 56 53 50 56 56 57 51 48 44 46 41
37 40 38 41 35 32 39 49 50 58 66 68 67 61 48 32 35 33 32 32 36 38 36 35 32 32 32 32 32 33 34 39 42 50 50 55 54 54 54 56 52 48 47 48 49 46 38 37 38
33 36 36 37 33 31 37 44 45 54 60 67 67 64 49 38 34 36 33 30 35 37 36 32 32 33 33 32 32 33 33 35 44 51 50 54 54 54 54 55 49 44 42 41 37 37 35 36 37
28 34 35 35 34 32 38 41 42 50 57 63 68 60 49 42 33 36 32 30 34 37 35 32 30 29 28 29 30 32 32 35 42 49 48 52 55 54 62 52 45 42 37 33 35 34 33 32 34
25 28 31 32 34 35 37 36 41 50 56 59 64 63 50 43 26 33 33 32 32 34 33 30 29 30 31 32 30 32 32 40 42 42 47 50 52 55 55 48 41 40 33 32 30 30 33 32 32
25 27 31 32 33 34 33 36 45 48 57 57 60 62 52 40 27 31 32 32 31 33 34 35 33 31 32 31 29 32 37 38 40 40 44 45 46 46 47 45 41 37 33 31 34 39 46 50 37
21 26 29 32 33 31 29 35 41 47 46 51 60 61 57 40 40 27 28 30 30 29 30 32 30 31 30 36 33 32 34 37 39 39 39 39 39 41 42 41 40 34 36 37 46 51 50 47 45
17 21 28 31 33 35 36 33 32 41 47 51 56 60 52 48 39 32 24 25 25 26 27 28 27 26 27 33 35 33 38 38 36 38 39 37 37 41 37 35 33 33 39 48 51 52 49 42 46
16 17 23 31 33 35 37 37 35 40 46 50 49 53 47 45 38 36 27 26 22 21 22 22 23 24 25 31 32 32 32 34 32 30 33 36 36 35 36 32 33 37 49 55 51 49 50 44 48
12 13 21 28 32 33 33 35 28 34 47 47 49 46 40 37 37 31 28 22 21 18 19 20 19 22 24 27 27 29 33 34 33 32 33 36 34 32 32 29 34 45 53 53 49 45 48 45 47
10 12 16 24 31 34 28 30 27 34 35 42 47 46 41 38 36 33 25 26 26 22 18 18 19 19 21 23 26 25 26 29 33 36 37 34 33 32 30 32 40 49 54 50 47 46 48 46 45
12 15 21 23 29 24 26 30 20 22 26 34 42 40 44 43 37 33 37 35 32 30 25 20 22 21 22 21 24 25 25 27 31 35 32 32 30 30 28 36 42 47 51 48 45 45 46 46 45
14 15 21 22 23 22 25 22 19 19 25 34 34 37 41 42 42 39 41 36 33 34 35 31 25 21 23 23 23 24 27 27 28 32 33 31 27 28 32 37 42 46 51 50 44 43 45 46 47
16 16 12 15 17 19 20 17 17 18 22 30 32 35 38 39 41 44 45 42 39 38 39 35 33 30 29 27 28 30 29 29 28 28 30 29 27 26 31 39 43 44 49 50 48 46 48 46 47
15 14 18 19 20 20 17 14 17 16 17 25 31 34 33 38 41 44 44 46 43 40 39 33 36 32 32 33 33 36 37 35 31 31 31 30 27 27 29 38 41 43 47 50 50 47 47 47 46
17 17 17 17 18 19 19 14 11 11 13 17 26 31 31 31 32 36 40 43 43 43 41 34 35 37 36 37 35 35 35 36 35 32 32 29 30 28 30 36 40 41 46 49 49 47 48 48 44
17 16 17 18 17 17 17 12 9 7 7 13 20 28 27 28 27 28 32 37 44 40 43 38 35 34 33 36 38 36 36 37 36 31 29 27 31 29 31 35 40 41 43 47 48 49 51 54 56

GFSSGP_prec_cthk_027.txt.gz
RH
77 85 88 93 94 90 85 81 78 78 78 81 81 81 81 85 87 88 94 95 93 93 92 93 86 66 52 48 45 41 37 34 30 30 34 37 40 41 40 42 46 52 56 59 63 65 68 71 74
82 84 90 87 88 81 79 78 78 78 80 80 81 80 82 90 88 87 93 91 91 92 91 87 72 49 45 44 42 38 35 31 33 35 37 37 38 41 43 42 45 50 58 58 62 66 68 70 76
76 82 85 85 81 77 76 77 78 82 81 78 81 83 83 86 87 88 89 87 88 84 83 76 56 40 39 40 38 36 33 35 41 43 44 43 41 41 43 40 43 49 51 51 54 58 64 68 75
79 79 81 80 73 72 71 73 77 81 82 77 79 84 84 86 84 85 82 83 77 77 74 60 43 38 38 39 38 37 38 40 46 49 53 50 49 49 49 44 47 52 49 48 50 52 57 64 71
76 76 74 71 66 66 67 70 74 72 74 76 77 77 83 86 82 79 77 75 69 72 66 48 39 38 40 39 39 42 43 47 53 56 57 56 56 59 60 61 60 62 58 58 60 64 65 65 66
74 71 65 62 58 58 60 66 68 69 71 70 70 74 80 79 77 72 72 69 66 66 56 45 39 40 41 40 42 44 46 54 57 60 58 56 58 58 60 59 59 59 59 61 63 63 58 49 45
71 68 63 60 56 54 53 58 61 62 64 63 65 68 72 72 70 69 67 65 63 60 50 43 40 40 40 42 46 47 49 56 58 60 56 53 52 50 48 48 50 49 45 48 46 45 42 42 37
73 69 66 60 62 56 58 51 48 53 57 58 60 64 66 65 63 64 62 60 56 55 47 42 40 38 41 44 48 47 49 52 51 51 53 52 50 48 42 42 42 46 45 45 48 42 41 41 38
69 70 63 55 57 55 58 53 44 42 48 54 54 54 55 54 56 57 58 57 53 52 45 40 37 37 40 42 45 46 45 45 47 49 55 55 54 53 48 43 40 42 43 44 44 40 38 34 33
68 64 55 51 51 49 53 54 51 42 46 54 52 48 50 53 50 50 52 51 49 48 43 38 36 37 39 41 41 41 43 45 49 56 61 61 58 58 53 46 42 41 41 41 42 40 39 35 30
64 57 52 49 48 49 52 55 57 48 38 37 43 47 45 47 50 49 47 47 46 45 41 37 38 38 38 39 40 40 46 48 52 53 57 59 61 60 56 49 45 42 42 43 44 44 44 36 33
58 54 50 47 46 47 51 49 55 57 50 45 41 39 44 45 43 46 45 45 43 40 37 35 36 38 37 37 37 40 42 45 47 48 55 57 55 50 50 50 44 47 49 51 48 52 46 44 38
55 51 50 44 42 42 51 46 49 55 61 56 49 41 40 42 42 44 45 45 41 37 36 35 36 37 37 37 36 37 40 43 45 45 50 48 49 48 49 51 51 52 54 58 53 58 46 44 42
40 42 42 35 37 41 47 41 45 53 60 63 58 46 39 39 39 41 41 39 37 37 35 34 36 37 36 37 36 36 37 38 40 42 47 50 48 52 51 51 52 54 53 51 50 47 44 41 40
35 34 36 36 34 39 40 44 48 51 57 64 62 56 44 36 39 38 36 36 38 38 36 34 35 34 35 35 36 37 37 38 39 44 47 49 52 52 52 54 52 47 47 47 44 43 44 37 36
33 33 36 38 36 36 37 36 43 47 55 58 61 60 52 39 34 38 37 36 38 37 34 35 34 33 33 34 34 34 35 37 42 45 46 47 51 51 51 53 47 44 42 41 39 42 39 33 35
27 29 37 39 36 34 36 36 40 45 50 55 59 59 53 44 35 36 37 34 34 35 34 32 33 33 33 33 32 31 32 33 41 42 44 48 49 52 56 51 45 44 37 35 37 35 35 30 34
22 26 34 37 35 31 34 37 40 47 48 52 57 61 55 47 32 32 36 35 33 35 33 31 32 33 32 31 31 29 29 32 36 42 47 47 49 52 56 51 43 41 36 35 36 39 47 47 41
21 24 31 36 35 31 31 34 40 47 48 53 59 62 59 51 35 30 34 34 33 35 34 30 29 27 26 26 25 26 27 31 34 38 44 45 46 47 49 51 43 38 34 39 48 51 49 47 41
17 23 26 33 32 30 30 33 35 44 45 44 50 59 58 53 45 32 32 32 30 31 29 28 25 23 24 27 28 28 32 32 34 38 41 40 41 42 42 43 43 36 36 46 51 52 49 50 39
14 16 22 26 31 30 30 29 33 37 42 45 51 52 61 54 49 35 30 28 28 27 27 25 25 24 24 31 33 29 29 33 33 36 38 39 39 40 41 41 36 34 42 52 50 49 49 47 42
11 13 19 26 29 31 29 27 33 33 37 39 47 44 47 51 50 40 30 26 25 22 23 25 27 26 26 27 30 28 28 32 32 32 35 38 37 37 40 40 32 36 50 52 49 48 48 48 46
10 12 14 21 28 30 28 29 25 35 36 38 42 44 41 46 48 39 32 24 21 22 21 22 25 25 26 25 26 28 27 30 34 33 30 32 35 36 37 37 33 41 51 52 50 47 48 49 46
12 13 14 18 22 26 25 27 22 26 30 32 38 44 38 41 40 37 33 34 27 25 23 23 24 23 23 23 24 27 28 32 34 32 30 32 34 32 33 34 35 45 50 52 48 46 47 47 43
14 15 17 17 18 18 20 25 18 23 25 28 31 38 35 36 36 34 34 30 29 28 19 19 20 19 20 22 24 24 25 27 31 32 34 34 33 28 27 29 37 45 50 52 48 46 44 44 44
14 14 14 15 12 13 18 17 16 18 22 26 30 35 38 39 36 35 38 32 27 28 28 22 18 20 21 21 22 23 23 25 26 29 34 34 32 27 27 29 38 43 48 51 49 45 44 43 43
16 16 12 12 14 13 11 11 12 14 18 22 28 35 34 31 32 37 38 34 30 30 37 37 34 24 19 20 21 23 23 24 24 25 26 30 32 29 25 31 36 40 45 47 49 47 44 45 42
16 14 17 15 15 15 11 13 10 11 13 20 29 31 34 30 26 28 33 36 37 35 38 39 38 36 33 26 23 25 26 27 27 27 27 26 28 30 28 30 37 40 44 46 48 49 49 46 46
19 18 16 16 13 12 11 8 8 9 10 14 23 27 34 35 32 37 39 41 42 42 40 40 36 38 38 37 35 31 30 33 36 35 31 30 30 32 32 30 36 40 43 45 48 50 48 47 44
20 19 18 17 19 13 12 10 8 8 8 9 14 24 30 33 35 36 36 40 44 48 45 40 37 36 36 36 38 37 34 35 34 34 35 35 27 30 34 30 33 38 40 42 45 47 47 46 44

GFSSGP_prec_cthk_033.txt.gz
RH
79 88 91 93 93 89 81 78 70 72 71 70 75 79 83 83 89 93 89 85 84 82 77 70 61 54 48 39 32 30 28 32 36 37 38 40 43 47 54 59 59 62 64 67 70 71 75 74 59
81 86 90 89 97 87 78 74 77 74 73 73 73 77 79 83 86 87 90 87 85 82 78 67 54 50 42 35 33 28 28 32 35 37 40 41 43 46 52 55 60 62 64 65 68 69 75 79 75
80 83 88 86 83 91 76 72 72 71 72 75 73 79 79 84 86 89 88 90 88 84 80 63 52 48 38 35 31 30 31 33 35 36 39 42 43 44 48 52 52 53 57 58 64 68 67 72 77
79 80 81 88 84 70 69 73 71 69 70 71 74 75 82 84 84 87 85 85 87 86 73 55 47 43 36 33 35 37 39 42 41 41 41 43 47 46 48 55 48 51 52 53 55 57 62 65 60
76 75 88 89 66 66 69 69 69 68 68 68 72 75 82 85 86 84 84 84 84 76 59 47 45 40 35 36 40 41 44 47 49 49 48 51 53 53 59 58 57 59 63 64 61 54 44 40 42
79 84 78 70 59 62 65 65 62 68 66 66 70 75 81 83 80 80 77 78 78 65 51 44 41 39 36 39 41 44 49 50 54 54 54 58 60 60 60 59 61 59 55 48 45 40 37 36 36
68 82 78 53 53 55 63 63 70 60 61 64 67 75 79 78 75 76 74 77 72 60 50 43 41 38 38 41 43 48 52 54 51 49 50 51 51 52 53 51 47 44 43 43 40 38 38 39 39
66 79 56 54 70 56 48 59 56 60 59 60 66 71 72 70 71 70 72 74 69 59 49 44 41 43 46 44 46 50 51 49 48 49 50 51 47 43 42 43 44 44 40 39 36 34 29 27 29
56 76 66 50 55 52 48 44 50 52 51 55 57 60 62 65 67 66 65 69 64 57 49 45 46 49 53 50 47 45 45 45 49 50 47 60 64 61 47 41 42 43 42 39 38 34 37 40 34
57 87 69 53 47 60 50 47 39 47 48 51 56 57 61 63 62 63 62 62 58 52 51 51 50 52 54 54 44 45 46 49 55 60 47 80 54 61 55 42 38 36 38 39 42 59 43 49 47
61 77 67 49 44 55 50 53 44 47 50 48 49 51 55 56 58 59 61 60 55 51 53 52 52 51 54 55 46 49 51 58 62 61 69 61 63 54 74 47 46 49 45 59 75 60 43 44 46
56 62 61 52 42 44 52 56 55 52 47 48 42 45 50 54 54 56 58 57 55 51 52 50 53 50 49 54 53 57 62 63 62 60 53 54 68 52 90 54 61 59 64 62 69 59 52 52 48
54 57 55 51 44 42 44 57 66 52 44 35 33 41 46 51 54 55 56 56 57 51 50 50 50 47 48 52 55 63 63 59 61 57 49 55 57 49 58 58 67 61 58 50 58 53 48 39 39
56 56 53 48 46 40 36 51 49 56 47 43 31 35 40 46 51 52 56 55 53 50 49 51 48 45 46 46 54 56 56 59 55 54 50 42 51 49 64 58 59 55 55 69 57 52 52 52 37
53 47 50 47 41 37 34 44 48 56 52 50 44 34 33 40 47 49 49 50 50 50 49 50 47 44 40 43 46 51 54 53 53 51 47 46 45 47 67 64 55 57 57 50 45 58 54 43 47
43 47 43 37 36 34 33 41 41 49 51 55 52 46 37 32 42 44 46 49 50 50 47 45 46 44 41 38 42 47 50 51 50 51 49 46 44 47 59 62 53 62 48 48 59 46 44 51 42
28 35 39 38 35 36 34 39 46 48 51 54 56 53 50 36 38 38 41 43 48 47 46 44 42 42 42 37 40 41 44 47 50 49 49 45 44 45 46 60 74 44 42 48 48 57 57 51 50
25 26 35 39 39 36 36 35 47 48 55 54 56 52 52 47 38 35 39 39 44 46 45 41 41 41 41 40 38 43 43 45 45 44 47 43 43 42 44 58 50 42 47 56 64 53 53 55 48
26 30 31 33 35 38 38 39 38 46 51 55 54 53 47 52 45 43 36 37 39 42 44 39 39 37 40 40 40 39 38 39 41 39 40 41 41 42 47 54 54 41 42 52 53 52 56 64 46
22 27 29 31 33 39 38 38 38 40 48 52 56 54 53 48 47 43 37 36 36 38 40 39 37 34 34 37 38 38 37 38 35 37 37 35 40 41 44 57 56 45 65 53 48 47 63 48 44
14 20 25 27 32 34 37 37 38 38 42 50 54 54 54 50 45 42 36 30 35 37 37 37 32 33 32 35 36 36 35 34 35 35 35 36 38 39 41 50 45 44 41 66 51 43 49 57 42
11 12 20 26 29 31 33 35 35 35 37 49 48 54 47 47 49 49 39 33 31 36 34 36 32 32 30 31 36 34 32 32 31 33 36 40 36 36 38 42 41 37 42 60 53 46 51 45 48
11 13 13 19 27 29 29 32 30 33 33 38 46 47 48 49 49 48 38 34 29 33 34 33 29 28 27 28 32 32 31 30 33 36 35 34 42 36 37 38 39 35 37 49 52 49 41 46 51
12 13 13 14 16 23 24 26 27 27 30 35 40 43 45 45 46 44 42 41 31 29 33 32 32 27 28 27 26 27 25 28 31 35 41 41 38 38 34 36 34 38 37 48 46 46 43 42 45
13 13 15 14 14 15 18 19 20 26 26 31 35 40 42 43 41 41 41 40 34 27 27 28 29 24 24 25 25 23 24 25 28 30 35 40 39 37 38 32 38 33 34 45 42 44 41 36 40
14 11 13 16 13 12 12 16 15 20 27 27 33 36 40 43 41 42 38 38 33 25 23 23 25 22 23 20 22 19 19 23 25 27 31 34 37 36 39 34 33 29 34 38 40 44 41 41 36
17 13 10 15 14 12 11 12 12 19 22 23 29 33 38 43 42 37 38 33 31 30 24 21 17 16 16 16 17 18 17 17 22 24 25 30 30 35 38 36 29 28 28 38 38 39 42 41 39
18 14 15 14 18 17 14 14 15 14 16 19 23 28 30 35 42 33 34 32 33 31 26 21 20 16 9 11 12 14 15 15 18 22 24 24 28 27 37 31 30 26 25 33 38 38 41 40 42
16 19 16 13 12 16 19 14 12 16 15 16 22 23 27 29 37 34 30 31 33 34 33 25 23 23 22 16 15 18 18 18 20 23 24 24 24 25 25 28 28 25 23 28 36 36 42 39 39
18 17 18 15 16 12 15 16 14 14 13 15 18 22 24 28 34 40 33 35 39 36 35 34 34 34 31 31 29 23 21 20 20 23 26 26 28 27 27 28 28 29 25 27 34 37 36 40 41

GFSSGP_prec_cthk_036.txt.gz
RH
78 85 92 95 96 91 94 82 87 83 80 71 78 79 87 83 83 85 78 78 75 66 58 56 55 49 42 34 29 28 29 31 33 36 40 42 43 49 53 56 58 60 63 64 67 71 73 63 55
80 91 93 95 93 96 88 72 77 74 70 74 77 80 76 80 77 75 77 74 71 61 59 54 51 45 36 33 28 28 31 33 34 39 41 41 43 49 52 54 57 58 58 61 63 68 73 75 73
80 89 94 95 93 90 74 72 71 71 69 71 71 79 76 81 76 75 75 74 67 65 62 49 43 39 38 31 28 28 31 34 35 37 39 41 40 47 48 48 50 51 53 57 59 59 65 71 65
83 90 87 95 92 74 74 82 67 73 70 70 69 76 79 80 79 74 76 74 68 64 60 45 40 36 34 31 29 30 34 36 38 39 41 43 41 45 46 45 45 46 47 48 52 54 48 45 48
88 90 96 88 89 71 70 69 68 67 68 73 70 73 77 81 79 77 78 76 71 60 57 44 41 35 32 36 36 38 41 42 42 42 45 45 44 49 48 49 52 55 55 48 40 34 33 34 40
89 93 95 88 78 60 66 63 66 69 68 71 72 73 79 80 78 77 77 75 69 61 50 43 39 35 35 38 39 44 46 48 47 48 52 54 55 55 54 54 49 44 39 37 36 37 35 34 39
84 80 88 79 63 57 62 64 67 65 63 69 68 73 80 80 74 74 75 73 67 56 46 39 37 36 37 38 44 47 49 51 50 50 52 52 52 50 45 41 38 37 36 35 36 30 30 27 38
79 97 94 78 56 58 54 59 64 60 60 65 67 69 74 73 74 71 74 71 62 51 43 40 38 37 38 41 47 51 49 47 45 49 50 47 42 43 41 40 38 36 35 34 31 34 36 33 38
72 85 78 71 58 57 47 51 52 59 51 60 63 62 66 70 68 68 71 71 64 50 44 42 40 41 45 45 47 48 46 44 47 51 51 58 53 49 43 41 37 37 36 37 42 42 40 42 41
69 86 75 64 71 62 57 50 41 48 51 56 55 61 62 67 67 62 64 61 57 51 42 43 45 46 47 47 43 42 41 41 51 62 52 64 54 54 49 38 37 36 39 44 57 44 59 43 51
64 66 57 52 60 57 57 46 50 47 49 51 50 55 58 64 63 63 63 60 57 50 44 45 46 48 47 48 38 40 44 48 62 71 66 85 73 74 52 45 51 49 57 62 55 55 41 46 47
60 67 58 50 46 47 66 57 47 51 58 45 45 49 51 57 57 57 58 58 55 47 47 45 44 46 49 48 41 45 50 57 57 53 70 80 81 69 61 53 58 70 67 73 57 49 47 48 48
57 63 63 61 49 46 53 60 61 53 55 42 41 44 47 52 53 56 58 56 51 49 53 48 44 40 48 53 45 53 61 56 61 51 40 77 49 58 78 62 64 53 62 83 56 49 57 35 38
56 59 63 59 53 44 38 56 50 54 37 34 33 38 43 49 52 52 53 52 54 52 48 47 44 39 42 48 51 63 55 58 62 56 42 44 59 70 57 57 53 50 61 60 52 50 53 46 33
53 55 53 55 49 46 37 46 52 66 55 41 36 34 37 44 50 49 48 49 45 46 45 45 41 39 37 43 47 52 51 54 48 55 48 44 50 50 72 57 49 62 42 45 43 60 57 50 39
44 50 49 49 51 43 34 36 48 49 52 45 48 44 36 39 42 47 51 51 46 46 45 42 41 37 36 38 43 43 46 49 50 48 44 42 42 44 52 60 59 51 50 39 54 40 54 51 47
40 41 42 49 45 38 33 37 45 56 65 50 48 49 47 39 39 43 46 49 48 47 43 39 39 38 34 36 39 39 42 45 46 47 45 42 39 39 44 70 66 51 41 44 50 52 60 53 52
36 31 38 45 39 37 36 34 41 44 53 59 50 50 49 47 40 40 41 44 45 45 41 38 38 40 36 34 37 39 39 41 42 43 44 38 38 36 41 52 51 46 39 49 51 51 49 57 54
33 27 27 38 36 37 33 35 44 45 60 64 55 47 50 50 48 43 40 41 43 41 39 37 35 37 36 35 34 37 36 41 40 39 40 34 33 34 36 60 64 45 45 50 46 47 59 54 40
32 29 30 28 34 37 38 32 37 38 39 58 65 52 51 53 47 45 41 38 37 37 37 35 34 35 35 33 33 33 37 36 37 35 36 33 31 34 42 51 50 50 52 51 44 44 52 45 47
32 31 28 28 29 37 40 38 36 39 43 45 51 61 51 54 48 47 39 34 34 36 33 33 32 32 32 32 34 35 36 34 35 33 31 32 31 32 44 50 49 50 46 62 49 35 48 49 46
21 22 25 31 27 30 38 36 37 37 36 43 46 57 52 51 53 47 46 39 31 32 32 29 31 30 30 30 32 33 31 29 29 29 30 31 29 28 35 36 37 40 40 49 48 37 45 45 37
14 17 21 26 28 27 27 31 30 34 34 39 49 49 51 52 52 46 47 42 33 31 31 28 28 28 28 28 30 30 30 27 27 30 30 31 29 31 29 31 31 36 34 52 48 42 39 40 45
13 14 15 14 25 27 27 29 30 30 33 33 36 45 51 56 51 51 48 47 35 33 32 32 29 27 27 27 27 30 28 26 27 28 31 30 31 35 36 31 32 35 35 42 45 42 38 38 43
15 14 17 18 16 18 22 27 24 27 31 33 34 39 51 51 51 50 46 42 36 33 29 31 27 24 23 23 23 23 24 24 25 25 28 32 33 31 27 29 34 33 33 34 39 38 37 33 37
15 14 14 18 16 15 14 17 15 21 25 28 31 37 43 47 51 48 46 40 36 33 31 23 23 21 20 21 22 20 21 22 21 23 25 27 31 32 29 30 31 28 28 31 40 34 40 37 33
18 14 12 13 16 15 14 14 13 17 21 26 26 29 36 40 48 49 48 38 33 31 27 23 21 19 18 17 19 18 18 18 16 19 21 24 26 31 34 32 33 29 28 25 36 36 35 39 36
17 17 16 15 20 20 16 15 15 14 16 20 26 27 32 36 41 45 47 39 33 27 25 23 21 15 14 15 14 13 12 12 13 15 17 21 23 23 33 30 30 28 26 25 29 36 34 40 38
18 22 20 15 13 18 20 14 14 15 15 18 22 23 30 34 38 43 48 41 30 28 30 25 22 20 15 12 10 10 11 12 15 16 18 20 24 26 25 33 26 27 28 25 24 32 36 35 38
20 19 20 18 18 16 18 17 15 15 15 17 16 20 30 35 41 42 45 41 31 29 29 26 22 22 18 17 16 15 16 17 17 17 18 21 24 27 27 30 32 27 26 24 23 23 31 36 35

GFSSGP_prec_cthk_039.txt.gz
RH
83 87 93 97 98 95 91 90 85 90 90 80 81 75 79 76 79 78 77 76 65 56 54 51 44 40 36 28 28 32 29 32 35 38 37 41 47 52 54 55 56 58 58 61 65 69 66 60 47
83 90 94 94 96 98 87 86 89 83 76 78 81 77 74 77 78 75 76 72 60 55 51 45 43 40 30 26 30 29 31 33 38 39 37 41 49 50 52 54 54 54 57 60 63 66 71 68 69
80 92 94 98 94 90 93 74 78 79 75 74 75 76 74 77 75 74 73 64 55 53 50 44 41 36 29 26 28 31 33 33 35 36 37 42 47 48 49 49 50 51 53 52 53 56 55 54 59
82 93 89 95 95 88 82 77 70 72 76 73 74 76 76 72 73 70 69 60 54 51 48 43 35 33 28 26 28 31 34 36 36 38 38 40 44 45 45 45 44 45 46 45 40 33 34 38 42
86 92 96 88 89 87 70 71 69 70 70 72 69 76 75 75 71 68 65 61 53 51 43 39 34 32 30 29 29 34 37 40 40 42 42 44 47 48 49 51 52 44 38 34 32 29 33 39 47
88 92 91 96 84 89 78 73 69 70 69 72 71 72 75 72 69 66 64 58 54 48 41 37 34 32 34 35 37 39 41 40 43 45 46 49 54 55 54 46 39 37 33 32 28 26 33 44 56
81 89 95 93 89 73 75 74 72 73 65 70 68 72 72 68 66 64 61 56 50 42 38 35 31 35 37 39 43 44 46 43 48 52 51 51 48 45 41 39 36 33 30 28 28 27 33 43 53
77 80 84 88 85 82 57 69 72 73 64 66 67 70 69 68 68 61 61 53 48 41 38 34 32 36 38 43 45 46 45 45 47 45 43 40 39 37 39 36 36 33 30 34 35 31 31 49 55
81 93 92 87 75 71 65 57 58 64 55 62 63 64 66 64 62 62 61 53 48 41 38 34 33 37 40 45 45 43 42 44 45 45 45 42 41 41 39 37 36 38 42 52 43 53 39 39 49
85 90 78 79 72 69 70 62 55 49 52 59 58 63 63 61 62 61 59 56 46 39 35 33 34 38 41 42 43 42 42 47 47 51 70 46 41 38 39 38 40 48 52 58 48 55 53 49 55
72 76 64 72 69 70 65 67 58 49 49 44 48 53 59 60 61 59 54 53 41 37 34 35 35 39 39 40 39 38 42 55 77 62 51 49 53 41 43 51 55 62 74 68 57 52 46 39 33
66 67 67 58 60 68 63 70 64 49 50 40 41 46 51 55 55 59 59 56 40 40 35 35 37 39 39 38 34 40 44 49 65 56 65 60 54 52 56 58 70 66 65 60 48 48 39 41 41
58 65 65 59 58 54 50 61 62 62 58 48 39 44 47 52 54 54 53 52 46 40 35 36 37 39 41 41 38 42 47 50 53 54 68 60 55 63 59 64 53 50 77 66 51 47 43 36 38
53 58 67 65 58 59 49 50 60 59 51 35 33 37 42 47 49 52 50 49 46 39 39 38 38 38 41 46 46 48 48 57 51 51 46 58 59 67 56 54 48 57 50 46 48 62 46 35 34
53 59 64 63 58 59 59 48 56 59 61 48 35 36 39 40 44 44 46 48 45 41 41 40 40 39 40 48 48 51 51 57 55 52 46 48 51 58 71 57 57 56 41 40 40 45 47 38 38
51 53 59 54 59 52 57 52 53 53 52 55 47 41 36 37 39 41 40 42 45 44 40 41 40 39 39 43 47 49 47 51 49 44 48 48 42 50 68 71 65 45 41 45 48 59 53 52 51
46 49 47 50 52 50 47 41 51 61 60 70 59 49 46 35 37 40 38 38 39 42 39 39 38 36 36 38 40 43 44 46 47 49 47 44 39 41 52 59 62 49 40 51 57 57 57 57 57
43 43 43 44 48 46 45 35 52 65 56 56 75 63 51 48 35 33 36 39 40 41 39 37 36 34 33 34 35 37 39 38 42 47 43 40 39 38 46 60 55 51 47 53 55 55 59 58 48
38 42 39 36 44 49 37 34 52 59 64 62 68 70 59 54 53 40 34 36 39 40 40 38 34 32 31 32 31 32 31 35 39 41 39 36 34 38 43 52 62 48 53 51 48 48 50 43 43
31 36 37 30 38 44 39 37 39 53 52 51 51 70 72 59 55 44 41 41 37 36 35 37 34 31 29 28 30 29 30 34 34 37 35 33 33 36 41 47 53 49 56 51 42 47 45 45 47
25 30 32 30 33 37 40 38 39 49 51 59 59 58 67 61 55 46 39 36 38 34 34 33 32 30 27 26 29 30 32 34 35 34 31 30 31 35 40 41 47 46 49 53 45 39 44 40 45
25 24 27 29 36 36 37 47 41 45 48 54 57 52 54 64 55 51 37 39 34 32 33 32 32 31 27 26 27 27 25 27 26 29 28 28 29 32 30 31 39 40 45 46 45 33 42 39 42
25 21 24 28 38 36 38 39 38 36 46 48 52 53 51 59 53 48 40 37 34 32 30 29 29 30 28 26 25 25 26 26 27 28 27 26 27 27 25 27 33 37 36 42 46 38 41 38 37
27 28 27 27 35 37 33 38 39 35 33 39 43 43 50 49 49 45 40 41 37 31 30 29 29 28 27 26 25 24 24 24 26 27 26 26 26 30 33 31 33 34 35 35 43 40 37 35 37
25 23 23 22 30 28 28 31 29 33 33 31 33 42 47 47 44 44 44 42 37 34 27 27 27 27 26 25 23 21 22 24 24 24 25 28 28 29 30 32 32 31 31 31 36 37 36 33 37
19 15 19 23 20 21 21 20 21 26 30 33 33 37 42 46 45 42 44 42 36 34 30 23 25 25 24 22 21 22 24 23 23 21 22 25 29 29 29 28 31 30 30 28 32 34 34 33 32
20 17 15 17 17 19 16 14 16 19 24 26 29 37 40 45 43 39 41 41 37 33 28 25 20 22 22 21 20 23 21 19 17 18 20 20 23 27 28 29 30 33 31 28 26 32 31 32 32
20 21 19 17 22 23 16 15 11 11 11 22 25 30 34 37 40 37 40 41 39 32 30 25 19 20 20 21 20 17 14 14 14 15 16 17 18 22 27 27 30 31 30 29 26 27 32 32 33
21 24 20 18 19 24 25 20 16 15 14 14 21 27 34 37 38 35 39 43 46 32 27 22 21 19 20 19 17 15 13 13 13 14 15 17 18 19 22 25 26 26 28 29 27 23 29 34 36
26 20 21 20 19 16 18 20 19 18 15 14 17 21 27 34 38 34 38 43 47 34 25 21 21 17 14 15 15 15 14 14 18 18 17 17 18 20 22 23 25 26 27 31 32 24 21 29 34

GFSSGP_prec_cthk_042.txt.gz
RH
82 85 92 92 96 94 92 91 87 90 88 79 76 78 79 80 77 74 74 71 62 57 55 50 42 36 32 31 28 29 31 35 35 37 44 50 55 59 61 64 61 62 64 68 69 65 66 62 55
83 90 95 96 95 96 88 86 89 80 81 81 82 79 80 81 79 76 74 67 56 54 51 44 40 33 29 27 27 28 32 38 36 38 44 49 53 56 56 56 56 60 63 64 66 66 63 60 70
80 92 97 96 94 91 92 84 88 78 79 80 80 77 75 80 78 75 73 60 52 51 44 40 38 29 26 25 27 28 31 34 34 36 42 47 49 51 52 53 53 51 50 50 48 46 46 49 60
79 94 93 97 94 86 82 82 79 77 80 76 75 76 73 77 74 73 67 55 49 46 40 40 35 27 26 26 28 30 32 33 34 36 45 43 45 44 44 44 44 44 42 36 31 34 39 44 51
80 86 94 92 92 85 91 90 83 78 76 73 71 74 74 77 73 70 62 51 47 44 41 38 31 27 25 26 30 33 34 36 37 37 42 44 45 45 46 44 43 36 34 33 31 36 44 51 49
81 81 88 90 88 82 82 82 90 76 72 71 70 69 73 73 71 65 59 48 47 43 41 34 32 27 25 27 32 36 37 40 40 40 43 47 49 48 41 38 33 31 28 25 27 38 50 58 50
80 84 85 88 94 92 74 82 82 75 68 69 68 68 72 70 68 63 57 49 48 43 37 32 30 29 29 34 35 36 38 42 43 47 46 46 44 36 34 32 31 29 30 26 26 41 51 60 64
74 79 81 80 84 86 76 85 83 75 66 66 66 65 66 64 62 62 57 52 48 41 35 30 31 33 36 38 39 40 43 47 46 43 40 37 33 33 31 32 32 35 40 36 34 38 52 55 65
74 77 82 78 81 80 75 78 77 69 62 66 66 62 63 59 60 61 56 54 45 40 34 31 34 36 40 41 41 42 42 42 39 35 34 33 32 30 29 30 37 51 48 49 62 41 48 55 64
75 82 79 70 75 79 81 73 58 59 59 65 62 56 61 59 57 60 55 48 43 38 34 32 35 38 41 41 39 38 40 44 47 54 42 35 33 30 29 34 46 55 55 50 46 46 46 56 49
76 75 69 68 71 68 69 74 61 52 52 50 49 55 57 58 57 60 53 44 38 36 34 33 35 37 39 40 37 40 45 52 55 52 46 45 39 34 41 46 62 68 69 52 48 43 41 41 45
69 67 68 65 66 68 65 64 72 54 52 39 42 47 53 55 55 55 51 42 38 36 33 33 35 36 37 37 34 40 58 66 61 61 60 54 54 52 52 54 61 71 65 52 48 44 36 39 39
60 61 63 65 61 59 62 57 59 62 58 45 45 46 51 51 52 55 54 44 38 36 32 32 33 33 35 34 33 39 50 57 59 65 57 52 50 50 51 50 51 61 65 54 52 53 41 39 39
56 62 65 66 61 54 53 56 54 63 59 39 37 40 46 48 48 52 53 47 37 37 33 31 32 32 33 36 38 42 45 46 52 58 54 53 54 53 46 49 51 46 46 42 53 48 43 40 39
54 62 61 61 59 62 58 57 63 58 62 52 50 40 43 45 45 47 50 48 39 39 33 30 31 34 34 39 42 44 45 45 42 46 45 51 60 64 57 54 51 42 43 47 49 49 44 40 37
50 55 58 53 63 62 64 58 61 61 59 57 56 44 40 39 41 44 47 49 46 40 36 36 34 35 38 42 44 42 46 48 42 40 40 41 52 53 57 58 55 43 48 52 54 57 50 48 44
48 47 50 58 61 63 68 66 63 64 59 61 56 45 40 38 38 39 42 46 48 42 37 38 36 35 40 41 42 43 46 44 38 38 41 41 41 43 53 57 57 44 49 55 57 63 56 49 53
41 46 45 50 52 54 66 67 62 57 55 58 59 53 48 47 39 36 38 43 47 46 40 38 38 37 38 41 39 42 43 42 41 40 42 41 40 41 52 56 53 48 51 53 53 57 53 53 48
34 43 45 43 44 56 52 61 65 56 53 57 59 57 53 45 45 39 38 40 42 43 41 38 37 37 37 38 38 38 39 37 37 38 38 39 40 44 46 48 52 51 53 51 50 53 53 44 43
31 36 41 43 43 44 50 63 64 55 45 48 52 59 55 47 45 47 43 39 39 40 41 38 36 35 35 35 32 31 34 33 35 35 36 35 38 41 43 45 54 54 53 48 43 46 47 48 44
25 32 35 38 39 40 47 56 65 57 56 56 53 54 51 51 50 45 48 39 40 37 37 37 36 34 33 32 31 29 29 32 33 32 32 32 35 42 38 41 48 51 52 49 45 42 42 40 45
20 21 31 32 43 45 43 47 64 61 59 57 54 52 49 51 52 48 43 44 37 36 36 35 37 36 33 32 30 28 24 25 25 27 28 30 33 37 33 34 39 44 48 49 46 38 42 38 41
14 19 30 27 41 47 44 47 52 58 62 52 52 51 52 52 51 49 37 38 34 39 37 34 35 35 34 31 30 26 24 23 24 27 28 29 30 31 29 30 33 37 41 44 44 38 39 37 40
20 19 28 29 40 49 42 44 40 60 53 50 51 49 47 47 49 50 44 40 40 35 35 36 34 34 34 31 29 26 23 23 22 24 25 28 29 29 29 30 32 32 35 38 41 40 35 39 37
31 31 36 39 43 42 33 42 31 41 46 44 44 46 43 41 46 51 54 45 41 41 31 31 30 30 31 29 27 25 23 23 20 22 22 24 27 29 30 33 35 30 31 33 38 40 37 35 37
34 34 39 42 35 31 25 32 28 30 36 39 43 39 40 42 43 45 52 53 43 39 33 29 27 26 26 26 25 23 21 22 22 22 23 24 25 28 30 30 30 31 31 30 35 38 39 36 34
34 33 28 29 22 23 23 22 24 24 27 28 33 48 44 43 44 44 51 49 41 38 31 29 28 24 24 23 24 22 21 22 21 19 21 22 25 28 30 30 29 33 30 30 31 36 37 37 33
29 29 30 29 26 23 19 19 21 21 21 22 27 32 32 41 46 44 46 50 46 40 29 28 31 24 21 22 22 24 23 20 19 18 19 19 19 22 26 28 28 34 35 31 30 32 36 38 36
36 30 27 24 24 24 21 15 12 16 19 21 24 29 29 34 43 41 43 46 47 41 31 31 28 27 21 19 20 22 23 20 19 18 16 16 17 17 19 23 25 30 33 36 32 28 32 35 35
41 34 30 26 22 21 19 15 16 16 15 15 16 26 29 26 34 35 43 43 45 42 38 28 24 24 21 17 17 18 20 19 18 16 16 17 18 18 19 20 24 28 30 30 30 29 25 27 33

GFSSGP_prec_cthk_045.txt.gz
RH
84 87 90 94 98 95 94 89 89 88 84 80 77 82 84 88 82 81 77 73 65 56 53 50 43 36 37 35 35 34 37 38 41 47 53 66 64 61 64 60 62 64 67 64 63 63 66 65 56
86 89 96 99 98 97 90 87 86 86 83 81 82 84 86 88 84 81 75 68 60 52 52 44 38 36 33 31 33 35 35 38 42 48 52 56 59 59 61 57 60 63 64 70 65 61 60 67 75
85 91 96 97 95 94 92 91 84 84 85 80 81 83 85 89 83 79 71 64 56 51 49 40 36 34 29 28 31 36 35 37 42 48 52 56 55 55 55 55 54 53 51 51 46 49 47 56 71
81 89 95 96 95 88 90 86 82 81 83 80 80 80 80 85 82 76 68 58 52 49 44 38 34 30 27 27 30 34 33 35 41 44 48 49 49 48 45 44 44 42 36 33 38 47 53 60 69
82 87 89 93 92 84 86 89 87 82 76 77 78 80 82 85 79 74 65 54 49 43 39 35 31 28 26 28 31 32 34 34 41 45 45 44 44 42 42 42 35 33 30 34 43 53 57 54 69
82 83 89 90 84 79 82 87 90 85 82 79 77 77 81 80 77 68 59 51 47 40 37 33 29 27 28 32 34 34 37 37 42 43 46 47 47 44 38 31 28 25 23 34 49 62 59 57 68
82 83 85 82 82 79 85 90 87 85 79 79 76 75 78 77 73 63 53 49 43 40 37 30 28 26 30 34 35 37 41 41 43 47 50 49 38 35 33 27 28 25 24 33 50 60 58 60 61
81 82 84 83 89 80 81 80 85 79 77 76 73 71 72 72 67 60 51 49 41 40 34 31 28 27 32 35 35 40 43 46 47 46 44 38 33 32 35 29 37 35 35 34 42 60 67 64 53
78 80 80 80 83 82 80 81 77 77 72 74 70 66 65 65 62 55 50 46 42 40 33 29 28 34 37 37 38 43 47 45 42 38 35 34 31 30 30 37 48 43 51 55 48 54 61 64 63
77 82 76 76 80 76 78 70 72 67 68 69 63 59 63 63 60 55 48 44 42 37 34 31 34 39 40 41 42 43 41 39 37 36 36 35 34 33 38 44 55 54 47 46 44 45 51 50 58
74 76 73 74 76 74 70 62 58 57 58 59 54 57 58 63 60 55 45 41 37 34 33 34 37 40 40 40 38 41 45 50 51 44 39 36 35 40 48 63 61 63 50 47 47 42 40 42 43
75 72 73 73 72 69 69 64 64 60 52 49 49 45 51 58 56 51 45 39 36 33 32 34 37 38 40 39 41 49 53 56 53 49 51 50 46 52 53 60 66 64 51 47 46 39 43 40 44
69 70 70 70 73 70 65 63 66 58 48 45 44 45 48 54 53 51 44 42 36 33 32 33 34 35 37 36 43 58 64 62 62 59 52 49 50 55 54 55 56 58 52 56 55 51 41 39 38
64 67 64 61 63 62 62 57 58 65 56 55 41 39 44 46 47 51 45 39 34 33 32 33 32 34 35 34 39 52 59 64 63 56 52 51 58 54 52 51 49 42 43 49 49 49 43 40 38
57 60 60 57 61 58 59 57 56 61 65 57 51 39 42 45 46 48 44 38 33 32 30 31 30 32 34 36 40 45 49 53 58 55 52 59 65 57 57 52 43 41 44 44 49 46 43 40 36
47 56 58 54 55 54 53 58 64 63 65 58 53 43 37 40 44 46 49 44 35 31 30 30 30 31 35 39 42 44 45 47 46 47 48 58 58 56 58 57 48 43 51 53 55 51 50 47 38
41 49 51 54 52 62 56 62 64 61 63 60 56 49 41 37 38 42 47 47 38 31 31 31 28 31 36 40 43 43 47 49 43 40 42 45 49 52 58 55 55 47 53 54 65 54 47 52 43
36 44 43 46 51 61 61 59 63 61 62 62 58 57 52 46 36 36 40 45 43 37 33 29 29 34 38 40 40 42 43 45 40 39 41 42 44 50 48 50 52 47 52 53 55 54 46 47 46
33 40 43 39 56 64 61 60 64 56 63 63 59 60 58 51 45 35 36 40 43 44 35 34 35 35 40 43 41 42 43 43 42 38 38 39 44 45 41 48 52 51 52 51 55 52 45 45 46
29 33 39 37 50 52 54 46 61 59 53 52 52 55 58 56 52 47 33 35 37 41 41 36 35 36 38 41 39 38 40 39 39 38 37 37 41 42 43 47 58 53 49 45 47 49 46 43 43
24 30 35 35 51 49 55 54 55 58 62 63 57 62 63 56 56 54 41 29 32 34 38 37 35 34 36 38 39 40 39 38 37 35 34 33 40 39 38 41 49 54 48 43 41 42 43 45 44
21 21 30 38 53 51 50 59 62 69 55 60 59 60 61 62 58 57 51 32 26 28 34 36 34 35 35 36 38 38 33 30 32 32 31 32 36 34 34 38 41 50 53 42 44 39 40 41 41
17 17 27 35 42 53 48 52 64 58 57 59 54 55 58 59 59 61 52 37 25 27 29 34 36 36 36 34 36 36 32 28 29 30 29 30 32 32 29 33 36 40 44 46 44 38 41 40 43
19 19 23 38 45 49 43 49 47 53 42 54 52 51 53 54 57 63 56 48 35 28 30 31 35 36 36 36 36 35 32 27 25 25 25 27 28 27 25 28 31 35 40 42 41 41 39 42 42
23 24 30 42 54 42 33 45 36 37 35 41 47 44 42 50 55 59 59 56 39 34 27 29 31 33 35 35 35 35 31 29 25 22 23 24 26 27 26 27 31 30 35 40 40 41 38 42 44
37 30 37 41 51 43 30 38 32 29 32 36 41 43 44 45 51 53 55 56 47 37 32 27 28 30 32 32 33 33 32 30 26 23 22 23 24 26 26 28 31 35 33 36 39 41 42 39 41
42 36 31 30 29 37 27 30 25 27 31 38 38 41 46 50 52 51 55 54 47 39 34 27 26 27 28 28 29 31 31 29 26 22 23 22 24 26 28 30 29 32 35 33 36 38 40 40 39
45 43 40 36 37 31 25 26 25 26 26 30 35 32 35 42 50 51 52 55 53 40 32 30 30 27 24 26 27 27 27 26 24 24 23 22 23 26 28 30 29 31 33 32 31 35 36 37 36
44 46 43 39 35 33 25 19 17 18 24 28 31 27 28 35 42 48 48 50 53 46 33 28 30 32 31 28 25 25 25 25 26 24 22 20 21 23 24 26 29 29 33 33 29 29 35 36 36
53 46 46 43 38 33 29 20 12 14 18 27 27 27 24 29 31 39 42 47 53 46 38 32 29 30 34 28 24 23 26 25 25 22 19 19 18 20 21 22 26 27 29 31 31 29 29 35 37

GFSSGP_prec_cthk_048.txt.gz
RH
83 84 84 91 95 92 92 88 87 90 85 81 78 79 81 83 79 81 78 76 69 60 53 51 42 36 33 31 31 32 35 40 48 58 64 62 66 66 58 63 60 65 62 58 60 65 64 60 53
84 87 95 97 97 94 90 90 95 87 83 80 80 85 84 86 82 81 77 72 63 53 50 44 40 34 31 32 35 35 37 42 45 59 66 67 66 61 56 57 59 74 79 66 58 55 58 68 62
82 91 97 97 95 94 92 89 90 88 84 82 83 87 88 87 82 79 74 65 54 49 47 39 40 32 31 35 38 34 40 43 50 55 59 58 59 58 53 51 53 59 49 44 42 48 56 67 63
83 91 95 96 94 93 92 89 92 88 87 82 81 85 87 89 83 77 70 59 49 49 43 38 39 31 30 36 38 34 40 45 50 57 55 57 52 48 47 47 45 37 32 36 44 49 58 64 69
82 87 91 95 94 90 86 87 87 85 84 85 82 83 84 87 82 76 66 55 49 46 40 38 35 28 29 35 34 34 39 47 47 51 47 46 46 44 43 37 30 30 37 46 56 60 58 68 65
81 83 89 92 91 87 84 85 88 83 86 85 84 83 83 82 79 73 61 53 48 42 38 37 30 28 29 33 33 34 38 49 49 48 45 46 48 42 32 28 26 26 38 51 57 58 58 70 65
81 83 88 88 88 85 83 83 83 84 86 81 80 82 82 80 76 69 57 51 45 40 36 33 29 30 32 34 34 37 39 44 46 50 49 43 35 30 28 28 24 32 41 54 57 54 61 65 69
84 84 84 85 88 87 84 77 82 81 80 78 75 75 78 75 74 65 54 49 40 38 34 31 27 31 33 34 38 42 41 42 48 49 43 33 35 31 39 47 38 39 47 53 62 63 57 54 65
82 83 81 84 85 88 80 81 79 79 77 73 72 71 70 73 68 62 52 46 39 39 32 30 27 32 33 36 40 42 45 47 45 43 37 32 31 29 46 51 44 55 56 47 54 62 59 52 55
81 83 77 76 80 86 80 78 79 77 73 71 67 67 67 67 65 59 48 43 38 37 32 29 30 35 35 37 40 46 46 43 38 36 35 33 31 37 45 59 58 50 47 41 42 49 55 63 65
77 83 78 75 76 73 70 74 66 62 68 61 59 63 63 63 63 57 46 39 36 34 31 29 36 38 40 42 43 43 41 38 37 35 35 35 39 49 65 65 64 55 47 45 39 35 35 49 59
74 78 79 79 72 70 62 58 64 56 51 51 52 53 56 59 57 53 42 36 36 32 30 33 38 39 40 41 42 47 46 53 45 41 38 41 51 51 62 64 71 59 50 48 41 36 36 42 43
67 76 77 76 75 70 66 61 57 54 52 50 46 52 56 56 56 52 41 36 35 31 29 34 36 38 39 42 47 53 55 56 47 51 50 49 51 53 58 59 62 60 54 58 53 38 38 37 41
55 67 73 72 72 68 67 57 52 57 58 55 43 47 52 53 56 51 41 36 34 31 29 31 33 36 38 45 51 65 62 60 56 52 49 53 53 60 56 59 54 50 49 49 51 43 38 37 40
57 64 64 64 64 63 60 58 55 54 58 52 41 44 48 49 51 50 42 35 34 30 30 30 31 32 36 40 51 63 66 63 59 57 55 64 59 57 56 54 47 51 49 50 50 47 40 37 38
44 58 64 60 59 59 58 55 56 56 56 53 45 37 43 45 47 48 44 39 33 31 30 29 29 30 33 37 42 49 56 59 56 54 58 64 61 60 59 57 48 52 56 59 54 49 49 40 41
42 56 59 62 60 57 57 59 57 63 61 59 51 42 38 41 43 45 45 41 33 30 30 29 29 29 32 36 39 44 48 47 48 49 52 55 55 58 60 62 57 51 56 60 60 51 49 46 40
42 41 50 58 58 59 55 55 60 62 63 64 57 53 48 43 39 41 42 43 39 32 30 28 28 30 33 36 40 42 45 47 46 43 45 47 54 56 52 55 55 49 52 55 52 48 49 49 43
34 41 45 54 54 57 58 62 61 60 64 62 62 55 54 49 46 41 40 41 41 36 30 28 28 30 33 36 37 41 41 44 44 42 42 46 48 45 47 50 55 53 52 52 51 49 47 48 42
29 33 39 47 54 53 53 58 60 58 56 57 59 61 55 58 57 46 37 40 40 38 31 29 29 30 34 34 35 39 41 42 41 42 40 45 45 46 47 53 51 54 49 56 51 48 45 46 43
20 30 32 39 50 52 52 58 63 61 59 61 61 64 58 59 60 54 41 35 39 39 34 31 27 28 35 37 38 39 41 41 41 39 39 42 42 40 43 50 52 52 55 50 47 45 47 47 47
19 18 30 35 47 53 52 55 61 58 57 55 59 59 61 56 62 58 49 35 32 35 39 35 31 29 35 39 40 40 39 37 34 36 35 38 40 37 39 41 50 51 53 45 45 40 42 44 42
16 13 21 36 42 47 49 50 44 52 61 54 52 54 59 58 59 60 50 41 31 32 36 39 35 32 32 35 38 40 39 37 34 35 34 35 37 34 36 38 42 47 46 52 44 42 39 42 41
22 21 17 31 42 49 40 48 45 48 41 47 47 55 58 58 59 61 56 49 39 29 31 36 36 34 32 34 36 36 36 34 34 32 31 30 32 31 30 34 36 39 41 44 45 42 38 41 40
32 26 34 34 47 41 36 49 43 28 36 39 41 47 52 54 59 61 60 52 44 33 26 30 31 31 30 30 34 34 32 32 32 30 26 26 26 25 26 29 32 34 38 40 40 39 41 39 40
38 31 35 42 40 36 37 47 44 29 33 37 39 42 49 55 56 61 64 62 47 40 32 28 28 30 30 28 29 32 32 31 31 31 27 23 23 24 26 27 30 31 36 37 39 39 41 39 38
45 42 28 32 28 30 30 33 32 31 34 37 40 42 45 49 53 56 61 62 58 44 37 31 27 28 29 28 28 29 31 30 29 28 28 25 22 23 26 28 29 31 34 37 36 38 39 42 42
46 42 42 38 40 35 29 24 31 27 29 31 38 40 39 43 46 51 57 62 59 45 40 37 32 28 26 27 27 28 29 29 29 30 30 27 24 23 25 28 30 28 31 33 37 36 37 38 41
48 53 49 39 35 37 34 26 20 23 23 24 31 36 34 36 40 45 49 54 60 56 46 38 33 29 29 27 27 28 28 28 29 28 29 29 27 25 25 29 30 28 28 29 32 35 35 37 35
59 58 54 53 47 36 37 29 16 19 20 22 29 35 32 31 34 39 44 47 55 55 47 36 33 30 27 27 27 26 27 27 28 27 28 29 26 24 24 25 27 27 25 30 30 29 34 36 36

GFSSGP_prec_cthk_051.txt.gz
RH
77 82 80 87 91 88 87 89 89 86 83 80 79 77 75 77 77 78 80 78 73 66 55 51 40 35 36 33 33 37 42 49 57 62 62 65 59 58 60 59 65 63 58 58 63 62 59 54 59
81 86 91 94 93 88 88 85 90 84 83 79 81 79 80 78 78 78 77 72 63 55 53 46 37 35 32 32 34 37 42 50 61 65 64 68 59 56 58 69 73 74 67 57 54 56 61 60 63
79 88 98 98 93 86 89 87 95 86 81 80 84 84 83 83 79 77 74 67 56 51 49 42 37 31 34 34 33 36 43 46 58 62 61 63 58 49 57 61 56 50 45 42 47 54 63 66 66
80 90 95 93 93 87 92 90 89 88 83 79 82 85 86 86 81 74 69 60 51 48 45 40 34 30 34 33 34 37 42 51 57 58 59 54 51 51 52 48 42 40 44 49 54 55 65 71 55
79 84 86 89 91 88 88 89 90 89 84 81 80 84 88 87 80 72 66 58 49 49 43 39 30 32 40 35 34 38 44 51 55 53 48 47 46 45 37 33 34 40 48 57 57 60 71 66 44
77 79 81 88 90 84 82 85 92 85 88 83 81 82 86 85 78 72 62 53 49 44 42 37 29 31 41 33 34 41 46 52 52 50 46 46 43 31 28 28 31 47 55 58 56 62 67 63 56
75 78 83 84 86 84 82 86 88 86 86 83 80 81 83 81 77 67 58 52 50 42 43 35 32 30 35 34 35 42 48 51 52 50 48 35 29 30 32 33 40 53 60 56 60 63 66 62 52
81 82 82 82 84 82 82 83 83 83 83 80 79 77 80 78 74 65 55 50 48 42 41 31 35 31 34 36 38 41 44 46 49 45 35 32 31 45 44 51 57 53 59 63 58 56 63 65 57
81 82 79 80 81 81 79 80 81 81 79 74 73 71 71 71 70 65 54 49 45 42 40 32 33 31 35 38 41 40 42 47 45 38 34 33 30 52 51 53 56 50 49 62 60 49 46 58 57
81 80 75 78 79 79 79 80 80 80 75 73 71 68 70 67 68 63 51 46 42 40 38 30 31 31 35 38 40 42 47 44 41 33 30 29 34 47 58 60 49 47 42 46 52 59 60 56 57
74 76 76 79 79 76 77 75 75 76 70 66 63 65 66 64 65 60 48 45 41 39 35 28 30 33 35 37 42 44 42 38 36 34 33 35 47 60 62 61 54 46 43 39 39 41 50 61 65
70 76 80 79 76 70 73 72 69 66 60 54 57 60 61 63 61 54 44 42 40 39 31 30 34 36 38 40 42 40 39 38 37 35 37 45 51 56 58 64 61 49 48 45 36 36 42 42 53
64 77 81 78 75 69 64 61 60 58 55 52 51 57 59 63 60 52 45 42 40 37 30 33 36 38 40 41 41 43 47 45 39 40 42 48 47 55 60 60 57 58 57 54 41 37 35 36 41
57 75 76 77 74 74 68 58 50 52 53 55 50 53 56 56 57 52 42 39 39 33 29 34 36 37 40 42 47 51 52 47 50 49 49 48 56 53 58 53 51 51 50 51 48 42 37 38 36
53 64 70 70 71 72 67 55 49 52 51 50 48 51 53 53 54 53 43 38 36 30 28 33 35 37 42 44 56 56 53 51 52 52 57 55 54 55 54 51 51 51 52 55 52 46 40 39 37
40 46 62 66 69 69 64 56 51 50 49 48 47 48 48 48 53 54 46 39 37 32 27 31 33 35 41 46 56 60 61 59 57 58 59 60 56 57 58 55 50 54 56 53 49 49 42 39 41
38 37 55 64 63 63 62 58 54 52 52 50 43 42 47 45 50 53 48 41 37 31 27 28 30 33 36 43 50 56 58 54 55 58 56 55 59 58 62 66 53 55 56 58 52 49 48 40 36
34 35 51 61 57 58 60 58 58 55 56 57 50 39 41 43 42 49 48 45 39 33 29 26 28 30 33 38 40 48 49 47 47 49 49 54 55 55 56 60 53 52 55 55 47 45 49 42 39
32 37 46 59 57 60 58 58 59 58 58 59 58 49 45 40 42 47 47 46 44 36 31 28 27 28 30 34 34 39 41 43 43 41 45 47 47 47 51 54 57 53 55 55 50 47 46 45 43
21 33 41 54 56 57 60 56 57 58 58 60 61 59 47 48 47 41 43 44 44 38 33 30 27 29 31 31 35 39 38 40 46 44 44 46 46 47 48 51 54 64 55 50 50 49 46 43 43
13 23 36 48 53 52 55 57 61 57 59 60 61 64 61 50 49 46 38 40 43 42 35 31 28 28 31 32 33 37 38 39 42 39 42 43 45 46 50 54 53 58 56 49 46 45 43 42 42
16 12 26 42 49 53 53 51 51 56 55 56 59 58 61 61 54 49 42 34 36 41 38 33 30 31 31 32 31 33 36 36 35 38 42 43 42 42 45 50 52 53 49 48 46 44 43 42 42
19 16 11 30 46 50 47 51 42 54 58 52 51 53 58 62 61 55 45 37 33 39 40 37 32 32 34 32 32 33 36 35 34 35 38 42 38 40 40 44 48 48 48 51 44 44 40 42 42
27 24 18 14 30 49 40 45 36 48 55 50 49 51 57 59 63 58 51 44 36 34 39 40 34 32 30 32 33 35 36 35 32 33 33 38 34 36 37 37 40 45 43 48 42 42 41 41 40
35 31 33 29 23 27 31 42 35 34 48 47 46 49 51 55 58 59 54 48 42 33 30 36 38 35 30 31 34 36 37 36 33 33 32 32 33 31 31 32 34 37 40 41 40 42 42 39 40
37 36 30 34 21 15 24 36 32 32 28 40 45 44 51 53 55 58 56 51 47 39 28 27 33 36 34 30 32 34 35 34 32 33 31 29 28 28 28 29 29 33 36 38 38 41 42 42 38
39 43 33 31 28 21 16 24 26 26 29 36 42 45 49 49 50 50 54 52 51 47 35 24 26 31 33 32 32 33 34 32 30 31 31 30 28 27 26 26 27 29 31 34 36 37 40 42 42
39 42 51 43 33 29 22 20 18 21 24 30 38 43 44 45 49 49 50 52 48 50 44 37 27 24 27 29 29 30 30 31 30 30 29 29 29 29 25 24 26 27 28 32 34 35 37 39 41
45 49 52 46 37 27 28 22 16 14 18 26 38 41 42 44 45 44 45 46 47 49 46 41 36 28 26 27 28 29 29 29 30 29 28 27 29 29 26 22 23 25 25 28 32 33 34 36 38
55 52 47 57 48 39 35 23 16 14 13 18 27 35 40 43 42 42 44 48 50 48 44 43 40 36 29 26 27 28 28 29 29 28 28 27 28 28 27 25 24 26 25 25 25 29 31 32 35

GFSSGP_prec_cthk_054.txt.gz
RH
72 77 80 81 86 77 77 82 85 84 78 76 75 74 76 76 77 86 81 83 81 69 57 42 37 36 38 35 38 42 47 58 62 63 61 58 60 61 61 64 65 61 60 65 64 58 60 61 53
78 83 85 91 90 83 80 80 83 80 78 77 77 77 76 79 79 80 80 79 73 62 56 40 39 37 35 36 39 45 54 61 63 67 69 58 57 59 66 75 68 73 60 58 62 62 63 58 62
80 85 89 87 87 80 85 82 85 81 77 78 82 79 79 80 81 79 77 74 66 60 56 38 34 33 33 36 42 45 53 65 66 67 66 58 49 64 59 55 54 49 47 46 54 60 69 76 61
80 86 96 88 86 80 84 85 87 79 79 80 81 82 85 85 81 79 74 67 61 58 53 37 31 40 36 35 40 47 49 59 60 60 57 53 49 52 50 48 44 44 48 54 55 62 72 56 46
77 83 83 82 85 87 85 88 88 83 77 78 80 83 89 88 83 78 70 64 60 56 49 37 31 37 33 36 39 44 53 58 53 51 49 52 49 40 35 36 46 47 55 55 58 73 61 42 42
77 73 74 79 85 82 86 88 87 85 82 79 80 82 88 88 83 78 70 60 58 55 49 35 33 40 34 35 41 45 51 51 48 51 49 44 36 31 31 37 49 54 57 54 64 69 56 50 47
71 72 73 77 83 80 79 83 85 83 86 82 80 79 85 84 81 74 67 57 56 53 49 37 35 42 33 34 43 45 51 49 51 51 42 30 30 34 36 45 55 55 53 55 63 65 57 50 45
80 73 75 75 81 80 81 81 83 86 81 81 79 79 82 81 77 70 63 56 55 52 48 40 38 45 39 36 45 47 49 49 51 40 30 34 44 44 55 52 52 59 58 57 59 64 51 49 48
78 72 72 75 80 80 80 81 82 83 81 79 77 75 74 76 72 68 59 54 53 51 46 45 41 41 44 44 41 45 45 48 43 37 34 44 60 56 58 49 47 56 57 51 49 57 60 58 55
77 78 72 72 75 80 79 80 82 81 78 76 75 73 73 73 70 64 54 53 50 49 44 43 41 43 45 46 41 45 50 49 46 39 33 46 60 65 60 50 44 42 50 54 57 50 56 63 63
70 73 73 76 77 79 81 81 81 78 76 72 71 69 72 69 67 60 53 53 49 46 42 42 39 43 46 49 47 51 53 47 40 36 38 49 63 65 69 56 49 44 42 49 50 55 67 66 69
64 70 77 78 76 76 75 75 73 76 75 65 66 65 66 67 65 57 50 50 47 42 39 37 38 43 46 48 54 54 48 43 42 40 41 51 62 63 69 66 53 50 52 39 46 50 48 60 63
61 72 77 80 73 72 73 71 71 70 64 56 59 61 63 66 62 54 50 49 47 39 37 37 36 42 46 52 55 50 47 45 43 43 47 53 60 64 64 57 62 58 57 45 42 42 44 44 54
52 64 76 78 73 65 62 62 62 64 55 53 55 59 61 63 61 53 48 46 46 39 37 39 39 43 46 50 50 51 54 49 48 49 49 51 57 56 58 58 54 55 55 51 46 42 38 41 47
43 59 67 70 71 65 65 56 50 52 51 51 53 56 60 60 60 53 46 43 42 39 37 40 41 44 47 47 52 55 56 51 58 55 50 51 53 50 50 55 60 54 54 51 46 42 37 42 44
31 47 65 66 69 69 69 62 50 50 50 49 51 55 57 58 59 53 44 43 42 38 35 39 43 44 46 52 60 55 55 57 61 59 59 55 56 57 66 55 58 57 57 57 54 51 47 44 43
25 32 47 60 65 68 68 64 58 50 48 47 46 51 54 56 57 54 44 41 42 39 33 37 40 46 44 53 59 60 59 62 63 60 63 58 57 73 71 63 60 55 61 60 58 54 48 43 42
22 29 33 47 62 65 65 63 58 49 47 45 43 45 48 51 52 53 47 42 40 39 33 35 38 42 45 51 52 59 56 56 61 60 64 55 58 71 63 67 62 58 60 56 56 50 48 47 44
19 28 34 51 63 63 64 63 60 53 48 45 40 37 44 46 49 51 47 42 40 41 35 31 35 39 40 44 49 53 52 50 52 52 52 48 49 62 59 63 63 57 56 56 48 48 48 47 39
16 27 36 45 59 61 61 61 61 56 52 52 52 44 37 43 45 46 47 45 40 40 36 30 32 34 33 40 42 47 48 48 49 47 46 46 45 43 50 65 64 62 58 56 53 47 51 47 41
13 15 30 42 50 55 59 61 60 60 59 56 53 53 52 43 43 41 42 43 42 40 36 32 30 31 29 36 38 40 42 44 45 51 45 44 45 45 48 56 61 60 60 56 50 49 43 48 43
17 10 16 36 44 50 53 59 54 56 59 59 58 54 53 54 47 42 38 40 41 41 41 33 32 28 28 29 35 37 39 40 43 48 47 42 41 45 47 50 56 53 57 54 51 48 48 44 48
22 16 13 18 39 49 50 54 57 52 56 57 57 55 53 55 53 44 37 35 39 43 42 37 34 29 30 29 31 35 38 40 40 45 47 41 38 39 44 43 48 55 58 50 52 52 40 41 49
27 25 17 13 19 40 42 47 42 54 54 52 54 55 53 54 55 54 45 38 36 41 43 42 36 29 29 30 28 31 35 38 39 37 43 40 39 38 36 40 42 48 51 48 52 52 41 41 40
28 30 28 22 16 14 26 41 39 46 50 47 49 52 52 56 58 59 53 42 35 33 37 42 38 32 29 30 29 27 30 33 36 35 34 40 37 38 38 33 33 37 38 41 47 48 45 38 38
29 31 29 28 18 12 10 23 31 38 37 46 51 54 55 56 58 59 55 52 41 37 32 35 36 34 30 28 32 30 28 35 37 35 36 37 38 35 37 32 31 30 35 36 37 46 44 43 37
37 35 27 31 26 22 14 11 16 30 31 38 45 51 54 52 54 56 54 54 52 42 35 27 29 32 30 28 30 29 29 32 36 35 33 34 34 34 32 30 29 30 31 33 37 40 42 44 39
38 35 40 39 37 29 25 19 15 24 25 29 44 47 48 51 53 53 54 54 53 52 46 38 28 26 30 32 29 28 28 31 33 34 32 32 32 30 30 25 26 27 30 29 30 39 39 41 42
28 38 49 42 36 31 30 24 18 19 18 22 31 42 43 47 48 49 52 51 52 52 54 46 35 28 26 30 32 31 29 30 31 31 29 29 31 30 28 25 22 24 28 28 28 32 38 39 41
38 47 39 51 46 35 36 30 28 22 17 19 23 30 40 42 45 48 50 54 56 52 51 48 42 36 28 25 26 28 29 29 32 28 27 27 28 29 28 25 23 20 25 27 24 27 32 34 37

GFSSGP_prec_cthk_060.txt.gz
RH
58 69 75 79 78 76 81 95 82 76 73 72 73 74 80 80 84 84 72 68 61 52 44 44 44 48 45 47 52 51 54 53 52 53 51 56 60 61 69 68 60 65 59 51 55 53 52 55 56
72 77 84 91 91 83 80 95 83 76 71 71 74 76 78 81 78 73 70 64 54 44 39 37 38 39 41 46 50 52 54 57 57 52 55 59 58 64 66 68 73 62 59 60 61 60 62 59 58
83 83 89 87 85 89 89 87 80 74 74 72 79 80 75 75 73 70 67 62 51 39 37 34 33 35 39 42 50 54 56 61 60 55 53 55 58 59 61 57 51 48 47 51 55 62 60 59 52
77 82 89 90 81 87 83 85 76 76 75 77 75 75 75 73 72 71 65 61 48 43 35 33 34 35 41 50 56 62 64 64 61 56 50 52 54 54 51 47 46 48 49 49 56 58 52 50 44
75 81 84 82 83 80 77 84 81 82 77 85 78 79 76 78 74 72 67 58 52 43 30 31 33 37 40 44 50 58 58 57 53 48 47 47 44 39 45 47 47 51 54 58 57 39 39 36 42
73 77 78 79 82 81 81 83 83 84 83 80 82 81 79 77 73 70 64 60 51 40 32 34 39 40 43 44 46 53 53 50 45 48 38 33 35 38 46 50 52 55 61 54 44 42 41 40 38
64 80 77 82 87 84 87 86 83 79 81 88 80 81 81 79 74 67 63 61 53 42 33 35 32 33 39 44 49 50 45 43 43 33 30 34 33 49 51 49 52 56 63 54 46 42 39 40 42
72 84 76 79 89 84 83 87 86 83 81 79 82 79 79 76 73 66 62 58 51 42 36 38 37 37 40 42 46 46 43 43 32 29 36 49 45 54 54 48 51 57 58 46 43 40 37 35 36
71 81 87 87 75 85 80 81 87 84 81 77 75 75 76 74 69 64 61 56 53 48 40 38 41 37 46 43 45 43 45 34 27 41 50 65 47 45 53 53 48 50 56 53 49 47 50 47 46
69 85 86 85 79 84 78 77 81 78 77 73 76 76 75 72 66 61 57 55 52 47 46 42 41 37 45 48 45 44 43 29 36 59 56 58 50 44 40 47 53 51 45 50 56 62 68 71 79
63 73 77 71 79 74 80 77 80 78 77 72 73 73 73 69 65 60 55 49 54 47 45 51 44 39 52 47 44 46 44 39 34 53 57 68 56 49 46 58 39 67 46 52 57 72 80 77 82
61 64 71 73 68 71 77 84 86 93 86 77 70 71 72 69 62 58 51 53 50 50 53 43 39 44 48 43 47 51 55 45 31 52 55 56 68 69 89 49 58 67 40 61 72 61 84 81 72
51 59 63 67 73 72 75 82 86 92 81 81 66 66 71 66 59 57 51 50 58 43 51 43 37 45 46 42 48 63 60 45 40 41 56 74 68 75 67 63 79 61 63 58 49 55 52 67 69
48 49 61 65 70 71 73 76 74 84 73 67 63 64 66 61 60 55 50 48 52 41 50 42 35 57 68 58 58 55 46 58 48 40 50 87 54 55 54 59 61 70 63 51 45 47 56 69 60
32 43 50 60 68 75 70 80 72 89 85 63 57 63 62 62 59 54 50 46 47 43 42 40 36 38 40 52 55 48 41 52 45 49 45 49 62 58 50 69 61 49 76 49 46 37 47 48 54
30 36 41 54 62 62 69 74 83 78 85 67 55 58 59 60 58 50 52 45 45 45 38 37 39 38 43 47 45 43 47 52 47 50 48 48 61 63 78 59 68 60 52 58 46 39 53 54 42
25 31 36 46 58 61 57 68 73 82 69 60 56 53 57 56 58 48 51 45 43 44 37 36 42 40 42 48 44 58 54 58 63 54 46 51 64 60 62 69 61 54 66 52 51 40 41 44 52
20 25 29 38 56 58 63 67 68 85 78 50 53 55 57 53 57 46 47 44 44 41 37 35 45 43 42 44 47 55 50 58 54 55 59 58 64 58 61 58 48 55 69 47 49 49 44 51 52
18 21 24 27 46 52 60 71 73 60 70 78 48 50 54 52 56 49 44 43 45 41 36 35 45 40 41 46 50 50 53 66 63 63 85 59 60 58 64 58 49 59 66 57 44 43 42 55 52
21 20 20 26 39 51 64 71 76 63 61 72 46 45 50 51 50 50 44 42 44 41 34 31 40 39 38 44 51 57 55 58 79 55 54 50 53 55 55 55 46 54 62 42 42 51 44 41 45
17 17 18 27 36 49 50 72 73 70 63 80 59 42 46 43 45 45 43 42 40 38 33 28 34 39 37 38 48 54 61 54 54 56 50 46 46 44 54 55 53 51 52 45 41 55 51 39 39
19 17 14 20 35 39 47 55 71 62 84 93 72 44 42 42 46 45 46 42 37 35 34 29 29 33 36 36 41 48 52 55 44 47 49 40 43 44 48 50 55 56 58 49 40 39 49 54 40
21 22 19 16 19 32 38 50 45 64 68 79 67 62 42 38 41 41 38 40 38 37 32 30 26 29 31 32 37 38 44 45 54 45 50 46 45 42 47 43 47 54 53 51 45 40 48 52 51
21 20 21 21 15 15 22 38 39 64 60 61 60 76 55 43 39 38 35 38 41 39 37 32 28 23 26 28 31 35 35 40 45 44 54 51 44 40 46 51 47 47 45 49 49 40 35 41 47
23 23 24 25 21 14 10 17 29 42 45 54 56 76 65 50 45 44 40 38 36 37 36 35 30 26 23 24 26 30 31 35 40 43 54 46 40 42 38 38 47 45 44 49 49 45 37 33 39
24 24 26 29 23 17 14 13 10 24 42 63 60 57 70 53 50 48 43 42 37 33 31 32 33 29 24 23 21 25 27 29 34 41 40 50 41 44 42 41 36 32 40 38 48 41 37 31 29
25 32 21 24 26 23 22 15 12 11 30 47 58 63 67 71 61 60 49 46 42 38 34 27 28 31 29 23 21 21 22 24 30 33 38 38 37 43 41 39 36 30 29 36 39 39 44 56 39
23 25 36 30 31 31 27 24 19 15 13 34 47 51 51 57 66 84 59 51 49 44 41 37 27 28 31 31 26 22 22 20 23 28 30 34 33 36 45 38 32 27 25 29 34 33 37 43 43
31 26 29 38 36 27 31 26 22 20 17 17 32 37 39 53 77 83 84 64 53 52 47 42 38 30 28 31 30 27 24 23 21 23 26 28 31 32 37 37 31 27 23 24 29 29 37 38 39
35 30 27 38 41 40 31 27 23 23 22 20 20 36 47 50 59 75 74 66 60 51 50 48 46 40 33 27 31 30 28 25 23 22 24 26 26 30 28 30 29 26 24 22 24 25 27 35 36

GFSSGP_prec_cthk_063.txt.gz
RH
57 62 76 76 79 81 86 95 89 83 72 77 74 78 78 74 74 70 60 53 46 41 44 49 56 55 57 53 54 56 53 51 52 50 53 55 58 64 69 62 60 57 54 53 50 54 53 53 54
68 74 79 91 95 92 90 88 94 76 77 76 77 77 76 80 75 67 63 53 44 39 42 45 47 48 49 50 48 48 50 52 51 52 56 54 58 62 63 61 64 60 58 58 57 60 55 63 60
78 82 88 91 91 96 91 93 92 73 73 74 77 82 80 78 74 65 58 50 42 39 39 40 40 42 45 48 49 51 55 51 48 50 49 53 54 57 53 49 47 46 44 52 59 60 57 53 58
79 82 86 90 91 93 88 92 95 78 77 79 78 75 77 75 69 63 57 45 35 32 33 32 33 38 42 52 52 54 57 58 50 47 48 51 51 49 47 46 48 50 45 49 52 50 48 44 52
73 79 85 84 93 94 91 89 89 82 81 84 76 78 74 73 67 61 51 38 29 30 28 31 33 39 46 52 58 58 56 51 46 44 44 41 40 47 48 47 50 51 54 46 36 38 38 45 50
73 80 84 87 81 93 88 85 85 84 85 82 81 76 75 71 66 62 54 40 32 29 28 32 35 39 43 49 54 51 50 43 42 38 32 34 43 45 52 49 52 54 45 38 39 38 38 43 49
70 82 81 86 88 90 93 87 85 83 85 82 79 77 76 72 69 66 54 44 35 27 26 34 35 39 40 44 49 46 41 38 31 30 32 41 51 49 49 48 57 54 43 39 38 39 40 45 51
70 79 86 84 82 85 87 90 87 85 88 82 80 78 77 71 71 65 57 50 43 28 27 32 31 35 40 45 44 40 36 30 28 40 46 53 54 50 51 53 55 45 41 38 34 34 41 51 55
73 83 88 88 83 80 84 85 84 86 92 83 80 77 74 70 70 66 58 50 45 29 25 30 32 34 37 41 42 38 33 27 38 56 49 47 53 54 48 50 52 51 46 44 41 42 46 51 55
69 82 80 77 79 80 77 75 74 75 79 89 82 79 74 70 69 63 54 50 45 36 27 30 31 35 38 40 39 37 30 37 51 55 47 47 40 47 52 49 45 49 54 53 56 65 63 66 53
62 74 82 77 78 81 87 90 75 74 74 87 75 77 74 70 67 61 55 50 42 39 32 34 31 35 39 40 40 37 29 38 54 64 66 46 38 48 45 46 58 49 54 66 69 82 73 71 54
62 62 71 72 69 75 82 83 76 79 87 85 74 73 71 71 63 57 55 51 48 43 38 38 34 35 43 40 41 43 40 29 54 59 62 71 62 76 52 51 59 42 68 70 70 84 78 77 72
56 57 63 69 75 78 77 78 79 81 85 92 80 73 69 70 61 56 49 47 40 46 44 42 32 37 42 38 41 63 40 32 47 50 54 72 72 66 69 71 62 60 62 49 52 57 67 65 61
49 56 59 66 74 76 76 77 77 77 82 82 74 70 66 66 59 54 52 48 48 47 45 39 33 39 39 39 44 53 43 43 51 45 68 67 57 58 63 58 83 65 53 56 41 49 59 60 63
37 43 48 63 66 73 84 80 79 79 83 82 74 69 64 60 60 59 49 47 46 40 43 39 35 59 42 52 43 48 48 49 48 45 43 57 67 50 63 54 51 63 55 53 40 42 54 50 63
32 35 41 50 60 71 71 83 87 78 77 76 70 65 61 58 58 59 48 45 49 41 40 36 35 44 40 48 64 41 52 48 48 47 44 47 58 65 58 64 58 54 49 45 44 57 51 44 50
28 30 33 43 50 67 69 77 80 79 84 78 59 62 61 61 59 57 52 47 41 39 36 33 33 32 40 47 40 38 43 47 46 46 47 50 54 62 64 75 57 52 49 48 46 52 54 47 46
25 27 30 34 44 56 72 75 77 88 97 82 65 56 60 56 62 56 52 47 42 38 36 32 31 32 40 41 42 41 50 53 52 43 49 56 55 56 60 58 54 64 53 48 42 40 46 47 54
22 27 28 28 32 44 62 77 82 81 75 82 69 52 54 61 60 53 55 45 40 38 36 34 31 36 39 38 46 50 51 50 51 50 57 65 52 55 57 48 49 63 58 40 47 43 45 51 53
21 24 25 24 25 43 62 74 78 71 75 81 92 54 47 53 55 53 49 43 39 37 37 33 32 35 35 37 43 46 46 50 55 57 62 50 55 54 56 46 47 58 60 42 46 43 47 43 49
23 24 22 23 28 54 61 75 73 69 71 73 95 69 67 45 51 51 49 42 37 36 35 31 30 34 34 36 46 46 46 52 57 51 53 45 43 44 48 46 45 48 45 38 43 45 42 37 40
22 20 19 20 26 39 58 77 64 60 72 68 71 79 69 49 46 49 51 43 35 35 35 30 27 35 33 32 44 47 50 47 51 53 44 44 39 40 47 49 52 51 45 41 38 41 42 40 40
20 21 20 21 24 23 30 45 59 66 72 72 65 69 64 66 42 44 45 44 38 34 34 31 26 28 34 31 34 44 48 48 41 39 46 46 41 40 39 47 53 48 50 47 43 41 50 44 40
20 20 21 22 22 25 26 30 41 59 57 62 64 57 52 52 48 40 44 48 47 41 36 33 27 23 27 30 29 36 42 44 44 40 46 49 46 42 37 40 44 43 49 49 43 38 42 44 43
24 22 27 28 26 23 20 28 24 40 48 47 55 50 56 52 44 40 40 48 49 42 38 33 29 23 21 26 26 29 33 37 41 42 36 48 46 42 41 44 46 44 42 45 46 43 35 37 40
24 25 28 29 28 24 19 19 16 25 34 43 47 49 57 58 56 48 39 44 44 39 35 34 31 26 20 20 24 24 27 29 32 34 36 39 39 31 36 36 42 39 37 42 44 41 33 31 37
26 28 21 24 21 28 25 21 18 16 24 39 44 49 63 63 59 58 56 49 50 46 35 34 34 31 25 18 20 22 24 26 28 33 36 38 40 33 35 33 34 33 31 34 35 39 39 37 27
18 20 33 30 29 32 26 24 25 25 21 30 44 48 50 62 57 68 64 67 61 55 45 38 34 34 31 25 19 19 21 22 26 30 33 34 37 36 36 34 32 31 28 25 28 32 38 44 38
28 24 27 31 32 36 31 24 20 29 27 30 30 38 45 47 46 57 74 65 60 61 63 51 38 31 33 33 26 20 19 21 22 26 28 31 31 34 32 34 33 30 27 22 22 26 29 34 37
26 27 29 36 33 34 38 29 24 29 30 35 42 41 42 46 49 49 47 58 61 62 56 55 46 36 27 27 31 27 21 19 20 19 24 26 27 28 33 32 33 30 27 23 20 22 24 30 34

GFSSGP_prec_cthk_066.txt.gz
RH
54 60 70 74 77 81 86 90 85 90 80 73 73 70 72 74 73 62 51 43 42 46 53 60 60 59 55 54 57 54 51 52 50 53 56 61 66 68 65 60 54 52 47 50 51 54 54 55 53
59 74 78 89 91 95 87 83 90 85 82 71 75 71 76 79 71 61 52 44 42 45 50 56 56 55 53 54 52 49 51 54 57 57 55 60 66 65 58 71 63 62 61 64 59 57 60 58 53
77 82 89 93 93 96 93 89 91 87 78 80 78 83 80 79 71 60 49 42 40 43 46 48 49 49 50 51 52 55 52 51 52 51 54 56 60 56 50 49 47 42 55 56 60 58 61 58 59
79 84 88 94 97 89 88 89 95 90 83 81 83 82 80 76 69 57 49 40 38 38 43 42 43 46 49 49 53 56 55 53 52 51 53 55 53 51 47 47 47 44 47 55 51 49 50 57 64
77 79 87 91 92 91 91 92 95 86 82 83 78 78 80 76 66 57 48 40 36 36 37 36 40 42 50 52 55 58 55 49 48 46 44 45 51 48 49 48 51 48 42 39 39 42 50 55 64
76 81 88 94 90 91 94 92 89 84 82 79 76 73 76 73 66 56 44 38 32 29 31 33 37 44 49 56 55 52 47 44 41 35 40 48 51 50 47 54 48 39 39 37 36 43 47 52 60
73 83 83 85 87 96 93 91 90 84 80 79 76 71 71 70 64 48 37 31 27 27 31 32 37 41 46 51 49 44 39 35 31 34 49 48 49 46 53 53 45 41 41 39 38 43 52 56 61
73 82 81 82 84 86 89 90 89 84 85 82 76 72 69 68 61 53 41 33 28 27 31 33 36 38 43 46 42 37 33 32 38 47 52 47 49 50 55 48 42 37 35 39 41 45 51 56 60
77 83 84 80 84 84 87 88 93 91 86 85 85 74 70 70 62 55 50 41 35 26 32 32 34 37 43 43 37 34 29 45 53 45 48 47 49 51 52 46 43 42 38 36 41 48 52 57 59
79 82 83 81 82 84 83 89 85 92 90 84 88 82 76 73 64 56 53 45 40 27 29 30 32 38 41 41 34 30 34 56 48 40 38 47 48 43 42 48 52 50 48 53 55 61 58 52 57
70 74 75 79 81 82 81 84 85 83 91 89 93 78 77 76 67 56 53 45 35 26 26 30 32 37 39 38 34 29 41 55 57 46 34 35 43 41 51 45 47 56 58 65 72 65 64 54 55
66 64 71 75 78 82 81 77 84 83 90 81 87 78 75 74 69 58 53 49 43 34 25 30 32 37 38 38 35 31 36 52 58 58 67 51 71 45 50 39 48 66 66 71 78 67 64 64 64
58 60 63 65 76 79 81 86 87 84 92 89 88 83 78 73 69 62 53 47 44 42 32 31 32 38 39 40 43 36 27 45 51 56 61 66 61 70 59 52 50 59 52 53 62 62 58 60 57
51 52 46 54 71 75 79 82 80 83 89 88 88 79 76 71 68 61 54 46 42 42 36 36 33 38 39 43 57 48 28 40 50 63 72 62 63 64 56 71 68 52 53 45 51 55 55 60 62
42 42 39 56 71 77 78 80 80 86 88 88 83 75 70 69 68 61 49 43 39 41 40 37 34 35 39 49 52 41 38 41 46 54 59 58 54 57 53 52 50 55 49 41 46 50 50 57 61
36 36 38 50 67 76 73 82 83 84 82 82 79 74 68 67 65 59 50 44 44 42 40 40 43 38 40 46 47 46 42 44 46 45 48 60 61 56 53 56 55 52 48 41 40 47 44 54 56
34 35 40 44 59 64 68 82 82 81 82 77 72 65 64 66 63 62 56 43 42 38 38 39 45 52 52 59 51 46 49 44 44 45 46 50 57 66 59 71 46 46 44 44 50 46 42 44 50
31 35 38 44 53 57 63 78 79 75 80 77 72 61 60 62 62 63 54 46 42 42 40 38 37 39 46 50 46 42 44 48 45 47 48 51 54 57 56 65 56 53 46 46 45 40 41 45 46
26 30 34 36 40 46 49 75 72 74 75 75 74 68 57 56 59 61 58 47 44 43 44 37 34 33 36 44 39 41 47 50 47 47 56 56 54 62 58 46 56 51 46 46 41 40 39 44 43
24 28 30 31 32 36 51 68 72 76 71 74 71 58 60 57 67 68 60 46 46 45 42 36 32 31 33 42 40 43 50 53 50 61 62 55 53 52 52 45 57 63 49 44 44 40 41 44 40
27 27 27 31 36 46 63 85 85 79 75 78 79 80 69 62 63 60 52 49 49 45 42 36 33 31 35 39 45 50 51 48 51 60 51 49 50 47 49 44 53 48 46 43 46 40 42 42 40
29 22 24 28 27 37 53 93 87 83 79 80 78 76 64 54 60 57 54 52 44 43 41 36 36 32 33 37 41 47 44 52 54 52 49 43 40 42 46 48 49 48 42 36 41 42 40 37 41
24 23 23 24 27 28 41 62 54 76 80 80 79 70 55 59 46 51 50 49 48 45 39 35 34 36 30 35 38 44 45 45 52 49 50 40 38 40 45 50 51 48 45 38 38 41 39 37 39
22 21 23 25 27 31 27 30 44 60 57 72 72 69 62 54 53 41 46 51 48 49 42 35 32 36 33 35 32 43 45 45 47 45 44 44 40 42 40 44 45 47 44 42 38 38 42 46 39
22 23 27 27 31 31 29 30 24 44 45 56 62 68 60 57 59 44 45 51 48 47 42 35 31 32 32 32 33 37 45 47 44 38 41 43 45 42 40 40 41 40 43 45 40 35 36 38 39
25 24 26 26 27 31 28 32 29 30 39 43 49 55 61 60 67 54 40 40 40 43 42 39 32 29 30 27 30 30 36 42 44 38 37 39 47 41 40 41 43 41 38 42 41 35 29 34 39
24 25 25 26 25 27 24 22 22 32 33 31 41 48 47 48 59 59 54 40 40 37 35 35 36 31 29 26 24 28 27 34 37 38 39 35 40 35 35 36 38 39 34 37 37 36 33 28 33
23 26 28 29 31 31 27 24 24 31 33 36 38 37 44 48 44 55 59 41 42 44 41 34 35 36 32 30 26 23 25 26 31 34 36 36 39 37 35 35 35 34 33 35 31 35 38 31 25
23 24 25 27 32 34 32 27 29 40 39 39 43 44 48 54 52 43 48 55 51 48 43 38 34 32 34 35 32 26 22 25 27 31 34 35 36 38 33 33 34 33 31 31 26 27 31 35 33
25 27 27 31 32 35 37 32 34 40 40 41 41 37 38 49 59 55 51 50 43 49 46 43 46 38 29 32 37 33 26 22 26 27 30 33 35 35 35 34 33 33 31 29 24 22 26 27 31

GFSSGP_prec_cthk_069.txt.gz
RH
52 61 72 75 79 88 86 88 90 86 77 73 74 70 70 69 63 56 43 41 47 55 61 62 63 63 58 54 50 48 50 47 49 54 57 60 60 57 53 51 48 46 52 50 53 54 56 51 54
58 71 79 88 92 97 91 83 94 87 80 76 73 72 74 70 67 54 42 40 45 52 57 59 60 57 55 56 51 50 52 55 56 55 59 66 65 59 64 64 61 56 59 62 58 59 60 54 61
74 83 89 93 95 94 95 89 90 87 75 78 79 77 79 74 67 50 41 37 42 51 55 57 56 55 53 54 55 53 53 52 51 54 55 60 63 52 52 53 52 56 62 62 63 62 56 63 74
82 85 88 92 94 90 87 89 89 85 85 85 86 82 80 74 62 51 39 37 41 48 52 52 54 54 54 55 56 54 55 52 50 57 58 57 53 48 48 45 46 52 52 62 57 57 56 68 76
80 82 89 97 92 90 86 82 87 89 88 88 85 87 83 79 59 50 40 36 39 44 46 48 51 53 54 57 59 56 55 49 50 51 52 50 50 51 48 54 45 47 47 43 46 54 67 73 78
81 84 91 93 94 91 92 91 91 91 89 87 86 80 85 76 61 50 39 35 37 40 40 44 47 51 52 53 57 53 49 46 46 47 50 53 47 51 54 47 40 39 37 41 44 54 64 69 76
79 86 88 89 91 91 97 97 93 90 88 84 82 80 85 74 61 52 41 37 36 37 36 40 43 52 64 58 53 45 45 38 41 51 53 49 46 53 47 43 43 38 35 41 48 55 57 59 65
80 84 87 84 89 89 92 91 92 90 85 83 80 79 77 72 60 52 44 37 31 32 32 37 43 48 53 51 43 41 33 38 47 51 51 49 53 49 40 37 36 37 36 39 50 54 59 64 64
82 86 86 83 85 88 90 90 93 89 85 81 81 72 71 64 55 44 36 32 28 33 32 35 40 46 48 44 37 34 35 47 51 48 51 53 57 45 39 37 34 36 37 41 50 52 57 59 59
84 84 79 77 84 87 88 93 90 89 86 87 83 78 70 65 57 46 38 32 28 29 33 35 37 43 45 39 34 34 53 46 42 46 46 48 49 47 48 44 38 38 43 48 57 53 55 60 58
79 80 70 75 82 84 83 88 89 87 90 89 83 80 73 66 64 54 42 39 33 27 32 32 38 43 43 36 32 39 51 44 42 37 43 41 42 44 44 46 49 58 65 73 64 55 50 55 50
75 68 65 70 77 83 87 87 88 87 91 88 81 82 78 71 65 58 52 45 33 25 29 32 37 41 39 34 31 39 56 65 41 38 55 56 46 44 45 53 60 65 71 69 63 57 58 61 57
71 64 56 57 61 77 83 87 89 90 90 93 88 84 79 77 70 61 55 46 42 33 27 32 35 39 39 37 36 38 51 59 60 63 60 56 56 52 42 51 60 57 63 64 64 59 63 57 56
57 54 48 45 51 70 81 83 83 89 90 91 89 87 79 76 73 67 55 51 45 37 31 31 34 39 38 46 38 30 43 53 57 72 71 69 69 58 62 64 55 55 45 48 54 56 57 58 58
45 44 40 50 57 75 84 84 83 79 85 93 89 85 78 73 73 69 57 53 47 40 32 32 32 37 42 52 53 38 38 51 53 69 64 57 63 58 58 55 53 46 45 43 47 50 55 63 60
41 39 34 54 63 74 79 82 78 84 86 86 87 78 72 70 71 70 58 48 47 42 41 37 35 35 46 50 53 48 38 46 46 54 66 60 56 64 58 54 56 53 46 43 40 42 52 60 57
41 42 36 55 69 74 75 78 81 81 79 78 78 71 65 67 67 64 55 48 49 46 40 37 39 37 40 46 49 48 43 47 44 48 57 59 68 65 70 64 53 48 44 42 40 41 44 50 49
38 41 40 40 63 64 67 68 79 80 78 80 76 65 61 63 63 60 52 48 48 42 40 38 52 44 47 53 50 48 48 47 45 51 58 58 58 59 69 68 56 49 45 45 44 42 43 47 44
31 38 43 42 41 48 49 58 66 80 79 77 80 67 58 58 61 58 53 46 49 46 42 40 39 46 50 58 55 45 53 50 49 54 62 62 60 61 51 56 56 48 41 40 41 41 42 43 40
30 34 44 42 41 37 41 59 67 81 83 81 77 71 57 52 57 54 57 46 47 47 42 38 40 39 39 42 45 41 47 54 52 60 69 62 57 58 50 54 61 55 50 44 37 41 42 42 40
25 31 43 43 37 43 54 68 75 79 81 79 76 74 67 51 52 48 50 49 46 46 44 43 40 38 37 39 44 44 47 56 53 65 65 58 59 53 51 52 58 54 48 46 42 39 44 40 41
27 31 37 35 31 29 51 72 78 80 79 73 75 79 71 59 55 49 47 48 49 44 46 43 44 41 38 34 41 45 47 53 55 57 59 52 51 49 55 50 49 48 44 41 44 42 41 42 41
26 26 34 34 29 36 41 45 58 80 79 72 73 77 71 60 43 43 43 42 44 48 45 42 43 42 39 35 37 42 47 50 57 57 55 47 46 47 49 54 47 45 43 39 42 44 44 39 40
26 25 26 34 32 31 29 31 40 76 62 62 65 71 70 60 56 53 44 43 43 46 48 41 40 40 38 34 35 37 42 49 56 58 54 48 43 44 47 55 51 50 47 44 37 41 42 42 40
23 25 28 29 35 32 29 28 26 45 47 47 52 61 65 63 63 56 45 40 43 42 45 41 38 39 36 35 33 34 40 44 46 54 52 49 44 44 43 44 46 49 49 46 44 40 40 43 42
24 25 28 28 34 35 32 33 29 32 39 40 40 54 65 59 60 57 46 39 39 40 41 40 40 35 37 35 32 30 33 44 44 48 48 47 44 49 48 46 46 45 46 48 46 38 34 39 38
25 28 25 28 29 29 33 31 31 36 35 37 40 37 52 56 55 61 55 44 39 40 38 38 40 38 35 33 33 30 29 37 43 45 43 43 47 51 47 49 46 43 43 43 43 43 37 33 37
27 27 28 30 32 30 29 32 38 39 38 41 38 38 41 49 56 60 62 60 38 36 36 34 39 40 37 33 29 28 27 29 34 42 40 41 43 47 42 43 44 44 42 46 40 43 41 33 30
31 31 32 32 35 38 34 33 38 40 37 41 41 35 37 37 52 56 58 65 48 44 45 42 36 36 38 38 32 26 25 24 27 31 35 38 41 39 39 40 39 40 40 42 40 38 39 37 30
28 31 32 35 34 40 39 39 33 39 39 40 43 40 31 30 42 55 66 70 68 57 57 51 43 46 40 39 38 31 27 24 23 25 29 34 36 39 41 38 37 39 38 38 36 36 33 35 35

GFSSGP_prec_cthk_072.txt.gz
RH
44 51 66 73 77 85 89 88 93 90 83 77 74 68 64 61 58 52 41 46 52 57 58 60 60 58 51 45 41 44 45 47 52 55 52 50 45 46 48 45 47 47 47 50 56 57 56 53 59
57 68 77 85 89 95 93 85 94 90 81 77 72 68 68 63 67 47 39 45 51 56 58 61 60 55 50 47 47 50 53 55 56 58 64 66 59 59 65 57 50 56 58 60 57 61 54 56 70
69 81 88 92 94 96 91 90 91 87 79 76 77 71 74 68 62 43 38 41 49 56 59 60 56 53 51 50 51 53 54 52 53 56 60 64 58 58 70 57 55 66 69 63 63 58 58 68 84
83 86 86 92 94 94 91 91 94 86 82 84 78 78 77 75 55 42 37 39 45 52 56 57 53 52 54 54 54 54 52 50 55 60 60 59 53 52 47 44 50 59 68 62 63 57 72 77 77
82 84 88 93 92 96 88 86 96 92 90 91 82 83 80 72 52 40 36 38 43 50 54 55 54 53 54 57 55 56 53 51 56 57 58 56 52 51 51 49 50 56 60 56 63 65 77 73 74
84 84 88 92 92 94 89 85 93 95 95 91 87 85 85 70 53 41 35 39 42 46 50 52 52 52 55 55 57 54 50 54 54 52 51 47 48 51 51 44 41 39 40 48 63 70 76 76 71
83 82 86 89 88 86 90 91 96 94 93 91 87 85 82 67 53 43 37 38 40 42 45 48 49 52 54 56 58 48 47 48 50 48 47 44 52 50 42 46 40 41 45 51 60 66 72 71 69
79 86 83 84 91 91 86 94 95 93 89 85 80 81 79 66 56 45 38 35 38 40 41 42 54 61 59 54 48 42 42 48 51 48 47 52 55 46 48 45 39 40 46 49 55 58 61 63 65
80 86 83 81 84 91 91 93 94 90 85 83 77 75 69 65 56 45 40 36 36 34 36 41 46 51 48 43 43 36 44 48 51 55 56 51 43 39 38 42 39 38 45 52 55 60 60 60 58
86 82 78 78 82 85 91 94 93 87 82 84 78 76 68 62 57 45 39 31 30 31 34 38 43 45 45 39 36 40 43 42 46 49 52 51 47 44 38 40 40 43 48 53 54 57 57 57 57
83 79 74 77 79 83 85 90 91 86 88 87 79 76 68 62 54 41 33 26 25 30 32 35 40 43 41 35 34 49 41 38 39 42 42 44 45 47 44 42 47 60 66 60 53 56 58 53 50
80 75 68 71 78 84 88 88 90 88 88 87 79 72 64 57 49 42 35 28 25 29 32 33 38 42 36 32 37 51 47 38 42 52 48 43 48 47 52 58 64 70 66 63 52 53 57 53 51
78 65 63 58 66 72 82 87 88 93 86 86 80 76 69 60 56 50 46 40 29 27 30 32 37 39 34 33 35 54 63 48 57 54 54 47 43 41 56 59 66 70 70 67 61 62 60 58 55
61 53 53 50 54 64 80 85 85 91 88 87 89 84 74 66 62 56 52 44 34 31 29 30 35 36 34 33 35 41 57 58 71 72 69 67 60 59 60 62 59 51 53 62 63 63 63 60 57
51 47 46 56 60 71 82 85 80 81 87 90 91 90 80 67 65 57 51 47 42 36 34 30 32 35 39 39 33 36 52 55 61 76 64 71 63 58 58 57 52 47 50 49 55 63 65 65 57
43 43 42 58 67 73 80 79 83 85 88 91 90 88 79 73 67 61 54 49 42 35 34 31 31 36 43 45 48 40 45 51 55 66 62 59 64 66 59 55 55 51 47 44 47 54 63 62 57
45 44 38 54 68 73 79 77 80 87 86 88 85 80 74 71 70 63 53 49 41 32 35 32 29 34 41 46 48 42 38 45 48 54 64 69 70 67 67 57 52 48 47 44 41 50 57 62 56
43 41 39 44 66 67 72 70 77 84 82 84 79 72 66 65 65 62 51 48 49 44 41 37 33 35 39 43 45 46 41 46 46 52 62 61 62 64 72 63 57 51 45 45 43 44 48 50 49
36 40 41 40 47 59 54 56 66 81 85 80 81 72 61 66 65 61 49 46 48 47 43 39 39 38 39 45 46 45 39 44 46 55 61 64 66 60 61 63 58 51 45 47 46 43 44 46 40
35 38 44 42 42 47 49 58 64 73 83 83 81 76 62 62 66 63 55 47 45 45 44 45 47 48 49 52 52 50 46 48 52 64 68 65 65 71 51 55 57 55 46 42 43 43 43 40 39
33 36 41 42 35 54 55 58 66 72 81 81 83 80 70 60 62 63 55 44 44 44 43 42 43 43 40 40 40 44 45 49 54 65 67 65 60 61 56 59 61 54 48 44 39 43 45 42 41
30 32 37 40 35 35 49 58 60 73 78 80 81 80 74 61 57 59 53 47 43 42 41 43 45 46 41 38 35 39 37 42 54 57 64 58 54 55 59 57 56 53 49 43 43 41 45 43 44
29 36 37 37 36 42 43 43 44 70 73 77 78 76 73 69 55 55 51 44 44 41 37 40 44 44 45 40 35 36 41 44 52 55 56 51 49 55 62 55 51 48 51 44 43 43 42 44 43
30 30 34 34 34 33 33 31 30 64 71 61 68 72 70 71 59 54 52 50 46 46 43 40 42 43 44 40 38 36 37 46 49 52 51 50 48 48 51 54 52 48 49 47 41 42 43 43 44
28 29 37 38 38 34 29 28 29 42 58 45 45 56 69 61 54 51 44 44 44 44 45 43 41 43 45 44 40 35 35 40 47 53 52 51 47 44 46 48 54 55 52 51 48 42 40 43 44
27 28 32 33 40 35 31 29 32 41 57 49 41 50 59 66 67 61 50 44 43 43 43 44 40 42 44 44 40 36 35 38 40 47 49 50 46 44 48 47 46 50 52 51 48 44 43 43 44
27 30 29 32 32 32 33 29 27 32 41 47 50 48 62 67 69 69 54 48 46 46 44 42 39 40 45 44 40 38 34 34 38 42 44 49 44 44 53 55 50 47 51 49 46 45 42 42 41
28 28 32 33 34 31 32 39 41 35 36 52 58 52 52 62 66 66 62 49 48 48 47 45 42 39 42 44 40 36 33 32 34 40 43 42 41 47 49 51 51 47 50 48 46 42 41 39 37
29 33 32 34 34 36 37 44 40 43 47 49 50 55 49 46 53 64 71 66 55 52 51 49 48 46 47 46 45 41 36 32 31 33 38 39 38 42 45 43 44 48 51 51 51 47 41 37 35
32 34 35 37 32 37 38 37 51 52 49 49 50 48 46 44 47 57 66 71 62 50 53 53 53 49 48 52 48 45 40 34 30 29 30 34 36 39 39 39 36 37 42 48 45 44 43 37 34

GFSSGP_prec_cthk_075.txt.gz
RH
39 44 63 70 73 82 87 91 91 90 85 78 71 64 60 50 53 46 43 51 56 59 60 58 57 49 43 41 38 40 45 51 54 47 45 40 43 43 41 43 48 42 46 53 56 56 55 60 65
53 66 75 82 83 92 93 86 90 89 81 77 70 63 61 58 56 40 42 51 54 58 58 57 53 46 42 42 48 52 54 57 60 64 70 60 56 62 57 51 53 58 58 58 62 58 55 72 78
65 77 85 89 92 96 91 91 98 85 79 76 73 66 62 63 51 41 42 47 53 57 56 57 53 46 46 49 53 55 54 54 64 72 79 71 61 74 67 58 63 67 63 64 59 57 67 86 81
77 83 85 89 91 97 90 91 89 80 81 79 72 70 67 65 45 39 40 45 51 57 55 53 50 48 50 52 53 52 52 55 59 64 68 59 58 54 52 48 60 68 64 61 59 71 81 86 83
82 82 84 89 91 98 91 88 86 83 83 79 73 74 73 58 44 38 39 46 51 54 54 51 50 51 53 53 52 53 54 56 60 65 61 52 51 49 48 54 56 60 65 65 64 74 82 84 77
83 82 84 84 92 93 90 93 87 89 87 82 79 78 75 54 44 38 41 45 50 53 52 51 51 51 52 52 52 55 54 54 54 51 47 51 48 53 46 45 47 53 55 64 70 76 78 77 70
80 81 84 86 84 89 91 91 94 88 89 88 80 81 75 57 46 40 40 43 48 50 49 49 49 52 53 54 52 52 51 47 46 48 44 43 52 48 44 44 41 46 55 66 75 83 76 70 62
82 81 83 83 80 83 91 91 96 93 90 92 83 82 72 56 46 41 40 42 45 45 46 48 49 51 54 50 47 47 47 44 48 45 45 52 46 48 45 43 46 49 55 62 65 69 68 71 63
81 83 82 81 83 85 88 93 96 94 89 85 82 79 65 59 49 43 40 43 42 40 42 46 51 52 50 44 41 43 51 50 50 46 47 42 43 44 44 42 44 48 54 59 61 60 61 61 60
81 81 77 78 82 88 93 90 88 90 87 87 81 77 63 61 53 43 37 38 39 37 38 42 45 48 44 42 39 46 45 49 51 51 47 41 37 40 45 46 45 51 55 59 59 59 57 59 52
81 78 76 74 77 83 92 95 90 85 85 83 78 72 62 59 52 42 37 32 35 32 35 38 41 43 41 36 40 39 40 45 43 45 43 45 42 40 43 45 52 53 56 54 58 58 55 53 49
80 71 72 74 80 81 87 89 91 89 88 80 78 70 62 56 51 43 37 31 30 30 33 36 40 40 36 32 44 37 38 38 42 37 45 46 46 48 55 62 69 63 57 51 52 54 52 52 49
72 69 65 65 73 76 80 82 85 89 87 84 77 70 62 58 50 44 37 31 27 30 31 33 39 37 32 36 47 46 37 45 47 48 44 41 43 53 58 65 69 70 66 57 59 59 55 54 51
61 59 55 54 60 70 74 83 84 90 86 84 78 70 61 53 46 47 41 34 24 29 30 32 36 35 31 35 46 56 50 59 60 56 56 53 48 58 63 57 61 60 62 62 61 59 59 56 52
60 55 52 58 59 67 76 83 81 86 87 85 82 73 61 52 53 51 46 37 26 28 29 30 34 34 31 34 39 46 56 63 70 69 64 58 53 54 55 54 53 46 52 60 64 63 63 57 54
50 49 42 58 63 74 76 79 84 87 89 89 86 81 69 60 59 56 51 45 35 34 31 30 33 34 34 35 33 39 50 55 65 67 59 62 66 56 52 58 52 47 45 46 55 63 64 57 55
48 46 40 60 68 73 76 74 84 87 90 92 91 88 74 65 63 57 52 48 38 34 33 28 31 36 39 41 44 41 45 48 57 63 63 63 70 64 58 53 50 47 46 44 45 56 62 60 54
46 41 41 50 67 75 72 70 78 85 89 91 89 86 77 69 67 62 54 47 38 31 32 29 29 36 40 41 42 39 36 43 49 56 62 66 64 67 68 54 49 48 47 44 45 51 56 55 51
42 42 39 41 56 60 55 61 67 81 86 84 84 76 72 71 69 67 57 46 40 36 38 34 30 32 37 39 38 41 39 40 44 56 61 62 62 60 70 62 56 53 45 45 43 45 49 46 43
37 42 39 39 43 47 48 57 61 73 85 83 78 74 69 68 66 66 55 50 44 39 37 36 36 35 36 42 43 46 40 41 45 60 64 63 65 60 54 57 56 55 44 45 46 45 44 39 37
33 37 41 38 38 58 63 63 63 67 82 85 82 76 65 64 65 62 55 46 45 43 42 41 44 42 46 49 50 50 47 44 51 63 63 63 62 59 55 58 59 52 44 43 41 43 45 41 42
32 34 40 38 35 37 54 50 62 64 76 81 83 80 74 61 62 62 56 45 45 43 45 48 46 46 49 46 42 42 46 43 53 60 62 62 56 56 59 55 55 52 48 45 41 43 44 44 44
31 30 40 38 33 36 46 41 45 70 77 83 84 85 81 69 58 60 59 49 40 42 43 44 45 44 43 40 39 39 40 44 52 56 59 56 53 55 57 60 55 49 46 45 44 42 44 44 42
32 28 33 33 29 30 38 35 36 51 63 64 72 79 83 79 60 58 60 55 47 45 44 44 44 43 43 42 39 38 39 45 48 54 54 56 52 51 52 53 52 47 47 45 43 43 44 43 43
32 29 35 33 31 32 29 35 43 49 66 65 61 54 70 76 68 59 54 50 48 47 47 48 46 44 46 45 41 39 38 44 50 50 50 53 52 48 48 47 58 52 50 47 48 41 40 41 43
31 29 31 35 31 29 30 31 39 43 62 72 61 55 59 68 66 62 55 50 48 48 48 52 50 47 47 48 43 41 39 38 42 48 50 53 54 49 48 47 51 57 51 49 47 44 44 42 40
29 29 27 29 30 30 31 31 32 39 50 63 62 59 69 63 63 62 58 50 49 46 46 49 50 50 47 47 46 44 41 39 39 43 45 50 52 50 44 48 50 48 53 50 46 42 45 44 41
28 29 30 27 31 32 35 38 36 47 57 68 63 61 72 71 73 69 63 58 52 51 49 50 51 49 48 49 48 48 44 42 38 39 42 44 48 49 47 49 51 53 51 50 47 42 38 40 39
28 29 31 30 27 27 29 34 49 56 52 60 64 63 63 67 73 78 74 59 59 56 54 52 51 50 50 47 47 46 46 42 40 37 38 42 44 46 45 51 51 48 50 49 47 48 42 36 36
31 31 30 30 33 31 27 34 50 51 52 53 66 68 64 62 65 68 80 70 55 58 56 57 55 54 53 52 51 47 50 47 42 40 36 37 40 42 42 44 44 43 47 49 50 50 46 45 37

GFSSGP_prec_cthk_078.txt.gz
RH
37 42 62 69 74 74 85 89 81 79 76 70 65 57 51 47 50 59 56 60 65 65 61 56 51 46 41 35 36 41 53 47 40 39 36 39 38 37 40 44 43 43 50 56 55 56 60 68 77
52 66 75 82 79 87 89 87 88 81 75 68 62 54 52 58 46 46 53 60 65 65 64 59 45 40 40 42 47 50 54 57 58 60 54 50 55 54 49 54 56 56 58 62 64 57 70 79 73
64 75 83 86 86 93 86 92 89 81 74 68 62 59 58 54 44 48 53 57 64 64 65 55 44 41 46 50 54 53 55 60 64 76 71 64 71 69 58 64 70 63 70 66 59 67 80 76 70
75 79 80 84 86 97 90 91 86 77 77 72 65 61 59 51 44 48 54 58 64 62 64 49 47 49 52 53 55 55 56 60 62 67 66 65 65 65 55 60 70 66 64 62 65 80 78 77 77
80 78 84 87 96 95 89 88 80 78 77 71 65 63 63 48 45 46 52 59 63 63 60 53 49 51 52 54 57 55 56 61 67 68 57 61 54 48 49 54 59 64 64 65 76 85 85 77 60
80 79 82 86 93 90 85 86 85 82 77 72 70 68 62 46 42 44 52 59 62 62 61 55 51 51 52 57 56 57 56 58 60 54 53 50 48 48 47 50 59 64 64 69 81 82 80 71 56
78 81 82 82 89 91 87 87 89 84 78 76 73 71 60 48 42 45 50 57 61 61 61 58 57 56 54 57 57 52 52 53 50 49 45 49 51 44 45 40 46 55 66 74 81 76 70 62 47
78 77 80 79 79 91 91 89 91 86 85 78 74 72 60 49 41 44 50 54 58 60 57 59 63 59 58 58 53 50 50 48 46 45 50 48 46 43 42 45 46 56 72 80 77 72 69 59 43
75 79 79 83 81 85 88 85 90 90 86 84 79 70 59 52 42 42 47 51 54 57 57 57 63 58 53 55 50 50 46 48 54 52 51 53 56 54 54 47 49 58 62 62 61 66 64 61 44
78 79 77 79 83 84 87 85 88 91 89 86 82 71 60 53 44 41 45 46 48 52 57 60 60 54 50 54 58 58 65 62 58 53 48 52 56 52 48 47 49 53 59 57 59 60 58 63 61
73 76 72 74 82 85 83 82 84 86 85 80 78 71 58 52 44 39 43 42 44 48 52 54 55 51 45 52 55 56 56 57 55 52 51 47 51 56 53 55 58 55 57 63 61 60 60 55 52
74 73 70 76 79 86 87 84 86 85 84 78 76 67 59 53 46 38 40 42 40 41 45 50 51 49 45 48 51 53 51 48 51 50 49 46 51 53 64 68 61 60 58 58 60 57 55 50 49
72 67 67 69 75 81 82 84 86 88 83 77 76 67 58 54 45 39 39 40 37 38 42 46 48 44 40 47 48 50 50 57 49 50 50 53 58 60 67 67 69 66 57 57 61 60 55 52 51
64 66 59 58 71 75 76 82 82 87 87 80 76 68 59 55 49 45 38 33 37 37 40 44 45 39 41 50 50 46 60 59 57 57 49 44 59 60 58 66 67 67 64 65 62 57 59 55 55
59 55 56 60 59 68 74 82 83 86 87 82 78 71 61 56 51 43 38 31 35 37 38 39 40 37 39 45 58 61 65 72 66 62 57 53 54 57 57 55 50 60 59 61 62 60 59 58 55
57 50 50 60 62 68 71 80 83 85 85 85 80 73 62 56 51 47 45 38 34 36 34 36 41 36 38 41 45 62 64 67 71 68 64 56 52 50 56 55 52 48 52 62 64 65 65 61 58
50 52 45 57 64 68 70 77 85 85 86 85 83 73 64 55 56 54 50 45 39 40 33 34 37 37 36 38 41 47 55 60 69 65 62 62 61 57 54 54 50 45 48 49 54 60 65 60 58
49 48 41 56 63 69 70 74 80 88 93 91 88 84 69 63 63 60 54 50 43 41 36 35 38 40 39 42 48 44 50 54 60 68 66 66 66 66 60 50 47 48 53 49 51 56 58 58 54
48 45 45 48 60 66 67 66 71 85 90 93 93 89 78 69 68 65 58 51 41 39 36 33 36 42 41 44 44 45 42 51 51 63 61 62 59 63 63 58 50 45 49 48 43 50 50 51 46
40 40 40 39 44 49 45 54 66 78 84 86 87 82 78 71 66 66 60 52 41 36 35 33 33 35 40 41 44 49 49 49 53 64 63 64 65 56 60 54 52 50 49 45 43 46 51 44 40
35 43 40 40 39 46 50 57 65 73 83 85 81 78 73 68 66 66 62 50 44 38 38 37 35 37 35 43 45 48 46 46 51 66 65 65 62 56 51 52 55 47 45 48 44 45 45 50 41
28 38 40 35 36 46 50 68 65 66 80 89 86 80 72 66 68 67 64 51 48 42 42 42 39 41 40 49 54 53 54 53 63 68 67 67 60 58 58 52 51 45 46 45 40 43 47 44 47
35 34 36 33 34 32 43 52 62 64 71 87 89 87 82 70 64 68 64 54 46 47 46 46 48 47 53 48 45 45 50 54 61 67 62 64 57 62 64 56 54 46 44 41 40 41 42 45 47
33 28 33 31 30 32 41 45 48 62 65 71 78 84 85 80 68 64 66 60 45 46 46 51 54 49 51 48 43 40 44 48 58 61 61 62 60 57 60 60 54 50 47 40 43 39 41 45 44
33 26 33 35 27 27 36 40 53 53 69 74 78 70 72 84 77 64 63 63 53 47 47 47 50 46 47 46 42 41 39 43 51 57 58 60 64 59 55 48 57 49 48 45 40 45 41 45 43
32 28 28 36 29 29 31 39 47 56 61 72 69 66 58 76 80 72 62 65 58 51 49 47 45 45 45 47 47 43 41 43 50 55 56 57 62 64 53 46 54 54 49 43 42 47 44 47 46
32 32 33 34 31 29 29 43 45 53 54 70 72 65 65 73 79 73 64 62 59 53 49 46 47 44 45 45 47 48 44 42 47 51 54 54 57 60 53 50 51 55 53 50 47 44 44 44 43
33 31 32 28 35 35 35 35 44 50 55 58 67 68 70 71 74 71 68 64 59 52 51 49 51 49 47 49 50 48 49 45 43 43 45 49 56 56 56 49 50 54 51 51 47 45 42 44 46
28 30 28 29 29 30 39 41 50 52 55 58 67 67 71 80 78 79 74 68 60 59 58 54 54 54 52 49 50 52 51 50 46 44 41 41 46 50 53 51 53 60 53 49 46 44 43 39 42
28 30 30 30 31 28 31 57 52 51 56 62 78 72 70 77 82 79 85 82 70 63 62 60 57 58 56 54 52 52 51 52 53 45 43 42 41 47 50 52 54 60 61 52 48 48 48 46 42

GFSSGP_prec_cthk_084.txt.gz
RH
39 40 58 73 86 89 83 83 88 66 62 67 56 48 54 61 66 63 66 67 64 58 52 49 43 38 34 34 42 42 41 39 39 37 36 37 40 42 42 41 49 53 56 54 63 68 64 62 61
38 56 69 81 91 97 87 80 83 67 65 59 55 45 48 59 58 57 61 61 59 55 52 42 37 39 40 52 67 51 53 54 48 54 50 45 50 59 50 51 58 64 68 65 67 68 66 64 58
62 73 86 90 93 94 95 85 85 67 59 59 58 52 43 51 54 57 56 58 56 55 47 38 37 46 54 53 61 63 64 72 69 62 61 62 58 57 64 63 63 68 71 74 73 69 62 62 50
75 79 88 97 97 88 92 84 70 64 63 64 51 41 44 53 55 57 59 60 69 55 39 41 45 52 64 56 57 61 63 65 73 68 61 71 62 61 67 69 67 66 69 74 71 68 61 55 47
79 87 98 95 96 90 95 76 73 65 69 66 48 41 48 56 54 61 64 59 56 54 41 46 49 55 58 58 59 61 58 65 62 66 59 55 55 50 56 65 65 65 72 68 64 58 55 52 51
83 92 92 91 88 90 85 79 76 79 65 65 49 40 46 49 54 64 64 67 61 58 50 53 55 58 55 58 56 57 59 56 57 52 49 46 49 49 56 60 66 75 76 70 64 58 49 46 44
85 93 87 83 88 92 86 80 76 72 70 62 55 42 46 52 55 64 62 64 61 58 51 55 58 55 54 53 50 51 50 48 45 45 46 47 43 47 58 64 67 77 73 68 58 45 40 39 38
83 90 89 80 84 89 84 88 80 82 68 67 58 43 42 48 55 63 66 88 62 58 54 60 56 54 52 51 47 44 43 40 44 44 46 42 39 42 54 60 69 73 72 66 59 42 35 38 37
84 86 84 84 79 86 86 85 87 75 75 72 63 46 43 44 53 69 56 73 69 62 63 60 61 65 55 44 44 47 48 54 54 58 65 59 48 50 58 59 66 69 67 66 71 59 49 52 48
92 82 84 76 78 81 81 83 86 77 72 70 62 51 44 48 53 56 62 57 64 60 66 86 54 52 51 52 52 56 52 46 53 71 57 61 51 48 53 57 59 61 61 62 65 63 53 63 58
85 76 77 77 78 81 79 80 82 76 77 70 60 53 46 47 54 46 50 57 58 62 58 57 51 56 64 61 64 71 50 43 59 56 55 48 46 48 51 53 58 62 59 62 80 57 53 63 57
84 71 72 74 75 78 77 82 81 80 81 73 65 59 49 46 47 52 51 60 55 66 60 51 46 75 53 50 61 56 54 50 47 50 71 55 57 67 71 62 79 67 64 50 56 56 57 57 53
80 68 69 72 74 76 76 78 80 82 95 74 71 62 51 46 44 56 54 56 57 52 51 49 45 59 57 55 60 52 57 53 46 60 54 61 66 78 60 52 62 69 60 60 59 70 70 52 59
72 64 63 68 76 74 73 88 83 88 75 77 72 62 52 49 45 54 53 51 51 51 61 49 45 46 47 50 52 58 59 51 50 55 63 56 65 71 93 71 80 66 62 54 55 46 54 54 48
68 71 61 65 72 71 75 81 83 85 87 81 70 63 55 52 45 46 49 51 46 55 48 44 40 47 45 42 62 63 54 68 52 41 53 63 65 63 72 69 68 59 52 53 65 49 52 60 53
64 64 60 62 62 64 70 89 85 85 84 78 72 64 55 52 48 47 44 47 42 55 48 41 43 42 48 51 61 73 68 68 60 50 43 50 51 58 58 48 54 66 76 60 66 55 51 55 52
58 56 54 58 56 61 63 93 90 80 78 77 73 66 57 53 50 50 44 39 42 48 40 51 43 41 53 54 63 73 68 67 72 57 60 51 43 51 55 52 52 48 76 59 56 55 51 55 51
47 48 61 54 58 63 69 66 71 77 75 76 76 70 63 55 54 50 45 41 39 45 38 49 44 41 43 38 63 61 75 66 67 60 65 60 57 47 54 50 49 66 45 44 62 64 55 50 65
44 41 56 59 64 59 58 70 70 77 80 80 78 76 68 61 54 51 49 46 42 39 39 43 41 39 42 32 52 55 52 62 66 63 60 58 57 57 51 43 42 61 46 54 46 49 49 48 45
44 47 54 54 62 87 59 84 81 76 80 83 82 81 72 67 59 56 50 49 46 40 38 37 36 37 41 42 42 53 60 50 56 64 56 63 57 52 60 61 51 57 54 36 44 55 47 44 40
35 42 50 51 61 61 71 74 75 77 79 87 86 87 78 68 63 62 54 51 47 44 41 35 34 35 38 43 45 43 50 50 57 64 58 56 58 49 70 47 54 57 44 35 38 49 40 37 47
29 39 58 58 61 57 55 71 85 80 69 81 87 85 80 71 66 69 70 57 49 44 40 38 33 33 38 47 41 40 50 49 46 53 64 61 56 51 42 44 51 50 59 59 35 47 44 37 40
31 44 51 43 44 33 43 46 77 87 84 71 75 85 86 79 73 73 68 60 54 42 34 36 31 30 36 36 44 48 45 59 73 62 65 64 57 57 48 44 45 42 48 54 46 38 44 42 44
30 41 43 46 38 36 43 46 79 77 82 89 74 77 82 87 76 79 69 63 61 47 37 31 29 28 31 33 45 49 54 71 72 71 75 62 60 55 54 49 47 42 46 46 30 31 34 46 42
35 37 40 45 41 36 29 37 69 70 66 82 75 85 90 98 88 80 74 76 61 51 40 31 31 31 29 34 41 45 49 58 60 64 84 66 67 57 61 48 46 42 40 44 42 34 30 31 35
31 32 37 42 37 34 28 36 66 64 63 72 73 83 81 79 75 70 69 83 67 55 43 32 32 31 31 35 36 37 34 38 46 55 59 61 77 81 66 63 46 47 47 40 40 39 33 35 33
37 31 38 35 31 29 36 60 73 69 66 65 65 79 87 90 84 93 83 71 71 61 51 40 34 35 40 39 38 41 36 34 35 40 48 55 57 72 76 73 51 45 48 47 50 42 47 43 46
47 33 39 35 37 30 43 52 56 59 58 59 63 71 74 76 92 79 91 87 68 68 61 50 35 38 38 42 39 38 37 36 37 40 45 50 62 63 69 84 55 45 50 48 45 42 44 43 41
43 44 34 33 31 30 57 71 69 68 54 57 56 59 63 69 76 78 94 98 72 77 79 84 43 35 40 40 42 41 41 42 40 40 37 40 49 54 58 57 56 45 51 51 47 47 54 55 44
43 42 36 40 34 29 57 81 73 66 61 60 57 61 63 64 69 69 75 76 98 94 80 77 72 45 42 42 41 41 42 44 44 41 42 39 38 37 40 47 48 48 58 55 58 46 42 49 44

GFSSGP_prec_cthk_087.txt.gz
RH
44 49 62 75 90 93 93 88 81 78 74 65 57 56 65 61 61 67 63 61 59 57 58 54 41 37 34 35 39 40 38 37 36 36 38 38 39 38 40 46 53 59 57 61 62 60 56 56 55
39 53 67 77 92 96 90 83 85 83 71 58 47 48 62 66 62 58 60 60 55 51 48 39 34 35 48 58 44 43 44 40 44 49 42 45 51 46 47 56 64 66 67 66 65 62 58 57 58
50 69 79 89 97 98 92 86 80 80 65 52 47 43 55 60 63 55 57 57 50 43 38 34 41 44 51 53 55 58 61 57 55 56 56 54 52 59 59 59 64 68 70 69 64 58 53 49 53
73 77 85 93 93 91 88 81 81 70 56 47 37 39 52 57 50 51 53 51 45 37 35 41 51 54 52 52 56 57 58 66 63 57 63 60 56 59 63 63 64 67 70 64 58 55 48 47 46
78 89 96 98 91 95 90 84 72 66 58 49 36 52 54 53 50 52 51 53 39 37 41 47 54 55 53 52 55 54 55 59 61 57 54 52 49 53 61 62 66 65 60 56 53 53 49 49 48
85 96 96 93 93 92 88 79 67 79 62 50 41 48 53 54 53 56 55 50 45 41 48 51 54 53 53 51 51 52 51 53 51 45 44 46 48 53 59 65 70 66 58 57 51 45 40 39 43
88 96 88 85 92 92 89 86 74 66 60 54 41 42 52 60 58 59 60 56 51 46 50 51 50 49 47 45 46 44 43 43 44 43 42 43 49 55 61 70 72 65 54 43 39 36 34 38 43
86 95 96 84 91 91 84 80 81 66 63 58 43 42 53 55 68 59 56 53 51 46 53 50 49 47 45 42 39 39 38 41 47 43 40 40 48 55 61 67 67 62 57 42 34 36 42 43 46
85 90 94 85 85 89 83 84 81 76 70 69 51 46 46 48 57 73 80 61 55 57 58 57 54 46 39 39 40 44 51 57 64 56 48 40 45 52 58 61 62 66 68 62 51 44 45 45 47
91 90 94 75 75 79 79 82 82 77 81 63 54 49 50 51 55 58 72 76 58 60 57 53 50 42 42 44 49 45 47 56 58 57 49 47 50 50 57 59 62 64 64 58 60 61 55 49 47
86 87 79 77 78 81 80 84 80 76 69 64 53 44 46 49 59 56 56 60 57 57 61 47 49 52 56 53 51 40 44 55 59 50 48 48 48 51 52 53 55 60 58 56 56 59 55 55 51
87 82 80 76 76 80 78 81 82 78 77 70 58 51 47 47 47 52 52 51 59 56 50 46 51 51 55 54 54 43 44 43 56 56 53 50 49 53 62 74 58 70 57 57 49 48 48 52 51
73 74 79 73 74 77 78 79 80 82 85 69 63 54 51 51 46 50 51 51 53 67 48 46 66 55 50 52 47 45 40 41 46 50 52 61 81 63 69 64 59 63 67 54 64 51 53 57 50
72 69 72 69 72 76 76 80 82 87 79 76 67 56 54 52 54 61 49 54 53 54 47 47 44 52 52 52 53 51 48 44 51 50 55 61 70 74 63 68 64 60 63 55 54 53 50 49 47
70 70 65 66 73 77 76 85 86 82 81 76 70 60 52 48 59 64 55 58 49 44 49 44 41 46 48 50 54 50 49 48 44 58 53 62 60 62 61 61 58 57 66 58 59 54 55 53 47
62 73 72 63 69 73 69 97 92 81 82 80 73 63 55 57 54 60 50 47 47 38 43 41 36 47 44 55 59 62 59 57 52 42 51 49 50 60 48 62 62 68 65 65 59 54 55 50 45
57 64 62 59 65 63 68 83 88 89 88 82 76 70 59 56 52 49 47 48 45 47 43 40 35 41 44 48 67 68 71 63 56 50 46 48 49 53 47 58 53 68 55 56 54 52 60 52 43
56 59 64 71 68 68 68 66 65 73 84 80 78 72 66 61 54 51 44 40 39 48 42 38 38 34 47 48 57 60 71 61 61 60 63 56 50 50 50 44 56 52 45 55 60 57 52 59 42
43 53 56 65 79 78 84 74 74 71 76 79 78 75 72 66 57 53 48 43 37 42 43 49 39 35 37 46 49 54 71 58 62 69 62 64 58 52 57 46 52 48 54 48 48 51 47 51 42
39 54 65 72 84 81 75 88 80 75 74 75 78 77 77 71 59 54 45 43 41 37 41 41 39 35 36 36 48 48 48 53 57 60 55 60 57 57 57 45 47 58 36 36 49 47 41 39 36
35 46 54 63 74 76 75 94 86 80 74 77 83 80 80 76 65 56 49 43 44 40 33 36 36 36 34 40 46 50 53 51 58 57 62 55 57 53 60 50 58 56 34 37 48 50 43 39 45
32 37 45 62 64 72 72 80 73 81 76 77 81 82 81 83 72 62 55 48 41 42 38 32 34 36 38 43 47 48 48 48 54 59 60 54 53 48 45 51 52 46 50 34 40 40 37 42 43
27 39 48 55 57 64 68 71 74 79 82 79 75 79 86 82 81 66 60 52 45 43 41 36 30 34 35 41 41 46 54 56 59 60 76 61 54 52 45 41 46 54 55 52 33 41 38 40 40
31 35 46 53 60 73 54 63 77 74 75 83 79 77 87 87 86 73 68 63 54 47 42 37 32 30 34 39 38 43 50 62 71 61 75 69 60 54 50 47 46 43 60 41 36 41 40 39 42
24 34 53 63 62 51 40 62 76 74 76 77 72 72 81 86 84 81 74 76 64 52 43 42 30 28 30 39 36 47 48 63 65 66 67 65 67 53 52 49 45 43 42 35 36 28 33 39 39
20 37 54 59 61 46 37 68 77 71 72 68 62 61 76 85 84 83 81 86 69 60 47 44 29 23 25 30 35 46 49 61 61 61 63 64 65 62 54 55 49 44 40 38 40 35 29 33 32
23 39 41 44 42 39 65 69 71 68 72 66 68 66 65 72 78 86 75 74 79 72 55 50 34 24 26 26 33 40 41 46 50 55 55 59 62 64 68 69 52 42 44 41 41 40 39 39 37
29 36 41 43 47 46 72 72 77 72 76 78 72 66 65 71 77 76 78 80 94 74 67 59 48 30 28 33 34 38 40 36 38 48 48 50 50 49 75 71 48 42 43 42 44 44 42 46 41
34 39 40 39 45 47 72 79 79 75 73 74 72 69 70 70 75 80 80 81 93 95 74 63 60 45 34 42 46 43 39 42 39 39 43 46 48 52 54 63 64 48 49 44 46 45 50 50 46
38 38 38 45 46 48 63 89 87 86 81 72 74 74 76 67 64 77 93 90 91 91 97 83 86 61 58 43 38 39 42 40 40 41 39 39 42 43 42 48 50 53 50 51 53 52 45 45 50

GFSSGP_prec_cthk_090.txt.gz
RH
46 48 58 76 89 89 88 94 86 80 65 78 55 60 61 59 60 59 51 50 53 57 55 46 43 44 42 44 46 44 42 40 43 44 37 40 40 40 48 55 60 64 64 60 58 57 57 54 55
46 53 64 76 90 92 87 87 80 79 65 57 63 66 67 62 61 55 50 51 54 53 47 40 36 35 41 43 38 38 37 38 40 39 43 49 49 55 62 67 68 71 67 65 63 60 60 56 57
44 64 79 94 97 92 88 87 86 73 68 61 61 77 67 69 57 53 49 50 50 46 38 35 42 54 52 52 53 52 47 49 50 49 49 50 59 60 64 64 68 68 66 64 58 57 50 51 56
75 82 90 97 94 91 86 83 82 68 62 60 53 58 62 62 54 50 48 46 41 35 36 43 50 53 54 55 59 60 65 61 55 58 57 57 60 61 64 67 64 65 59 58 56 48 47 51 66
83 92 92 98 95 90 87 88 72 66 54 45 40 52 57 59 53 48 45 39 36 37 46 51 52 52 51 53 55 58 60 63 58 54 55 53 59 64 65 64 61 59 55 54 51 49 48 58 63
92 93 96 94 94 94 92 82 69 65 54 44 39 44 52 52 49 48 39 36 39 42 47 51 50 51 50 50 53 52 53 50 45 45 45 47 57 65 62 62 57 55 53 48 44 43 42 57 56
94 97 92 91 92 98 91 75 75 74 50 41 37 45 54 55 53 52 46 45 47 47 48 49 47 46 45 47 47 45 42 42 41 41 44 49 58 62 68 63 55 48 44 40 37 39 43 49 53
90 97 85 86 91 92 82 72 66 60 55 43 37 46 54 57 56 56 54 48 46 48 47 47 46 44 42 40 39 40 41 39 40 39 43 51 56 65 68 61 51 42 37 34 39 43 50 61 72
89 98 90 88 89 95 84 75 70 67 57 46 39 45 51 61 67 61 53 47 49 54 50 47 42 40 40 39 39 43 49 47 40 35 39 49 53 61 62 61 53 55 48 42 45 45 47 58 68
90 88 91 83 77 85 82 79 76 72 69 53 46 54 54 56 70 68 57 52 54 57 55 52 41 39 44 40 43 51 52 50 42 38 40 46 50 54 56 58 62 57 57 55 50 46 47 54 59
87 97 88 85 83 82 85 85 84 79 81 55 46 45 48 55 61 68 59 55 64 57 45 40 45 44 52 42 40 48 58 46 42 43 45 47 51 56 55 54 56 53 52 56 59 54 56 62 53
83 77 87 82 84 83 85 86 88 85 73 62 50 44 46 51 57 53 56 53 56 57 52 47 52 51 51 42 40 47 50 51 42 43 47 47 51 55 51 58 61 53 48 48 52 49 48 49 49
77 80 80 81 78 80 82 87 87 83 79 69 52 49 47 48 48 51 49 56 56 50 49 55 50 52 51 50 43 41 47 51 47 50 60 55 57 64 56 58 62 57 51 57 54 52 51 45 43
78 81 83 77 77 79 82 87 86 83 82 77 59 56 50 45 44 45 51 50 59 61 47 56 56 53 53 50 46 47 50 48 45 50 63 65 61 62 62 59 63 56 48 49 47 47 50 46 42
75 77 82 77 76 77 80 85 86 85 82 79 70 60 58 51 50 50 48 51 54 54 48 41 44 51 55 53 49 46 50 54 55 53 62 64 64 61 62 64 57 56 55 49 50 49 49 44 48
71 78 78 74 79 78 75 88 90 87 81 74 73 62 61 55 57 56 52 51 50 46 43 44 44 43 46 53 51 52 50 51 58 52 55 53 55 57 64 59 59 61 61 52 53 49 47 44 45
53 74 75 79 74 75 78 79 88 86 88 83 76 61 62 55 48 56 56 49 47 44 41 41 44 43 51 58 57 60 61 50 47 49 57 52 57 51 55 56 59 58 53 50 48 54 47 45 45
53 66 73 72 78 79 82 74 74 76 84 83 76 65 65 63 56 50 47 47 46 44 44 39 38 46 51 56 69 66 67 61 60 59 50 46 51 51 44 45 44 49 53 57 54 51 50 37 38
48 50 57 75 82 91 89 78 84 86 91 92 80 71 71 64 56 52 54 47 44 41 41 39 35 39 47 52 61 64 73 64 63 63 70 63 49 55 54 57 57 43 49 56 57 49 50 39 42
46 53 67 80 85 84 95 90 80 86 88 82 79 77 73 73 65 56 53 48 43 40 36 39 38 32 44 48 57 57 63 58 60 59 55 55 58 53 49 44 49 49 50 45 48 48 42 41 39
46 49 51 61 84 89 83 91 77 80 86 89 84 81 75 73 70 60 53 50 48 39 35 34 39 39 36 45 50 54 52 57 61 61 59 55 56 56 55 49 59 51 32 44 51 44 41 39 40
41 45 45 61 66 83 86 86 79 86 86 85 82 84 78 76 74 68 57 49 47 43 39 32 29 38 37 40 45 51 49 51 58 61 67 56 52 57 48 52 50 41 32 38 57 43 39 43 45
28 47 42 53 64 75 79 75 72 78 85 85 79 77 77 79 79 76 65 57 49 44 42 36 31 32 36 39 47 47 52 51 61 61 73 63 60 48 43 46 50 52 50 42 39 40 38 43 46
19 44 44 63 77 78 69 73 80 72 69 75 84 78 74 79 83 82 76 63 57 48 45 41 38 30 35 41 49 50 46 56 63 65 71 79 63 60 51 44 48 55 49 43 34 39 35 43 43
21 43 48 61 73 68 60 71 67 68 71 65 63 68 71 75 84 83 79 66 61 57 50 45 45 34 30 39 46 46 50 64 65 65 77 68 64 55 52 48 46 43 49 39 37 34 41 43 41
22 39 48 57 58 56 66 70 69 66 68 69 66 64 71 75 77 79 86 74 71 66 58 50 44 41 31 31 41 42 49 57 67 67 72 65 68 58 58 55 49 44 41 38 40 30 34 35 37
21 39 37 46 49 60 74 77 69 69 67 64 64 65 65 76 79 82 88 86 81 77 61 53 47 43 27 26 35 39 47 53 62 61 66 63 74 81 66 64 57 49 42 40 43 37 32 32 35
22 32 40 45 53 58 77 80 79 73 69 69 66 67 65 71 71 84 90 90 90 82 71 58 54 51 28 23 27 33 43 47 51 54 58 57 59 57 69 78 60 45 41 45 47 42 42 39 40
23 29 40 43 51 53 75 83 77 74 73 71 71 72 72 71 69 75 86 81 85 85 81 72 68 56 41 30 29 33 38 39 37 40 50 49 50 52 66 76 72 54 45 45 45 47 48 42 40
24 26 33 48 49 57 73 85 81 78 79 77 75 76 71 73 72 70 76 80 86 88 89 80 82 72 57 42 41 43 40 41 43 38 39 45 45 51 56 62 65 54 52 51 49 51 49 47 56

GFSSGP_prec_cthk_093.txt.gz
RH
49 51 60 82 88 87 88 85 72 63 58 54 60 64 59 55 53 52 43 49 57 62 65 68 65 61 57 55 55 52 54 55 48 45 45 44 43 50 57 60 69 66 58 56 56 51 49 49 52
47 50 62 80 88 92 88 80 80 61 59 53 61 59 60 58 61 47 46 50 55 54 50 49 49 47 51 46 43 40 38 45 46 45 50 48 51 57 62 67 68 63 61 60 58 56 60 60 57
48 60 77 90 93 92 88 81 82 64 60 56 64 63 67 64 55 47 46 48 51 49 44 41 41 50 48 46 48 44 45 47 50 52 53 61 60 67 64 66 63 63 63 58 56 52 55 62 60
64 80 91 95 92 86 89 81 71 59 63 60 61 66 68 64 51 47 46 48 50 45 39 44 56 57 59 61 64 64 61 54 59 60 63 64 68 65 67 65 64 62 57 55 48 50 63 69 60
87 96 99 99 92 91 89 81 74 60 56 57 62 63 61 56 49 47 46 47 43 40 46 55 55 58 56 58 62 64 67 59 61 60 63 62 66 65 63 62 58 56 53 51 54 58 66 67 62
92 90 96 96 93 89 89 79 70 62 60 55 53 54 60 53 48 46 44 41 39 46 48 49 52 51 53 54 55 57 60 57 53 52 51 65 65 60 58 57 56 52 51 44 51 57 58 61 58
94 91 96 93 90 92 93 75 69 60 53 41 42 47 55 50 46 41 38 40 40 46 49 48 49 50 50 53 51 51 47 45 48 48 51 64 61 63 60 54 49 46 41 39 41 51 54 54 58
88 92 91 90 92 92 80 71 77 59 45 37 43 48 50 49 46 40 43 46 46 49 50 48 47 46 49 51 48 44 44 44 47 49 53 59 68 65 54 47 43 39 37 41 46 58 71 64 63
91 93 90 90 98 91 81 72 66 64 48 39 43 44 49 52 50 46 46 48 50 49 50 48 47 45 44 45 45 45 44 43 42 49 56 68 71 62 52 51 45 43 41 46 48 55 71 70 70
86 91 89 90 89 84 81 76 70 67 53 41 46 52 54 58 50 45 45 51 54 51 49 45 46 43 42 47 52 53 46 39 38 47 51 61 59 57 58 59 57 56 54 54 56 56 66 65 63
81 86 85 85 82 82 82 80 75 72 59 41 41 53 57 65 62 52 51 55 52 53 52 42 45 42 41 50 56 56 49 40 39 46 51 55 56 62 69 65 55 54 62 58 54 56 56 53 47
82 77 89 85 85 86 85 84 80 75 71 45 41 46 53 66 68 55 55 60 59 46 43 45 46 47 40 41 50 54 46 45 47 49 55 60 61 63 63 62 60 53 56 55 51 57 53 45 41
81 81 89 91 87 84 88 87 85 83 75 59 43 45 51 61 62 62 57 56 54 49 48 47 48 50 43 44 47 54 45 45 52 58 59 65 61 58 60 65 57 52 55 53 51 47 42 40 37
78 82 84 88 90 89 87 92 88 88 77 66 48 48 52 56 56 57 54 58 52 48 53 51 49 50 45 43 44 49 43 47 54 63 58 61 69 68 63 64 54 54 55 50 47 47 42 38 37
74 82 85 84 87 87 91 91 95 87 82 77 61 52 50 48 53 50 48 52 57 47 50 52 52 49 46 45 47 50 46 47 56 67 69 62 60 65 63 60 56 52 52 46 44 44 43 40 39
72 80 85 84 80 80 86 94 90 84 85 82 68 57 54 49 52 51 53 51 54 48 44 39 45 50 53 51 46 50 52 52 52 61 61 60 61 61 62 61 60 57 51 49 49 45 44 41 38
61 81 82 83 81 80 78 83 88 87 86 84 75 65 58 52 63 62 56 51 50 45 43 41 41 42 54 53 54 51 50 57 51 53 55 59 52 55 58 60 57 58 52 48 48 45 42 41 39
55 73 81 80 81 83 87 79 77 77 90 85 82 70 61 59 50 52 57 54 49 47 44 43 42 44 51 55 59 63 60 54 51 52 50 52 56 53 52 59 63 55 52 50 53 48 41 40 37
47 54 64 77 84 90 91 87 80 83 84 89 83 72 68 62 52 53 54 50 48 49 44 42 40 43 47 56 68 68 62 62 64 66 63 48 56 51 46 44 54 53 57 54 50 52 41 38 40
52 53 76 85 86 90 92 92 90 91 88 89 84 79 72 70 65 57 52 48 47 43 42 40 37 37 45 50 57 60 69 62 65 61 61 62 53 48 53 59 50 47 50 56 53 53 47 42 40
53 55 67 75 79 85 85 89 84 86 93 89 89 83 77 75 73 60 55 47 46 46 40 34 39 34 39 44 51 55 56 58 61 63 58 54 57 53 48 48 49 47 44 46 48 47 44 41 41
49 54 48 64 70 73 73 83 78 77 84 92 91 84 78 75 76 67 62 50 48 47 42 37 36 39 36 41 46 51 49 54 64 67 64 61 57 60 56 58 53 52 36 48 51 49 43 43 42
47 59 48 54 63 68 73 84 72 78 84 93 95 83 83 76 74 74 66 55 53 54 46 40 36 34 38 40 41 45 52 51 58 64 71 67 54 55 54 59 52 50 42 40 54 49 42 44 51
46 50 56 63 67 71 73 81 72 75 72 82 81 76 75 74 76 81 76 67 61 55 50 46 39 35 34 36 42 44 44 54 61 66 75 71 59 51 46 52 58 60 52 50 38 44 40 47 50
31 44 53 76 78 68 66 78 68 68 67 68 70 71 73 75 75 84 85 80 70 60 52 48 46 42 34 33 39 46 46 51 63 67 78 74 66 56 51 50 46 48 54 45 37 38 43 43 45
22 35 47 64 71 62 68 68 63 70 70 72 70 76 83 81 78 84 89 88 82 66 59 52 50 47 39 32 34 44 47 52 70 64 75 70 70 60 52 53 50 45 46 40 37 35 39 43 42
22 27 33 45 51 50 67 69 65 68 69 72 68 70 75 79 82 81 90 87 86 75 69 61 55 49 45 34 33 39 44 49 63 66 67 71 69 67 64 60 60 61 49 42 48 38 33 37 39
24 25 35 43 57 52 63 71 67 71 70 69 68 72 74 76 80 82 88 89 85 80 73 72 60 49 55 40 32 35 40 46 54 60 64 66 72 81 73 71 71 58 48 48 49 45 44 40 39
27 29 36 43 46 52 59 65 70 69 72 72 70 71 74 74 80 76 81 90 90 90 85 79 65 57 53 41 32 30 36 42 53 50 56 58 62 62 59 76 75 60 50 44 49 50 50 46 47
28 28 33 45 46 57 55 69 67 71 72 72 75 72 73 69 71 74 78 92 94 90 94 92 90 68 60 50 36 31 30 42 51 50 43 48 51 55 57 69 83 74 57 53 53 49 52 51 47

GFSSGP_prec_cthk_096.txt.gz
RH
51 48 65 86 87 82 80 71 61 54 53 54 54 54 49 55 53 46 41 45 50 56 63 63 64 64 63 59 54 56 54 53 52 52 47 52 60 60 65 76 76 60 58 59 51 48 49 49 50
50 47 61 83 88 85 82 67 68 57 53 51 60 58 61 59 59 41 45 49 55 59 60 60 59 56 51 49 47 47 54 50 46 48 49 49 59 64 75 77 69 64 65 61 58 59 58 55 50
48 52 68 83 92 89 84 75 60 55 53 57 64 60 62 63 49 45 48 53 54 53 53 50 47 49 44 43 41 41 45 54 49 63 63 61 66 67 68 72 69 66 65 59 59 63 64 57 56
56 72 88 91 91 85 80 72 61 55 55 63 64 67 67 63 48 47 50 50 50 46 44 46 53 56 60 62 56 58 54 60 57 62 63 69 68 65 62 64 67 60 57 50 59 67 63 53 49
80 90 96 96 88 87 83 76 56 60 58 56 59 70 67 55 50 49 50 50 50 42 46 57 63 63 65 71 72 69 60 64 63 65 69 70 66 61 65 63 58 56 51 53 61 68 64 59 57
91 93 97 98 89 87 83 74 59 54 57 58 58 60 63 54 49 49 48 48 44 42 55 58 63 60 65 66 68 74 66 62 63 60 68 66 62 63 57 56 56 48 48 53 60 61 61 61 58
96 97 97 94 91 95 84 70 60 54 55 53 53 58 59 53 49 46 44 40 41 46 48 52 57 60 60 63 59 58 57 59 54 55 69 64 66 65 56 51 47 40 39 49 59 54 63 64 55
91 93 92 90 90 94 81 72 60 53 46 46 48 55 56 49 45 41 40 39 43 47 48 50 54 54 59 58 58 53 50 55 58 61 69 68 75 63 49 42 38 37 39 52 65 66 59 74 60
90 95 93 89 92 84 75 74 60 51 41 44 48 50 49 44 39 38 40 41 45 48 49 47 46 49 51 51 52 52 44 57 56 63 70 74 60 51 50 42 38 41 45 54 65 73 68 67 64
88 91 90 86 83 81 74 71 66 54 48 44 45 51 47 42 37 42 44 44 45 46 48 44 44 46 46 44 44 43 44 43 53 59 69 63 54 55 53 57 51 53 53 57 64 67 67 62 55
86 89 92 89 85 84 79 77 72 55 46 39 43 49 50 45 43 46 47 48 45 44 45 44 38 43 47 49 48 44 37 39 49 55 62 60 66 73 62 57 59 60 53 54 58 60 56 51 42
84 83 91 90 87 87 84 78 77 59 45 38 44 48 54 52 44 47 46 46 43 47 44 43 39 36 46 52 49 46 40 42 49 57 59 65 68 64 60 58 55 58 57 62 57 54 44 42 41
84 84 86 91 85 89 87 83 81 79 55 44 46 50 55 59 51 52 53 54 46 41 43 42 42 37 40 50 48 44 46 49 53 58 62 62 63 63 63 60 59 57 57 54 50 45 41 39 37
81 85 85 87 88 92 92 87 85 85 65 52 45 49 55 61 54 52 51 52 48 45 44 44 46 44 42 49 45 43 48 57 61 58 63 64 64 63 64 59 56 54 54 52 48 46 41 39 35
81 82 88 91 93 93 95 96 91 90 75 61 44 49 51 54 56 54 57 54 49 52 48 49 47 45 42 45 44 44 49 56 67 63 60 66 67 63 62 60 52 51 48 50 48 45 42 39 35
79 83 86 90 94 96 96 98 96 90 87 78 60 50 48 50 51 55 55 57 54 47 50 47 47 46 44 48 49 46 46 54 66 65 64 64 64 64 62 58 57 52 49 51 49 47 42 38 35
70 87 83 87 84 90 91 93 94 93 88 84 67 55 53 53 53 54 57 56 55 48 44 41 47 52 51 47 49 53 54 51 57 58 58 57 61 59 60 61 62 54 50 49 48 45 45 40 35
58 71 80 83 87 86 84 84 90 89 90 85 82 64 58 53 62 59 58 59 52 48 47 43 43 51 57 55 53 52 58 52 51 52 55 59 54 55 58 62 58 54 50 50 52 45 41 39 35
54 57 72 89 88 91 91 91 84 82 84 83 82 68 62 58 59 58 56 60 51 46 43 43 40 49 53 54 60 61 57 57 62 54 47 53 53 45 48 53 54 55 54 52 49 46 38 36 36
51 64 85 88 89 90 96 96 90 85 84 87 90 79 67 62 53 51 53 52 51 47 43 41 39 42 49 59 67 69 62 61 62 65 66 59 50 54 58 58 55 49 55 57 52 50 41 38 36
50 56 82 78 82 84 82 88 91 86 87 91 91 85 74 63 58 54 51 50 49 46 44 36 35 37 42 50 56 58 66 63 65 60 59 57 60 48 49 58 47 48 53 52 54 49 44 38 40
52 60 59 73 73 72 70 76 82 83 86 88 90 86 81 74 67 59 54 52 48 49 45 37 37 36 38 38 45 49 52 61 64 63 63 56 58 58 52 52 53 55 41 42 44 42 39 38 41
49 53 65 65 65 65 68 70 69 74 78 85 87 84 83 80 79 67 58 54 52 51 47 44 36 40 38 36 37 45 48 49 58 67 68 61 59 62 55 61 53 44 38 45 49 47 42 43 45
42 49 63 71 70 69 63 66 69 73 67 75 82 85 82 81 80 73 69 64 53 56 49 47 40 38 36 39 38 42 53 50 59 67 71 65 57 54 57 57 56 55 51 44 43 49 43 44 49
36 44 65 81 78 75 64 70 64 68 66 67 73 71 76 81 82 79 79 70 62 63 50 49 46 41 35 35 39 41 44 49 63 68 78 74 63 55 52 54 58 55 50 49 43 42 42 41 48
28 39 55 70 81 70 69 66 61 70 68 68 73 73 76 80 78 81 82 80 75 75 60 52 48 47 43 36 33 40 45 47 58 69 77 75 68 58 54 50 49 48 50 47 41 38 38 40 45
24 31 42 55 60 66 70 57 65 71 70 68 70 73 78 79 77 81 86 84 85 86 78 59 50 50 49 44 37 38 43 46 62 68 71 76 68 64 55 55 55 57 52 42 39 35 35 41 41
26 26 35 45 54 56 60 65 62 72 71 71 71 68 72 74 78 79 84 85 84 87 79 74 66 56 50 52 42 39 41 46 52 61 64 74 71 74 73 65 63 66 57 49 47 43 40 36 37
30 30 33 35 46 50 60 57 59 67 69 70 70 71 71 72 70 72 72 83 86 91 87 74 74 66 56 50 46 38 39 43 50 55 61 64 68 77 79 74 81 71 56 46 47 49 49 46 44
33 31 33 37 38 47 45 47 55 62 67 70 72 75 75 77 74 75 74 79 85 94 92 81 88 84 65 56 50 38 37 38 44 52 57 54 60 64 70 68 67 77 63 53 47 52 52 56 51

GFSSGP_prec_cthk_099.txt.gz
RH
48 47 74 85 79 68 65 60 58 52 54 54 47 44 47 52 49 44 45 51 60 63 65 68 68 71 63 61 61 58 59 59 55 49 53 61 60 67 73 70 58 55 51 50 49 52 51 52 52
48 46 69 80 76 67 64 60 55 50 52 50 50 48 56 61 52 43 46 49 57 60 65 75 73 65 57 51 56 65 54 54 50 49 50 61 64 74 77 68 64 62 55 55 58 57 54 47 42
46 49 71 78 82 75 66 63 56 56 52 53 59 58 61 57 43 47 48 53 62 64 65 63 55 49 49 46 43 49 56 49 65 60 60 67 73 76 74 68 66 63 62 64 62 60 65 58 50
54 70 82 88 85 76 71 61 55 53 53 65 62 65 64 49 48 48 53 56 56 55 53 47 48 47 64 56 52 52 62 58 70 68 73 73 72 70 73 69 64 58 51 64 65 57 53 48 47
67 78 89 90 83 76 72 59 55 54 56 64 67 70 62 51 50 52 51 50 47 46 49 56 66 68 69 74 68 59 65 63 62 73 70 63 70 79 76 59 57 50 55 65 68 60 60 53 46
88 92 96 95 84 81 73 64 57 57 57 58 62 64 61 54 51 51 50 48 44 45 55 61 61 64 68 75 74 62 67 64 65 73 69 69 67 58 66 57 49 50 56 60 59 60 60 58 50
89 95 94 93 85 86 72 59 57 56 59 57 57 58 63 55 51 49 47 45 41 50 54 57 58 60 62 63 72 70 62 56 62 67 73 72 62 61 60 52 41 42 52 58 58 62 60 55 50
90 91 93 89 85 82 69 58 53 54 56 56 57 56 58 53 50 46 44 41 43 46 51 54 55 57 60 59 56 53 56 54 63 70 71 73 61 54 51 42 38 42 62 65 59 70 64 54 50
89 93 90 86 86 79 72 59 51 47 48 52 51 52 51 48 46 43 41 45 47 47 47 49 49 52 57 54 52 53 53 58 66 68 74 69 59 51 47 37 42 48 60 66 65 66 66 60 57
86 86 88 88 87 79 69 59 49 44 45 50 53 53 49 46 42 42 41 45 51 46 45 46 48 47 46 47 46 43 52 52 59 66 62 52 50 50 53 53 54 56 61 67 66 65 61 55 49
83 86 87 86 79 75 70 63 53 47 42 45 50 48 45 43 45 45 46 45 48 45 42 43 44 43 42 43 41 40 41 51 57 66 60 63 61 58 57 59 59 52 56 63 63 58 51 45 44
84 85 86 86 86 78 74 69 53 40 40 44 50 44 42 43 45 46 48 46 44 45 40 37 41 44 48 49 42 37 41 51 59 63 61 65 60 55 55 51 57 58 59 57 54 47 44 40 40
84 85 86 86 86 85 81 76 60 44 41 46 51 50 45 45 46 47 47 41 46 47 42 36 35 44 51 47 43 42 46 53 59 60 63 63 60 61 57 52 54 55 53 49 46 42 40 37 33
84 86 89 86 87 89 87 80 69 60 43 47 51 54 54 53 49 50 51 43 43 44 41 41 39 41 52 43 45 49 53 54 59 64 62 59 61 63 61 54 53 50 49 46 44 42 41 37 34
84 86 87 88 92 93 92 87 86 74 50 49 53 56 57 58 52 50 51 47 44 43 43 46 45 44 47 42 46 51 60 63 61 60 61 62 60 60 53 51 46 46 48 44 43 40 40 36 39
81 80 83 91 92 97 95 95 92 80 64 52 53 54 61 61 53 54 48 47 47 44 46 45 45 43 44 44 45 50 58 66 62 61 62 62 62 59 56 51 48 47 44 46 43 40 37 34 43
75 77 80 91 88 98 93 98 93 88 75 65 55 53 56 57 55 53 53 50 48 48 45 45 45 45 47 49 47 47 54 62 62 61 62 62 58 56 56 54 54 48 48 47 42 40 35 32 41
69 77 79 88 96 95 88 89 92 89 86 80 60 55 55 51 51 52 52 52 50 45 41 47 49 47 48 48 50 54 55 56 56 56 55 50 56 55 57 55 52 50 47 48 44 40 37 31 36
58 67 79 89 93 94 93 86 94 88 91 87 75 61 59 51 53 52 54 51 46 46 44 41 47 54 54 51 55 56 59 53 54 52 55 54 51 52 63 59 53 51 50 48 48 44 35 33 34
56 63 78 89 90 88 95 95 88 85 85 88 83 71 64 63 66 59 52 51 46 43 43 41 46 50 53 56 63 59 59 58 60 61 58 53 52 49 48 49 50 56 54 50 49 45 38 35 34
50 56 71 78 86 86 82 90 95 88 88 89 85 78 67 64 58 59 51 50 48 45 42 41 40 47 52 59 68 68 62 61 61 61 62 64 52 48 56 60 48 46 50 54 52 46 41 36 34
51 53 69 68 68 72 73 75 81 82 86 89 90 88 77 59 55 53 51 48 45 46 43 38 39 41 46 52 57 60 64 65 65 64 66 60 57 53 51 51 50 51 44 47 48 43 40 37 37
52 56 60 62 67 64 67 67 67 76 83 87 88 81 81 67 54 53 53 49 49 48 45 40 37 36 39 41 49 54 52 60 66 65 66 64 57 60 57 59 48 49 43 39 44 44 39 38 39
57 59 64 65 65 64 55 54 61 68 66 75 85 86 84 79 67 60 59 54 50 51 48 43 34 37 39 38 40 45 50 50 58 68 69 61 57 60 51 56 54 48 44 40 45 47 41 40 39
47 54 66 69 69 60 61 57 51 58 59 63 70 75 81 81 76 70 66 51 52 49 47 46 40 33 36 39 41 41 51 50 61 68 68 65 63 57 54 57 54 54 52 47 42 42 41 35 40
38 46 51 64 62 53 64 55 51 56 62 63 65 74 82 82 80 75 70 71 56 52 51 48 44 41 37 35 41 42 46 48 57 67 74 75 69 61 54 52 55 49 46 49 42 41 39 38 37
24 32 41 52 52 57 59 56 49 63 64 63 67 74 77 79 78 76 73 69 69 65 70 52 47 47 47 43 42 41 47 47 58 66 72 77 71 62 53 53 55 60 54 46 37 37 35 35 37
26 24 27 39 52 52 53 57 43 56 64 63 67 68 71 75 78 79 77 75 79 81 79 76 55 51 51 51 48 44 45 46 51 66 68 74 72 69 61 60 59 63 61 55 50 42 37 35 35
28 28 27 29 38 38 42 45 50 54 65 63 63 69 69 73 78 79 80 83 85 88 88 86 82 64 61 53 52 51 44 45 47 60 63 64 73 72 76 71 68 69 66 56 50 49 44 46 41
32 29 28 27 33 36 36 34 56 58 62 68 65 65 70 71 72 75 74 78 87 90 91 91 88 76 69 60 54 54 55 45 44 48 60 62 64 71 77 77 72 77 76 58 46 47 50 52 52

GFSSGP_prec_cthk_102.txt.gz
RH
43 65 80 80 71 59 54 59 53 51 47 45 42 42 49 55 52 54 56 61 68 75 74 69 69 67 62 58 56 58 57 52 50 56 62 62 70 76 65 59 53 54 52 53 52 54 57 53 40
45 60 77 76 65 51 55 52 50 51 46 44 45 48 57 57 49 46 55 63 65 68 74 74 71 63 57 61 61 56 55 49 47 50 58 62 74 75 66 62 55 55 60 64 56 49 44 43 45
46 54 81 77 69 58 59 53 49 49 46 47 51 52 56 48 48 51 54 61 65 69 74 67 57 50 48 47 50 49 49 59 55 57 66 70 75 72 67 65 61 64 67 64 63 65 54 50 47
55 66 78 81 71 66 57 52 52 46 46 59 58 58 50 48 53 55 57 65 68 70 70 50 46 47 48 42 48 53 57 66 67 68 71 71 73 70 65 64 59 57 67 61 55 52 49 48 47
69 76 86 83 74 68 60 55 50 48 59 62 67 62 48 54 51 57 61 61 61 61 55 54 55 67 60 58 56 61 60 67 70 70 71 73 69 68 63 61 53 58 67 62 60 54 48 48 46
86 84 93 76 69 66 58 55 52 53 62 64 64 58 54 53 57 58 57 56 56 61 67 71 66 69 74 64 59 68 63 69 76 73 75 72 66 64 51 49 52 58 58 58 59 59 54 50 49
88 91 87 76 71 67 61 54 54 57 58 60 60 54 58 57 58 54 55 51 57 66 69 69 67 65 71 78 66 66 66 68 78 72 68 68 56 58 50 39 44 53 56 58 60 59 54 49 49
89 94 88 78 73 68 63 60 61 60 59 57 58 57 55 55 54 54 52 49 61 63 64 68 70 67 66 70 68 62 58 67 68 72 66 59 55 49 41 38 47 61 61 61 63 60 52 47 45
88 94 88 76 72 64 58 54 55 56 57 55 58 54 54 49 51 51 48 51 54 60 65 66 65 63 61 62 54 56 57 66 70 71 76 72 61 50 47 40 49 60 67 60 66 63 56 52 43
84 87 85 77 74 67 59 53 49 51 52 52 53 55 54 49 47 46 50 51 55 58 59 58 61 61 58 57 59 57 62 71 71 72 62 60 61 61 55 54 58 63 67 64 64 59 55 54 52
80 84 81 83 78 70 62 53 51 50 51 51 49 50 50 46 44 46 49 54 53 56 57 55 52 51 54 52 53 56 59 67 72 67 69 64 64 62 64 56 60 64 67 67 63 55 52 48 52
83 82 85 84 80 70 66 57 50 45 47 51 51 49 45 46 47 47 51 55 52 49 53 54 50 52 51 50 51 53 60 66 68 59 62 60 60 57 60 60 60 64 62 53 48 49 43 44 43
80 82 87 83 84 75 69 57 49 42 46 51 51 46 42 49 49 48 50 53 53 48 46 47 50 54 53 51 50 52 58 68 64 64 64 63 63 57 56 58 57 54 52 49 43 40 39 37 40
79 84 84 90 88 79 73 60 47 43 48 52 48 45 44 46 48 48 45 51 55 49 43 40 47 52 48 47 48 53 62 66 65 64 61 62 67 60 59 55 53 49 47 44 41 38 39 40 45
84 89 87 87 90 87 81 73 54 43 47 50 52 47 47 50 52 52 46 48 49 48 47 42 43 50 44 47 52 60 60 64 66 63 57 60 59 54 54 49 49 49 41 40 40 39 37 45 51
86 85 87 87 90 94 88 80 75 52 45 51 58 55 57 53 55 58 50 51 49 49 48 46 46 48 44 48 54 62 63 66 66 63 64 61 57 53 53 51 48 44 45 45 43 43 42 50 54
87 84 86 92 97 97 92 92 90 70 50 53 57 59 58 60 56 53 51 53 48 50 47 50 47 47 46 46 52 58 60 65 63 62 62 58 57 55 55 54 49 47 48 47 45 39 41 50 54
66 77 83 83 95 93 98 95 93 78 58 53 56 59 62 63 58 58 55 55 50 50 48 50 49 49 50 48 49 54 58 62 60 60 59 55 55 55 54 54 48 47 50 46 42 36 35 42 49
61 70 90 97 95 87 88 92 88 84 78 66 54 55 59 60 60 58 60 56 50 45 48 51 51 52 52 53 54 59 58 58 56 57 51 48 57 60 57 56 50 49 50 45 41 39 33 41 41
64 72 92 95 95 89 97 96 90 85 85 84 67 56 54 55 58 58 57 55 51 46 44 46 56 53 54 61 62 63 60 61 60 56 52 53 49 49 54 50 49 53 52 42 42 38 41 38 34
53 62 74 85 86 85 82 91 97 89 89 86 82 69 59 53 53 54 53 53 50 46 44 42 51 57 54 63 63 59 59 59 60 63 64 55 52 56 57 53 48 48 54 52 46 41 37 44 34
50 57 67 73 74 75 73 84 87 91 93 87 81 82 66 57 59 58 55 54 50 49 46 42 48 51 54 58 70 71 63 65 65 63 63 58 59 49 51 50 45 45 50 50 49 44 41 40 43
52 52 60 66 63 62 66 66 62 73 84 86 82 79 72 61 57 60 53 53 55 51 45 43 42 49 53 52 60 66 66 66 64 65 64 61 62 59 55 55 46 50 44 35 41 40 37 39 42
48 63 59 54 54 56 55 56 67 68 65 76 81 84 80 74 56 52 55 56 58 55 49 44 39 37 40 43 52 57 55 59 66 67 70 64 63 62 57 61 55 49 39 38 42 48 44 44 36
57 56 66 71 52 59 56 54 54 58 58 65 71 74 81 78 69 54 57 58 56 54 50 46 37 36 38 38 41 48 59 59 59 68 74 70 62 64 58 59 54 56 50 43 41 47 48 42 43
37 48 68 62 64 50 58 56 55 50 55 57 68 72 75 81 76 71 63 56 53 51 51 46 41 36 39 39 40 45 53 61 62 66 75 75 70 61 54 57 57 54 52 47 41 40 42 41 37
33 44 48 59 51 50 52 47 48 48 54 58 65 67 76 79 85 78 73 64 55 52 52 47 46 42 38 37 41 48 52 57 61 66 75 82 77 71 58 53 51 54 48 45 40 36 36 35 36
26 28 38 45 49 49 49 49 51 51 58 64 63 65 73 81 86 85 80 74 69 59 57 57 53 49 48 44 41 43 50 51 53 64 72 78 81 77 60 52 52 58 65 57 48 43 34 34 37
23 22 25 31 36 37 42 43 48 48 53 64 65 67 72 75 77 83 81 79 78 75 68 68 67 58 53 50 48 46 49 52 53 60 69 71 77 77 66 71 53 56 64 63 52 48 48 42 42
33 24 26 25 30 33 39 43 51 49 53 64 67 70 73 74 79 80 83 78 78 82 78 85 82 76 69 55 50 53 59 54 54 53 63 69 70 74 73 80 77 71 72 76 61 52 51 49 52

GFSSGP_prec_cthk_105.txt.gz
RH
48 72 79 74 74 66 60 53 50 44 45 45 44 51 58 60 61 61 68 74 74 75 65 59 59 58 54 54 58 58 53 53 55 62 62 70 70 62 55 58 59 58 57 58 61 63 45 41 40
60 70 78 79 78 61 56 48 47 44 40 39 44 56 60 50 51 52 62 69 74 71 75 71 65 61 61 59 57 57 52 48 50 58 62 72 71 69 57 55 59 63 57 50 45 46 50 48 44
54 68 84 81 74 55 52 50 47 42 41 46 46 70 51 49 49 55 61 65 68 73 78 64 58 49 51 53 50 50 54 50 53 61 67 72 73 72 63 65 67 70 66 67 58 54 52 45 42
57 79 81 77 71 56 49 47 45 41 45 56 54 45 46 54 54 59 63 72 66 72 69 49 45 42 41 47 50 56 65 62 65 71 76 74 74 66 62 59 58 64 61 61 58 51 50 47 42
75 75 87 76 68 52 48 46 42 43 57 61 56 43 50 54 56 60 67 67 72 67 54 46 58 52 49 53 56 60 68 70 68 72 76 70 68 64 59 54 60 65 61 58 50 47 46 46 45
77 79 86 79 69 62 56 48 42 59 64 62 53 49 52 53 58 59 63 67 66 66 63 64 65 65 58 58 61 62 67 72 70 70 70 72 61 54 50 56 58 58 59 59 56 52 49 46 43
83 91 80 77 72 61 53 48 50 59 57 62 52 53 51 54 55 60 62 59 69 76 70 69 68 72 66 61 65 63 73 73 71 68 64 58 60 45 40 46 53 54 56 57 54 51 47 46 41
89 92 77 71 68 66 54 52 51 62 69 55 58 56 52 55 56 58 54 60 68 67 74 67 66 69 75 70 62 60 65 68 65 62 56 54 47 39 40 51 58 57 59 60 56 51 46 43 37
86 94 77 70 68 63 54 59 60 61 57 56 59 53 53 51 57 56 53 67 64 67 74 69 64 62 66 64 56 56 65 66 69 72 63 60 53 50 50 55 59 62 58 63 59 53 50 47 41
85 93 81 76 70 58 56 56 55 53 59 60 55 54 50 52 53 52 56 58 67 61 65 66 63 61 64 62 57 60 70 75 71 69 62 72 63 56 54 55 63 61 62 61 56 55 52 52 55
80 90 90 80 70 57 53 53 52 54 54 52 52 53 49 51 52 52 55 58 62 61 58 59 59 65 64 59 62 68 77 75 74 69 66 58 59 59 55 57 65 65 71 62 51 59 59 55 68
80 84 82 75 71 68 53 52 55 52 54 53 54 50 45 50 48 51 55 59 59 57 57 56 54 57 59 56 64 68 72 74 68 64 60 63 60 61 66 64 57 70 58 53 68 48 49 47 50
78 82 81 76 76 72 59 53 55 51 52 53 54 51 46 47 46 52 56 55 56 55 55 55 54 55 56 57 60 68 71 69 63 67 78 66 62 60 60 59 72 54 58 52 54 49 46 47 58
79 83 85 83 78 75 59 56 48 41 48 49 52 47 44 48 48 50 56 56 51 50 52 52 60 53 55 53 58 61 76 66 67 68 63 73 61 61 55 60 49 51 55 49 48 51 51 57 46
80 80 85 82 83 73 66 56 53 42 46 49 48 47 46 49 47 48 53 55 53 49 47 50 57 56 53 52 52 70 64 71 67 64 60 58 61 54 52 47 65 49 39 41 40 44 53 55 49
81 86 88 88 89 84 80 76 51 46 50 47 47 48 48 50 51 49 51 54 53 53 47 48 56 50 54 59 62 65 68 65 66 63 61 57 51 51 52 56 51 44 47 46 49 56 59 59 58
92 92 88 96 94 88 80 84 63 45 48 52 50 49 52 53 58 56 51 54 53 53 52 51 56 49 54 54 68 64 64 67 64 64 64 59 54 48 52 57 45 50 49 50 53 47 63 56 57
80 90 90 92 93 93 90 96 78 49 52 57 61 59 58 58 55 57 56 56 54 52 52 52 53 49 50 59 59 63 70 64 61 65 62 52 53 52 55 51 45 44 52 51 42 47 51 55 55
74 96 87 98 96 95 94 95 89 76 62 60 59 63 61 64 58 54 55 55 54 52 51 50 51 50 55 51 58 60 64 62 58 58 49 52 57 54 51 55 44 52 62 41 42 46 44 54 50
57 77 86 92 91 89 97 96 96 87 59 67 63 65 60 65 62 57 56 57 54 55 49 52 54 51 56 54 62 57 62 57 61 61 53 54 55 53 54 52 51 72 47 41 41 40 48 48 53
54 79 87 84 95 93 87 92 94 92 77 70 65 64 65 66 69 58 59 60 59 50 48 50 55 57 56 60 66 69 59 65 61 61 59 52 53 51 55 50 59 50 59 51 43 38 49 47 41
54 71 79 83 85 82 83 93 95 92 87 81 76 67 51 56 53 61 66 58 60 51 50 48 54 59 53 73 61 67 66 59 59 59 67 61 54 53 56 54 46 43 57 54 47 41 39 47 45
54 56 66 85 73 62 75 73 73 86 87 88 79 78 73 59 57 48 58 57 59 56 50 48 52 54 59 58 80 75 61 79 95 67 65 64 57 55 50 54 52 50 47 41 48 40 42 44 46
45 49 54 56 62 53 59 56 71 69 68 73 78 77 80 81 57 71 55 61 57 59 50 50 45 50 51 58 65 65 65 67 66 70 64 67 61 61 56 59 55 52 42 38 39 44 40 44 41
45 54 60 55 46 48 54 56 56 55 59 66 69 70 74 73 79 59 74 65 56 59 47 48 44 44 48 49 53 60 58 58 69 61 66 71 67 64 61 59 59 58 47 47 43 46 52 41 44
42 45 55 65 56 48 48 48 58 53 49 59 65 68 70 72 74 71 65 66 47 61 83 47 48 42 41 41 45 50 53 56 55 63 77 86 66 71 59 53 58 57 60 56 47 43 41 43 38
38 44 46 54 63 66 61 54 54 57 50 54 63 66 71 75 73 69 61 53 87 49 52 49 51 41 42 46 42 44 45 52 62 68 82 88 68 64 65 54 55 56 56 54 53 42 42 51 39
36 41 41 40 52 57 52 50 63 58 53 53 59 65 74 74 72 83 73 60 60 52 56 52 56 51 44 45 46 44 46 49 55 63 65 74 89 64 96 58 56 56 64 62 56 52 40 35 36
24 29 34 36 34 35 39 44 61 50 54 63 64 64 69 75 79 79 81 89 75 66 63 62 57 54 52 47 45 47 47 49 49 49 53 65 67 73 75 72 74 70 65 67 66 53 66 47 44
30 25 28 28 35 30 29 59 63 56 48 56 65 63 70 74 79 82 82 86 88 73 75 79 60 64 64 58 52 50 47 48 51 50 55 66 67 74 79 76 82 78 76 75 73 66 64 55 52

GFSSGP_prec_cthk_108.txt.gz
RH
62 72 72 79 90 79 54 55 49 48 49 50 55 55 56 59 64 66 70 77 73 65 59 57 52 48 50 53 57 58 55 55 60 64 68 61 55 57 57 56 55 55 59 65 53 43 42 43 43
68 71 78 83 82 59 52 49 49 45 42 46 55 59 53 54 56 59 70 73 71 64 65 60 61 57 56 58 57 54 50 51 58 65 71 69 64 57 57 60 56 52 47 44 50 50 46 40 42
59 72 86 89 86 65 47 47 46 40 40 54 70 59 47 54 57 60 64 74 71 76 68 62 55 54 54 51 49 53 49 53 61 68 68 70 67 64 62 67 68 65 60 57 53 50 44 42 43
68 80 88 90 77 54 45 46 43 42 57 50 45 49 50 56 56 57 61 75 67 74 60 52 45 43 45 49 54 61 58 61 66 71 71 68 63 59 58 60 66 62 60 57 52 50 44 42 40
76 78 80 89 66 50 46 45 41 57 54 53 43 48 53 57 58 59 70 63 68 68 46 44 46 43 47 54 60 66 64 67 72 72 67 65 59 53 57 60 63 59 54 51 46 46 45 42 40
72 73 82 83 60 46 45 43 49 51 64 63 47 45 52 58 55 58 62 63 62 54 49 60 54 54 55 57 61 65 68 68 67 69 67 59 51 48 55 53 55 55 55 50 48 45 42 40 37
83 83 79 78 78 66 46 44 65 61 61 52 50 46 52 54 57 80 67 65 72 65 63 66 67 56 59 62 61 72 68 70 66 60 56 51 42 41 45 50 50 52 53 49 44 43 41 39 37
90 90 83 83 77 51 45 52 72 55 59 53 52 50 53 53 67 61 61 68 79 72 63 65 70 69 60 62 63 68 66 62 57 49 47 41 37 40 49 53 51 53 53 50 44 43 39 37 36
87 88 94 72 62 52 48 55 60 61 65 57 55 53 46 53 58 52 62 61 64 62 70 60 64 74 68 61 57 64 64 64 58 50 55 51 42 46 53 53 54 57 61 54 48 51 51 49 49
91 89 81 69 65 53 51 50 50 59 60 76 56 53 50 53 54 48 67 60 64 61 68 65 58 65 63 56 55 65 65 61 55 73 78 52 49 47 50 57 55 65 63 64 63 51 50 51 55
81 97 93 83 74 56 57 70 51 56 54 65 51 48 50 51 51 54 59 53 58 60 61 66 59 60 60 57 60 75 70 64 54 71 65 48 49 54 65 64 65 87 62 62 69 57 85 56 55
77 95 85 90 68 62 48 47 56 60 58 51 53 47 49 51 48 50 56 67 51 55 60 56 65 55 64 59 69 69 67 63 59 51 51 58 58 72 91 67 66 72 55 60 58 47 45 69 57
88 86 81 83 66 56 51 45 69 60 57 47 51 49 46 49 49 59 56 59 50 51 55 54 54 59 56 63 68 62 62 67 62 60 69 69 65 48 52 44 55 59 83 62 55 49 45 50 47
80 84 80 78 74 74 64 45 52 56 66 48 51 51 50 48 48 55 60 54 52 51 51 50 47 49 53 57 63 70 60 67 70 67 95 58 61 49 64 45 89 58 50 47 58 51 57 48 41
76 82 81 84 81 87 77 53 49 45 54 49 50 50 50 48 49 51 57 49 51 47 46 51 49 46 52 50 58 64 58 62 63 60 59 59 53 48 70 55 41 30 45 39 51 61 55 52 53
75 81 82 79 85 92 68 63 51 45 51 49 50 48 51 50 50 53 53 52 45 45 40 46 52 52 46 50 59 58 59 58 62 58 56 59 43 38 40 51 38 32 35 47 48 57 65 61 56
78 95 91 87 87 85 70 76 54 50 52 50 48 49 49 53 52 51 54 59 50 44 39 54 48 48 52 54 55 69 59 55 56 53 53 45 38 41 48 35 37 48 58 43 58 49 51 60 60
86 90 90 96 90 88 86 82 66 51 51 52 48 50 53 55 54 53 51 54 50 47 44 55 49 47 46 64 63 59 64 58 58 54 58 43 41 42 51 46 40 43 56 67 46 57 50 65 64
76 79 88 98 96 90 93 93 81 66 49 55 54 53 57 58 54 55 56 54 48 48 48 48 49 45 46 50 56 61 57 56 54 57 54 51 48 45 45 45 52 74 54 32 32 45 49 51 60
72 79 97 93 93 94 98 94 91 84 65 65 55 61 59 64 55 50 55 51 51 47 46 45 50 47 47 52 53 57 61 52 52 50 48 58 53 49 50 51 56 57 42 30 32 43 51 49 51
81 77 88 90 94 91 94 97 97 89 86 58 63 72 73 60 73 64 49 50 48 47 44 43 49 45 46 59 65 55 66 53 52 55 49 50 50 44 65 48 52 47 41 33 30 41 48 44 50
82 81 76 72 85 87 81 92 92 91 84 82 61 56 59 59 61 58 55 65 50 45 37 42 50 46 54 58 56 79 65 67 65 60 59 55 48 53 50 40 41 50 67 51 33 36 49 47 42
71 70 71 71 84 77 85 81 88 90 88 75 72 62 68 72 77 70 62 52 70 50 40 36 40 48 52 80 64 62 60 61 64 71 78 62 51 48 48 48 39 43 51 50 43 37 36 48 45
59 70 72 69 80 92 78 73 76 80 66 64 60 51 56 78 83 76 68 72 60 48 46 34 35 47 52 56 71 80 76 72 83 79 73 70 59 54 52 59 49 45 41 50 34 35 34 38 43
57 65 68 71 92 72 57 72 63 56 57 56 60 56 61 60 71 66 65 58 54 68 57 39 33 39 44 50 56 72 73 73 76 79 89 84 61 67 59 56 55 50 41 46 33 38 42 37 34
40 47 51 60 58 79 80 66 61 52 48 50 54 63 71 76 78 86 64 67 70 59 78 54 38 32 40 41 46 51 65 60 58 66 62 77 72 68 67 57 54 53 59 47 44 37 40 40 34
45 41 45 59 62 59 73 64 70 56 52 50 52 57 65 69 68 69 78 72 84 71 54 65 48 36 32 38 40 41 46 50 54 60 61 65 90 77 79 52 52 54 54 51 49 40 45 41 64
42 44 38 38 55 64 61 65 85 67 57 52 56 57 60 63 69 76 78 73 80 69 51 74 85 40 32 35 34 34 34 40 47 56 65 73 80 85 91 61 49 47 60 56 48 47 44 35 30
25 33 38 36 36 41 62 69 81 62 68 59 61 63 66 63 65 71 77 74 75 72 58 55 72 53 38 31 35 35 35 35 36 45 52 53 68 72 68 67 64 62 59 67 58 57 63 62 38
28 25 34 34 35 36 37 55 60 54 67 69 65 68 71 61 67 73 73 78 96 74 60 52 42 60 48 39 42 37 39 39 38 37 44 45 54 59 70 73 69 69 64 65 67 67 63 61 47

GFSSGP_prec_cthk_111.txt.gz
RH
65 68 80 80 78 75 55 58 57 61 70 64 77 61 61 65 61 67 63 65 59 59 60 60 54 52 55 57 55 56 58 58 64 57 53 55 54 54 54 54 55 59 54 42 41 43 40 45 49
65 70 81 83 79 68 56 51 51 51 52 55 56 54 56 60 58 65 69 67 59 55 53 52 52 55 55 53 53 50 51 58 64 63 60 61 57 60 59 54 47 42 44 48 45 41 41 46 49
67 80 86 91 80 62 54 46 46 46 49 49 56 50 54 56 59 61 60 64 59 55 54 56 56 54 54 50 49 45 51 57 63 64 62 62 61 60 62 61 56 52 50 46 42 42 42 47 49
71 82 84 86 81 57 48 46 45 49 48 45 44 51 55 58 57 55 66 65 72 60 55 48 46 45 46 51 56 54 58 66 67 68 64 60 58 55 60 60 59 57 52 49 45 41 39 41 46
70 78 86 86 68 53 46 45 57 53 55 49 44 55 60 58 62 63 64 72 78 56 47 40 38 43 52 60 59 58 66 70 68 66 62 58 54 54 58 56 55 49 47 44 45 42 38 40 43
66 78 86 84 66 53 45 51 70 59 65 50 49 50 56 56 60 72 69 68 62 42 49 45 47 51 53 63 64 65 67 69 67 67 56 51 51 54 51 52 51 49 47 46 42 39 37 38 43
76 82 88 82 61 49 46 54 52 54 51 48 47 47 54 61 70 66 58 55 50 51 57 58 51 55 57 61 68 66 69 63 58 55 48 39 41 44 46 49 50 50 45 43 41 39 37 36 42
87 84 83 82 67 51 47 60 62 50 50 49 53 48 48 59 87 68 60 66 60 60 58 62 55 58 58 64 72 68 64 58 50 48 42 39 43 50 52 48 49 49 48 46 50 48 40 41 46
83 92 90 86 74 56 51 73 62 67 53 58 56 44 51 62 58 61 61 64 65 59 56 62 64 59 59 59 63 62 59 53 60 62 53 46 52 52 52 53 57 55 57 60 56 56 54 52 43
86 93 94 88 81 57 52 71 62 67 64 72 57 48 52 50 52 55 59 58 61 72 59 59 62 61 55 55 59 60 64 69 67 69 56 54 60 68 59 57 63 66 60 56 55 53 54 48 48
83 90 90 94 80 66 51 54 55 70 66 70 49 45 50 59 47 51 53 58 55 60 61 55 57 57 53 58 66 62 60 59 62 57 54 56 64 60 60 72 82 58 63 52 51 52 51 51 47
80 90 85 76 76 71 53 60 53 65 56 54 47 46 48 46 48 50 54 55 52 54 57 56 55 56 57 59 70 65 59 50 47 48 58 67 61 60 62 79 80 60 57 49 60 53 48 48 48
76 94 88 85 78 86 73 56 74 69 55 51 45 51 47 43 48 51 53 55 47 53 52 55 56 60 58 61 64 60 59 56 55 60 80 64 76 62 64 78 62 56 56 53 55 54 48 48 51
76 87 83 94 91 86 69 74 57 68 60 56 47 46 49 47 53 52 54 49 45 46 50 50 53 54 53 57 63 63 58 60 60 68 62 61 60 61 61 60 54 50 57 56 54 54 52 49 49
79 82 83 85 83 76 75 56 67 64 68 54 47 45 50 46 46 53 51 43 43 47 51 46 45 53 55 62 73 58 57 64 62 55 54 55 56 63 61 40 44 46 56 68 62 58 56 56 50
91 85 87 86 85 84 80 68 65 59 53 49 43 50 47 49 50 52 54 44 40 43 46 47 41 46 51 54 58 57 60 54 52 52 47 49 52 60 49 34 40 44 49 70 62 53 55 56 54
80 91 90 89 91 85 89 80 54 49 57 49 45 49 48 50 50 53 51 43 41 39 37 46 45 44 47 55 57 57 54 55 50 47 45 41 45 45 56 38 53 48 48 53 56 57 50 52 53
90 87 91 92 91 87 90 72 65 55 51 49 47 48 48 50 48 49 49 48 49 41 38 43 43 44 50 58 64 58 53 53 51 49 48 44 47 58 38 39 50 59 48 49 46 47 52 57 59
77 78 89 93 92 97 96 85 84 69 56 53 50 48 49 48 48 45 46 49 47 45 38 44 42 41 49 57 60 60 55 71 53 55 50 44 45 45 40 40 41 48 48 46 47 48 56 58 56
80 84 84 85 93 95 96 97 94 85 72 59 56 53 51 50 53 50 47 47 46 44 42 46 44 41 47 52 53 58 52 51 50 49 51 46 48 48 48 43 69 53 31 32 44 49 52 56 54
84 83 85 82 85 90 96 96 95 87 78 64 57 58 53 58 53 50 48 48 46 42 41 44 45 46 51 51 50 54 51 52 56 54 49 53 49 48 49 53 57 45 35 31 36 46 52 49 52
73 81 84 85 80 87 89 94 92 90 84 76 64 63 59 57 60 56 48 47 43 44 41 41 47 46 49 55 53 55 63 52 57 52 51 48 48 46 53 44 59 51 61 36 37 42 48 46 51
78 76 79 79 84 83 88 95 78 81 83 78 71 57 59 59 60 62 68 50 48 47 43 38 40 46 48 56 60 72 62 62 63 60 65 63 52 54 53 41 38 48 59 46 38 42 46 45 44
63 84 85 79 87 86 77 83 70 76 67 70 71 56 57 66 60 60 61 62 52 53 45 41 34 40 49 60 64 65 62 66 80 64 70 68 63 55 51 49 45 45 44 40 40 49 37 45 44
66 83 94 94 87 81 80 85 73 65 59 64 69 65 55 55 59 63 68 65 56 58 50 47 40 35 45 57 59 64 73 74 69 76 66 74 72 64 51 58 51 45 38 44 30 34 37 39 40
57 60 70 77 80 82 81 92 81 72 63 61 66 69 62 56 57 69 77 69 67 63 51 54 41 37 43 47 51 65 67 77 61 63 65 69 73 65 60 58 58 51 48 42 36 37 42 38 32
43 52 40 68 62 62 76 77 67 66 58 57 62 66 58 59 64 58 64 69 68 61 61 62 53 42 37 38 44 50 57 62 51 52 54 58 67 72 64 56 57 54 52 53 48 36 39 41 42
44 41 43 51 68 69 66 64 71 64 64 66 55 53 56 62 66 70 71 71 79 70 63 69 74 51 35 33 39 43 46 53 48 51 52 67 68 72 70 64 50 56 51 47 45 41 40 35 36
37 32 38 40 42 55 67 63 55 54 63 69 76 61 55 58 63 67 71 74 69 85 76 79 61 73 68 38 33 36 38 40 42 43 48 57 56 73 67 72 70 51 53 59 58 55 56 59 45
31 30 36 41 38 41 47 51 44 45 51 56 70 72 69 67 64 63 66 75 83 85 85 72 69 67 72 47 34 36 39 37 36 38 42 44 47 62 69 76 76 71 69 63 65 66 61 59 61

GFSSGP_prec_cthk_114.txt.gz
RH
63 72 82 80 74 68 62 60 57 66 62 74 60 67 62 58 56 60 57 58 62 64 69 63 55 55 55 59 61 62 67 67 60 53 50 55 54 56 57 57 58 48 43 44 41 39 46 48 54
63 80 82 80 69 56 64 60 56 53 59 61 58 63 64 66 60 57 58 59 59 59 59 55 55 56 56 53 55 58 66 67 61 65 64 62 59 59 59 57 47 43 44 44 41 41 46 52 56
71 84 83 78 69 61 59 63 55 53 55 60 55 58 59 60 57 61 60 61 59 56 54 55 55 55 54 51 49 54 63 66 64 62 67 65 60 59 58 49 50 47 44 44 42 44 48 54 60
72 81 79 81 70 56 53 57 55 54 53 53 54 55 59 60 57 61 60 57 53 54 57 55 51 49 51 53 51 57 65 68 64 62 60 55 56 63 64 62 58 52 47 41 43 44 46 46 50
71 80 84 81 65 51 53 54 48 56 55 49 43 53 57 60 59 65 66 68 59 55 47 44 44 50 56 56 57 66 70 69 65 61 57 58 58 60 58 55 53 49 47 43 39 42 44 45 50
71 76 83 75 56 56 54 52 59 61 56 46 45 50 59 59 64 65 71 71 58 47 42 44 50 54 63 63 66 70 68 66 66 58 50 57 55 55 56 53 48 49 46 41 38 38 42 46 51
68 83 87 79 60 58 54 50 62 57 50 46 45 53 77 70 67 64 64 58 45 52 50 51 54 56 63 66 65 68 70 63 57 48 40 45 49 52 54 53 51 46 44 40 36 36 41 50 50
82 78 87 77 65 60 56 66 62 54 48 52 48 51 67 81 65 60 62 55 55 58 57 51 56 55 67 65 66 65 54 51 48 42 41 45 49 47 49 49 49 46 47 44 38 37 39 50 48
85 86 88 77 64 60 58 66 60 64 54 54 53 45 58 70 64 58 67 72 63 59 62 55 57 57 64 64 60 56 51 56 53 47 52 56 60 54 54 56 61 58 53 49 46 44 43 45 42
83 94 93 84 77 68 58 68 69 69 62 62 52 54 57 58 56 57 62 71 65 58 61 65 58 56 58 61 60 63 67 73 65 50 54 60 56 55 58 58 58 57 54 62 60 51 47 41 39
84 95 89 81 73 78 62 60 62 62 78 68 51 51 56 50 55 57 57 61 61 60 55 59 56 53 57 58 60 64 61 63 59 55 57 60 55 56 60 57 58 62 51 52 59 52 51 45 47
87 88 84 82 80 78 65 61 61 66 63 58 49 44 52 52 47 50 52 53 57 61 57 54 54 56 61 66 63 63 56 53 52 57 58 55 56 60 67 55 51 47 58 65 57 55 50 50 51
77 86 86 80 87 80 78 68 58 67 65 60 51 45 48 45 51 53 53 53 54 56 56 54 53 56 59 67 65 57 54 59 58 64 66 62 60 63 69 55 53 51 60 57 55 53 52 53 50
74 92 84 87 91 79 73 66 63 76 71 58 52 46 47 46 52 54 55 52 47 52 54 55 55 53 57 62 62 66 62 65 62 66 59 61 59 67 54 55 55 54 65 53 52 53 52 50 50
78 88 86 91 89 82 80 71 64 68 69 60 59 49 46 49 54 52 54 51 47 44 47 51 53 56 57 60 60 58 64 67 53 60 59 64 54 57 55 54 54 56 55 52 54 55 54 49 50
79 90 98 96 94 87 83 79 69 67 63 62 58 47 44 48 51 50 49 47 47 46 47 48 48 53 58 66 57 54 62 57 52 52 53 51 63 49 48 55 66 63 55 51 53 56 55 55 54
79 89 96 91 93 87 80 82 76 66 61 58 49 48 46 51 53 49 48 45 43 47 45 45 44 50 55 55 55 57 52 52 53 49 42 48 53 54 42 51 68 78 66 53 56 60 59 60 58
88 94 91 91 91 92 87 90 82 63 55 49 48 50 48 53 53 47 48 46 44 47 45 45 44 47 52 55 54 54 52 49 49 51 43 41 44 45 52 44 49 55 62 61 55 58 60 57 58
72 80 85 84 86 95 95 90 91 75 69 55 47 50 49 53 51 48 48 47 47 45 45 40 40 43 49 55 59 49 50 49 48 50 49 43 50 49 46 49 60 56 57 55 55 57 58 58 57
73 90 92 84 91 89 95 92 92 86 75 60 50 50 50 50 50 50 47 46 47 46 43 37 36 42 49 52 54 54 54 55 49 49 47 44 44 45 51 47 47 54 54 52 52 55 64 57 55
67 78 90 86 88 92 92 97 96 91 85 67 59 55 50 48 46 51 46 45 47 47 44 41 40 40 45 50 52 51 47 46 45 50 46 47 47 54 50 50 54 49 32 48 52 51 54 59 56
69 66 77 83 80 86 91 92 91 91 84 79 61 48 54 51 48 54 49 46 46 45 42 41 42 46 49 48 50 51 47 47 57 49 42 48 47 47 52 57 57 44 35 31 42 49 51 54 54
57 67 77 81 85 88 87 84 85 87 82 80 77 65 53 56 49 49 48 49 50 46 46 41 43 46 52 54 54 58 65 59 63 54 53 46 45 47 48 40 57 51 62 42 34 43 49 52 50
56 69 78 86 88 90 80 83 77 80 78 76 75 76 61 58 54 52 50 54 49 49 47 41 39 44 50 60 61 74 66 60 64 62 65 70 58 47 48 45 41 46 48 48 39 42 45 50 48
67 70 91 94 93 88 84 87 75 73 70 72 72 79 72 62 59 55 56 65 52 51 46 46 38 37 43 52 63 66 72 72 72 79 74 70 67 58 45 47 53 47 44 43 40 47 48 42 44
61 66 82 89 90 81 83 86 73 70 61 67 69 75 78 75 62 61 54 55 57 56 50 49 44 37 35 47 56 62 69 69 69 71 72 69 77 63 60 57 55 51 40 42 35 32 39 38 41
60 57 56 66 68 73 77 67 58 59 62 61 67 75 77 73 65 60 61 65 70 66 60 53 45 40 33 41 45 50 62 69 69 57 55 64 70 70 66 62 59 52 50 46 44 38 37 42 42
39 46 56 57 68 68 74 64 63 57 58 57 64 74 75 71 69 67 67 65 76 70 66 67 57 49 39 33 36 38 45 53 54 47 50 52 65 71 75 69 59 54 51 50 50 48 43 38 39
35 35 43 46 53 55 67 60 48 48 55 56 60 66 63 67 69 69 72 72 65 66 66 67 63 58 49 40 32 31 34 38 42 40 41 47 63 72 73 77 57 53 50 55 55 50 50 52 45
38 33 43 44 44 42 50 41 45 48 52 57 58 59 65 66 66 67 71 75 70 70 74 68 65 71 69 57 53 33 29 31 30 32 32 39 44 54 70 71 74 70 63 64 68 66 65 64 62

GFSSGP_prec_cthk_117.txt.gz
RH
70 76 83 79 68 63 60 61 56 65 71 58 66 65 62 60 57 63 66 68 74 76 73 70 72 73 66 66 67 68 66 55 52 51 56 58 57 56 57 54 52 49 44 44 46 53 59 69 74
70 78 84 80 62 64 62 58 58 57 60 59 61 61 66 67 61 53 55 58 59 59 58 55 60 59 61 60 61 67 63 59 62 63 68 62 63 65 65 49 44 47 45 40 43 53 58 68 71
73 79 80 75 66 58 61 58 58 56 60 60 61 61 67 69 60 57 55 55 56 58 58 57 58 57 55 53 59 64 63 61 64 68 71 68 59 54 48 49 55 48 45 45 47 57 59 66 65
73 77 76 75 65 53 54 56 55 53 57 56 57 64 62 60 62 62 60 53 55 57 54 54 56 54 53 51 56 63 68 64 64 62 62 64 63 61 57 52 48 43 44 47 50 53 58 62 60
71 77 82 77 62 53 54 59 59 58 58 52 52 59 64 63 64 65 62 54 55 53 52 48 53 54 57 53 61 69 71 65 61 61 60 60 58 60 59 55 52 47 43 45 47 47 51 55 45
69 74 81 75 56 55 60 61 63 63 58 49 54 58 65 63 64 65 67 58 65 51 45 49 55 62 60 64 71 71 67 64 58 56 56 56 54 56 50 50 48 48 43 41 45 47 55 50 43
71 80 85 76 61 57 60 68 65 57 49 48 50 65 66 68 69 70 72 60 53 48 50 53 64 66 65 68 71 67 66 61 49 47 49 50 51 52 49 47 48 43 41 39 41 47 54 46 44
71 80 83 77 69 60 58 62 60 51 54 48 48 61 74 67 67 68 63 50 53 55 55 58 64 69 67 71 65 59 56 49 42 41 41 43 48 50 49 46 44 43 40 37 39 49 54 48 41
75 82 84 79 70 58 60 64 56 51 52 50 45 53 67 60 59 61 57 56 60 59 56 61 60 72 69 66 57 53 57 55 48 51 59 55 49 49 52 54 50 47 46 43 44 51 51 43 42
78 83 81 81 67 64 61 61 62 64 54 52 44 55 68 62 58 67 70 62 58 62 60 60 59 65 65 64 67 71 67 58 49 59 62 56 54 58 60 61 53 53 56 52 50 52 48 43 47
80 86 83 83 71 66 72 70 63 63 62 57 45 49 60 59 58 64 68 63 60 59 63 60 57 59 64 66 67 69 66 60 54 58 62 62 59 62 61 62 59 56 52 53 53 51 48 51 50
82 81 84 86 78 80 67 69 62 69 65 56 47 47 50 55 56 64 62 61 62 55 56 57 55 56 61 64 64 55 56 57 58 62 60 60 66 69 61 57 58 54 59 52 52 48 52 55 49
71 83 87 88 87 81 76 68 66 66 68 59 51 48 48 50 56 61 64 60 61 58 51 55 58 58 68 67 65 55 55 60 67 62 62 63 70 69 60 50 58 66 61 51 50 48 53 51 50
74 82 91 89 88 88 81 76 63 72 71 60 52 51 49 50 55 60 61 56 57 56 54 50 56 59 66 66 60 60 62 64 72 70 66 63 65 63 57 52 61 64 59 58 52 52 51 50 48
78 90 92 95 95 90 83 80 76 75 75 62 57 54 50 51 55 57 58 50 50 52 56 55 52 54 60 63 61 62 59 62 59 58 60 58 64 59 57 54 63 62 57 57 56 53 49 50 47
74 94 92 97 96 90 86 77 74 76 71 66 59 55 50 50 52 54 56 53 47 48 50 53 55 57 58 61 59 63 57 54 53 56 54 54 54 51 50 50 59 58 56 55 55 54 52 50 49
79 94 93 95 92 92 88 83 79 70 64 62 58 54 50 50 54 52 51 51 48 46 48 49 52 55 59 60 54 58 53 53 48 47 48 56 46 45 55 59 55 54 52 55 56 54 52 52 52
80 93 93 93 91 97 91 87 82 79 73 61 55 52 50 48 51 51 50 45 48 51 48 45 47 53 58 53 53 50 50 51 48 44 44 47 48 45 50 62 69 50 52 54 57 56 55 54 51
71 82 95 94 89 97 96 92 89 83 74 64 53 50 49 51 54 52 50 46 44 47 48 46 46 49 51 54 51 49 45 47 51 45 43 42 48 49 43 47 61 62 55 51 57 59 54 52 54
73 78 90 93 93 91 91 95 95 94 80 60 56 49 48 50 52 53 53 50 45 43 43 43 42 44 52 57 52 48 46 46 48 46 45 43 44 50 44 43 51 53 49 50 50 54 53 55 54
74 64 78 84 90 91 92 95 97 90 84 71 54 49 50 51 50 49 51 51 47 46 43 39 35 37 48 53 54 50 55 49 48 48 50 48 46 51 49 44 47 48 47 46 49 53 57 52 53
72 60 67 78 82 89 89 92 90 96 89 80 61 52 50 50 48 48 51 48 47 49 46 41 39 36 43 47 52 51 50 50 52 53 52 53 53 55 52 47 47 45 35 45 49 50 54 54 54
53 62 72 76 83 85 91 94 78 86 90 82 69 60 50 49 50 50 54 49 47 50 47 41 42 43 46 48 48 46 46 49 55 52 45 46 49 51 50 49 62 48 40 31 33 45 49 48 51
56 64 74 77 83 89 82 90 84 89 89 83 76 69 62 51 52 54 54 57 52 51 50 46 41 43 46 52 54 59 63 60 66 60 61 58 52 48 51 51 42 54 54 50 36 34 40 43 46
58 71 80 86 91 88 86 85 73 76 76 77 76 74 72 64 55 54 54 53 52 52 49 48 41 40 45 54 57 62 66 65 66 67 69 72 72 61 51 51 51 44 47 45 44 40 39 40 40
58 62 75 89 91 81 84 81 68 65 67 66 65 71 76 74 56 55 57 56 53 54 53 49 43 35 38 45 52 60 67 70 68 72 74 73 72 72 64 53 57 59 48 41 44 39 38 41 34
61 66 58 66 72 78 76 69 60 59 62 65 64 66 69 73 62 58 59 60 69 68 61 53 48 38 31 34 46 54 63 64 66 64 62 67 70 74 69 63 60 57 54 46 41 35 32 37 39
51 58 61 63 72 70 69 66 62 60 61 66 64 66 68 73 71 64 63 64 68 66 68 62 54 45 36 31 40 44 50 57 64 61 52 55 60 66 72 74 65 60 55 50 51 49 41 38 41
44 45 50 54 62 60 62 56 54 55 59 63 65 66 70 77 77 70 65 64 65 73 75 69 64 59 52 37 33 35 38 42 51 51 47 48 52 66 72 75 71 60 53 52 50 51 50 47 44
41 41 40 46 43 48 46 39 54 58 61 62 64 66 74 76 78 74 71 68 67 68 78 74 71 66 61 56 43 30 31 34 38 43 45 40 45 56 67 75 78 62 56 54 62 61 60 60 64

GFSSGP_prec_cthk_120.txt.gz
RH
74 77 80 68 58 58 61 61 71 65 64 67 68 64 66 59 62 73 77 80 75 74 80 78 76 74 72 74 69 63 54 54 45 49 50 52 52 50 48 50 54 52 48 51 56 60 66 74 70
72 79 80 70 59 61 63 57 57 63 63 62 68 65 66 62 56 57 61 60 60 62 64 69 71 67 65 65 69 62 54 56 58 61 58 56 58 60 54 47 51 52 45 58 65 76 82 81 70
72 76 80 68 60 62 63 56 55 57 58 60 62 64 68 64 56 54 54 54 57 58 58 61 58 58 59 63 68 58 61 61 62 64 61 60 60 55 47 50 47 45 43 51 58 69 80 78 69
70 79 75 74 57 53 58 56 55 58 57 54 57 63 63 61 59 57 53 57 59 58 59 58 60 59 54 60 64 63 64 64 65 65 63 58 49 48 57 49 46 46 49 56 62 70 73 67 47
71 76 74 68 58 54 59 59 59 60 59 55 54 62 63 63 64 62 52 55 57 56 53 55 58 55 53 59 68 67 66 61 58 58 60 61 62 62 56 51 44 47 47 50 58 61 66 55 45
69 71 76 73 58 55 61 59 59 59 52 51 55 58 66 65 65 65 54 57 54 49 48 56 60 59 57 66 70 66 63 58 58 60 61 66 67 61 58 52 49 46 43 44 51 60 52 46 43
69 75 80 75 57 58 64 64 66 56 50 49 58 63 64 66 63 66 57 57 48 47 50 61 64 62 68 69 67 65 58 49 52 54 57 62 55 50 52 50 46 42 41 43 51 56 48 48 42
68 75 79 75 67 58 60 61 62 57 53 45 56 66 64 69 68 66 57 52 50 51 55 64 68 66 73 70 64 66 53 45 44 47 56 56 54 53 50 49 44 39 38 40 51 52 49 42 43
68 75 79 77 74 57 64 65 62 59 54 47 51 58 60 63 65 62 51 52 52 53 58 68 73 69 73 63 61 62 59 49 49 53 51 49 51 51 47 47 47 43 41 44 56 51 44 41 43
79 78 81 82 76 61 66 69 70 63 60 51 50 57 58 54 58 56 54 56 56 54 59 59 66 63 66 70 71 73 60 52 61 63 56 52 54 59 58 56 58 56 49 55 55 45 40 42 44
74 80 86 84 79 65 67 66 65 67 65 48 45 51 57 54 62 64 60 57 56 57 58 57 63 65 69 70 66 63 58 54 57 59 53 54 62 62 63 59 60 56 53 54 52 41 42 44 42
78 74 82 86 77 63 73 67 63 63 65 50 45 50 51 53 59 62 60 59 54 58 61 55 58 63 62 60 61 63 58 50 56 59 57 59 60 61 64 59 54 56 52 52 47 43 47 44 42
67 83 84 84 78 77 66 64 70 66 66 54 47 48 48 51 61 60 60 60 58 55 56 54 54 64 67 63 55 52 59 62 58 58 62 68 67 58 55 56 59 58 50 47 42 48 49 45 43
75 80 86 89 89 82 76 66 64 69 64 55 47 47 46 50 59 62 55 57 56 51 52 54 54 61 66 64 57 58 61 62 62 61 62 69 66 61 52 63 61 56 50 47 46 50 47 45 44
77 79 86 96 92 90 85 74 70 73 70 62 52 48 49 53 54 57 52 51 53 52 50 53 55 65 68 64 60 60 63 66 65 63 62 61 61 55 53 64 63 54 49 46 47 46 45 44 44
76 78 88 99 94 92 86 85 80 75 75 64 61 52 51 50 51 59 54 51 52 53 52 51 51 56 63 64 62 62 61 58 60 58 57 63 58 56 55 61 59 53 50 49 49 47 46 45 43
75 83 87 97 97 97 91 87 76 77 77 69 60 54 50 50 49 56 56 50 48 48 48 51 55 56 60 60 60 62 54 53 53 58 62 64 57 52 50 57 56 52 48 51 52 49 48 48 45
71 81 82 91 92 96 90 88 76 75 77 66 61 55 53 50 47 48 53 50 49 47 47 48 51 56 58 56 55 54 52 49 48 50 58 55 51 57 56 54 52 49 49 52 54 53 50 50 50
66 78 83 86 88 92 94 94 90 85 72 67 60 58 53 49 48 51 50 49 49 48 48 45 45 52 54 49 48 48 50 48 46 45 48 51 50 51 57 58 56 47 48 53 54 52 52 52 51
74 76 84 85 87 92 94 97 95 89 83 69 58 57 51 51 51 52 52 48 47 47 49 48 46 46 51 51 49 47 47 47 47 46 43 50 55 46 48 51 57 51 47 48 53 53 49 51 52
74 68 75 81 86 92 94 94 97 89 88 76 62 55 53 48 48 52 52 49 46 45 47 47 46 45 49 52 49 46 44 44 45 43 44 45 48 50 43 42 45 49 47 46 46 48 49 50 52
74 64 67 78 79 95 93 95 89 95 91 83 77 53 50 50 50 50 51 51 45 47 44 42 41 42 45 51 51 45 50 44 44 46 45 45 43 49 50 44 44 43 43 40 43 46 49 51 50
71 62 69 75 79 84 94 92 79 90 95 87 81 59 52 48 50 48 49 49 46 47 48 42 40 37 40 43 48 48 49 52 47 47 45 48 50 48 47 50 48 46 38 36 41 44 44 49 47
52 61 72 78 81 82 81 82 79 83 78 84 81 64 55 46 48 49 50 50 47 48 50 47 42 42 42 48 49 50 49 47 54 53 50 42 41 43 46 45 48 58 45 47 38 31 36 40 42
47 60 77 81 87 87 82 89 72 66 68 69 77 70 57 56 48 49 51 53 52 47 48 47 44 44 46 53 55 59 66 62 67 68 64 66 67 56 47 46 46 41 48 47 45 42 32 33 36
53 58 70 82 86 84 86 87 69 63 68 72 76 75 70 64 55 50 49 49 53 50 49 48 45 41 46 50 58 61 69 71 71 71 76 73 74 71 65 54 46 50 47 45 42 38 40 39 40
63 64 65 67 68 82 76 69 65 67 71 74 72 74 70 72 65 61 49 49 51 48 52 52 48 45 38 45 55 61 65 73 74 74 76 74 75 74 72 68 58 55 54 48 40 40 37 35 36
62 65 67 67 72 79 67 68 68 66 67 67 68 65 66 68 71 73 59 51 54 57 66 62 55 48 40 34 42 52 59 66 68 71 67 61 65 70 73 71 71 61 58 54 49 46 41 36 34
56 65 60 62 62 62 65 52 67 70 64 65 66 64 64 70 74 71 64 57 57 63 64 63 63 58 51 38 34 43 50 55 60 66 66 57 53 57 66 72 78 78 61 58 52 51 52 50 44
51 49 53 55 50 56 53 44 60 69 67 66 68 62 65 75 79 76 66 61 63 68 68 64 68 64 60 55 46 36 40 43 44 47 52 52 47 47 56 71 76 72 72 54 50 52 51 51 54

GFSSGP_prec_cthk_123.txt.gz
RH
77 76 70 59 52 51 61 67 61 60 63 63 63 59 59 70 75 80 84 84 83 87 88 85 83 83 87 84 64 64 57 47 52 50 49 50 49 51 53 57 57 55 55 51 54 61 72 76 73
76 77 72 58 50 50 56 59 63 61 57 62 64 62 57 56 62 65 65 67 70 73 76 79 79 73 75 78 63 62 54 57 55 54 56 61 58 55 56 56 52 48 59 68 75 75 72 62 58
71 76 76 57 54 54 55 56 57 58 56 59 61 64 62 57 56 56 56 58 62 66 66 67 69 66 67 73 60 61 62 64 63 62 63 66 55 48 48 47 45 49 62 72 79 76 73 60 46
71 75 72 59 52 54 56 55 58 59 58 56 57 62 60 59 55 51 52 56 58 58 60 61 59 59 61 68 61 65 65 68 67 63 58 54 52 57 52 47 45 46 58 62 74 74 66 49 42
68 74 69 63 54 58 56 58 61 57 55 55 56 61 60 61 58 52 57 57 58 57 57 61 57 53 60 71 64 67 64 61 62 64 62 57 56 53 48 47 49 49 56 62 65 66 53 43 41
65 72 69 70 54 60 58 60 58 55 54 56 58 56 62 62 61 54 56 57 56 54 53 59 56 55 63 70 67 65 59 61 62 61 62 63 60 56 52 51 50 46 50 56 60 59 51 41 38
63 74 76 70 55 60 58 60 53 54 52 60 58 57 62 63 63 56 58 55 50 50 56 61 61 61 67 71 64 59 59 60 63 62 65 68 59 54 50 46 42 42 45 54 56 48 43 40 36
66 71 76 67 56 59 58 57 55 55 53 55 64 59 60 63 62 58 56 49 50 54 60 63 64 71 71 69 65 54 45 52 51 58 61 53 55 54 49 44 40 40 43 52 51 42 38 37 38
63 70 74 73 68 57 61 59 58 55 48 49 59 55 57 59 60 57 49 51 53 58 69 68 69 74 74 64 67 61 48 47 48 51 54 51 48 49 53 44 41 39 41 49 45 41 36 40 41
72 75 79 80 76 55 62 64 66 59 50 48 54 57 58 61 60 55 54 55 55 57 67 65 62 65 68 74 68 61 56 58 56 52 48 49 53 52 53 53 49 46 52 50 43 37 40 42 42
74 78 84 85 76 59 62 63 68 62 53 45 49 57 57 56 57 55 58 58 54 56 57 61 64 67 69 66 65 62 53 58 59 52 52 58 61 57 58 57 55 51 56 49 41 37 42 43 43
70 78 79 87 83 63 68 65 63 71 56 45 48 48 53 58 62 59 55 54 55 55 55 60 60 62 62 62 62 55 53 57 58 54 56 61 61 59 53 52 50 52 55 49 41 44 45 44 44
70 74 85 90 86 65 77 69 64 66 57 48 49 52 54 57 59 57 56 53 53 57 54 54 62 62 61 56 57 59 54 57 58 57 57 58 58 57 53 52 53 50 52 46 44 49 45 43 44
74 79 88 88 85 75 72 69 66 66 60 51 49 48 50 59 59 53 53 55 53 53 55 52 62 65 59 55 55 59 62 59 59 61 64 64 59 55 51 55 54 47 44 42 47 47 45 45 44
78 77 85 92 89 80 76 67 69 67 60 56 49 46 51 56 56 51 51 53 49 48 52 52 56 63 63 58 59 64 64 63 60 61 64 62 57 51 61 59 54 47 43 42 46 45 43 43 42
72 79 82 83 89 87 82 67 70 76 65 61 58 46 49 50 52 52 49 51 49 48 51 52 56 65 62 57 58 59 62 61 61 59 59 58 55 55 62 58 53 49 47 48 47 43 42 43 39
72 76 79 81 87 97 90 75 76 78 75 64 56 52 49 49 51 52 49 50 51 50 51 50 52 59 61 58 57 56 56 59 59 57 59 55 54 52 59 58 53 53 49 49 46 45 45 43 40
58 71 76 82 91 97 92 86 85 85 83 72 56 54 50 46 48 51 50 49 49 48 49 52 54 54 61 55 56 50 50 48 53 59 57 54 48 47 55 54 53 50 49 52 50 48 48 47 44
52 69 71 80 89 94 95 91 85 86 84 75 60 56 52 47 46 51 52 50 50 48 48 50 53 52 58 54 51 49 47 45 47 51 54 46 55 55 52 51 48 47 50 53 55 53 52 50 48
60 61 76 80 86 91 93 90 89 83 79 76 60 56 50 47 46 47 49 49 48 49 47 46 47 50 51 51 48 48 49 48 43 44 49 47 46 51 57 49 51 45 46 51 53 52 52 52 51
63 64 73 76 87 93 93 91 92 90 91 79 60 55 50 45 46 45 46 45 46 47 48 46 44 48 51 51 49 47 45 43 43 44 49 49 50 46 45 49 51 47 47 44 48 51 50 52 51
60 64 60 75 79 85 89 92 87 95 93 78 68 54 50 45 47 48 48 45 41 43 47 48 46 46 49 49 50 48 45 47 47 52 48 47 47 46 43 40 41 45 46 44 43 46 48 48 49
65 59 66 71 76 79 88 88 80 91 92 81 70 63 49 46 44 46 48 47 42 41 42 42 44 44 46 49 50 49 51 55 54 50 51 52 49 48 53 50 43 41 41 42 36 42 47 48 50
70 65 62 70 74 77 73 82 74 80 75 79 79 72 51 45 44 45 48 52 47 45 44 42 39 38 40 45 46 49 50 56 50 50 50 49 52 50 50 49 53 52 44 40 36 37 41 42 44
52 56 66 74 76 74 78 84 68 68 69 72 74 71 60 49 44 45 47 48 45 43 45 46 45 42 39 43 45 52 53 49 51 56 58 53 51 49 51 51 43 48 47 45 49 45 34 30 33
44 43 53 68 72 69 81 75 67 69 69 68 73 80 67 48 43 44 46 46 44 44 43 46 45 42 43 46 53 58 64 65 68 66 66 69 68 70 64 58 53 53 48 43 42 42 41 39 37
53 47 54 59 59 62 65 66 67 68 69 72 72 77 69 60 51 47 49 47 48 46 42 44 47 45 42 44 55 58 65 68 72 71 73 74 73 72 71 70 63 50 50 54 46 40 38 38 37
57 54 64 67 65 66 61 64 65 71 76 77 77 78 76 72 67 60 58 56 49 50 48 49 48 47 44 42 44 54 58 63 70 72 71 74 68 70 68 70 69 64 57 53 50 49 40 35 34
61 65 64 64 61 59 59 56 66 77 75 74 72 74 72 71 71 74 63 60 55 49 51 53 57 50 46 40 35 40 49 56 60 63 66 66 58 56 61 62 67 72 69 60 56 54 52 49 49
52 52 62 62 59 58 57 51 60 72 76 74 72 72 71 73 74 75 77 63 68 54 52 56 57 58 53 52 42 33 38 46 51 54 59 64 62 50 47 50 62 76 73 68 56 58 52 54 52

GFSSGP_prec_cthk_126.txt.gz
RH
72 67 58 57 59 59 64 61 55 61 61 56 55 68 76 78 79 83 84 85 84 83 84 87 86 85 81 72 68 53 51 58 50 50 51 52 54 54 53 53 53 51 52 55 64 74 70 76 75
76 71 59 54 58 58 61 60 56 57 60 61 53 56 60 68 72 75 81 83 82 85 85 85 85 84 79 67 72 54 61 66 64 62 58 56 57 59 54 50 58 60 63 69 73 70 69 66 59
76 75 61 56 55 56 58 57 56 53 57 59 60 57 55 57 62 63 67 70 77 80 82 76 78 80 79 58 66 60 70 69 66 64 67 56 51 50 50 47 56 64 71 74 74 68 56 46 40
77 75 60 56 57 54 56 57 54 53 56 58 61 59 58 56 56 57 59 66 70 70 75 68 66 75 67 60 62 69 72 72 70 71 66 55 54 47 44 43 51 62 75 76 70 64 46 38 41
73 73 63 57 55 54 56 56 57 54 56 59 62 57 63 60 54 56 58 65 68 72 71 66 59 67 71 64 67 69 73 71 65 60 57 57 57 48 46 45 49 56 63 69 69 54 48 42 39
71 70 66 58 56 56 56 54 59 58 55 59 61 59 66 63 56 60 61 65 68 70 73 64 56 66 74 68 70 63 61 62 64 64 61 57 52 49 47 46 46 51 56 61 59 48 42 39 34
74 74 70 59 54 59 58 53 57 61 56 58 59 62 64 66 60 61 62 64 66 67 72 74 66 71 73 68 60 65 66 66 65 67 65 59 58 49 47 43 42 47 55 57 52 53 40 37 35
69 69 68 58 54 60 53 56 54 56 59 62 61 64 62 64 59 61 61 59 62 70 74 74 75 77 76 67 60 57 58 59 61 65 58 53 52 48 43 41 40 44 51 52 44 41 38 37 37
63 69 73 65 56 57 58 55 55 50 48 58 61 62 63 62 62 60 57 58 65 70 72 78 78 71 76 71 62 52 52 52 59 60 55 58 61 58 52 40 38 41 49 45 39 36 39 40 37
66 72 79 76 67 58 60 59 56 50 47 57 58 62 62 61 61 58 56 63 69 75 76 77 78 73 78 80 72 66 60 62 60 58 55 60 60 57 52 45 42 45 48 41 38 39 41 44 45
71 75 81 79 71 57 62 60 57 49 47 57 58 59 59 63 60 57 60 64 63 72 69 71 72 76 76 73 72 64 69 65 54 52 61 60 60 62 63 54 51 58 46 44 40 45 48 44 45
71 76 79 80 73 60 64 61 68 53 47 48 54 62 61 60 56 59 62 61 60 63 69 69 70 70 72 70 71 63 67 66 59 59 63 62 63 57 57 57 53 58 50 41 48 53 46 46 40
73 74 78 80 78 65 72 64 63 57 48 45 51 56 56 58 61 60 60 60 59 61 62 64 63 63 60 63 62 60 60 65 60 62 64 63 63 56 55 52 55 55 48 47 53 50 48 44 39
76 71 83 86 85 69 74 66 60 60 50 46 48 54 58 59 59 59 58 58 60 60 58 65 63 61 60 61 61 58 61 60 61 62 61 57 56 50 54 55 52 55 49 50 53 50 49 44 39
71 79 80 87 87 75 68 68 63 63 52 48 46 50 57 60 56 57 60 57 56 60 60 59 62 64 60 59 59 63 63 63 64 68 63 61 53 51 54 54 52 49 44 49 50 46 44 42 40
65 69 80 83 81 76 69 70 69 64 56 54 48 50 54 55 54 56 57 56 53 56 57 54 62 66 61 61 63 68 66 66 64 64 64 52 49 58 56 53 49 48 51 56 54 50 47 46 45
56 66 72 75 75 78 73 76 70 71 62 62 56 51 53 51 54 52 55 54 50 54 52 56 64 67 59 55 60 62 60 63 60 61 59 54 55 58 57 54 51 49 57 56 55 50 49 43 44
57 63 69 75 72 77 79 81 72 75 72 63 58 52 52 53 51 50 53 54 53 52 51 56 60 64 56 56 56 59 61 61 61 59 57 52 53 54 54 53 52 54 60 57 53 51 50 49 46
46 53 66 64 71 90 93 82 80 77 77 66 61 55 52 51 51 51 51 50 50 51 52 57 57 59 58 54 58 52 55 55 57 58 58 48 47 51 52 53 51 53 58 55 53 53 51 52 48
52 54 63 69 73 88 97 92 86 85 81 77 68 56 54 49 50 50 49 51 51 48 49 53 60 57 57 51 54 53 52 51 54 54 50 51 61 51 50 46 47 47 57 54 54 53 56 53 51
53 59 58 67 80 85 93 90 88 85 82 80 74 59 55 50 48 46 49 48 49 50 47 45 50 52 55 54 50 51 51 55 47 51 50 48 47 54 51 46 48 44 49 55 52 52 50 57 51
50 55 55 63 76 82 86 91 84 83 82 79 71 60 55 50 46 44 44 47 48 50 50 47 44 50 54 53 50 48 52 53 54 53 53 53 48 47 46 43 44 44 50 48 47 49 50 49 55
60 55 56 58 61 71 84 86 80 80 84 82 77 61 55 51 48 46 44 44 46 49 50 50 46 41 50 52 53 57 48 55 56 55 54 51 49 45 45 38 37 40 46 48 44 43 46 50 52
51 55 52 57 61 65 67 70 79 81 80 82 75 63 59 52 49 47 46 48 48 46 46 49 46 41 40 46 54 51 56 58 54 57 59 57 53 49 50 52 47 44 43 42 42 38 40 47 50
46 59 54 61 59 61 60 64 68 71 75 79 75 74 62 54 46 46 46 47 47 46 43 43 41 38 38 40 51 51 56 59 57 55 57 55 54 53 51 50 52 54 54 52 47 46 43 39 40
52 55 46 61 63 62 61 68 75 70 72 71 71 73 71 63 46 46 47 47 47 46 46 45 44 41 38 37 41 48 57 62 61 61 65 66 63 60 64 58 57 53 49 49 47 48 49 46 41
47 47 48 55 52 53 59 61 67 69 72 73 72 77 75 70 56 46 49 48 46 47 47 46 44 46 43 44 48 51 59 63 68 73 71 73 72 71 69 65 64 60 53 51 49 48 47 42 40
50 55 47 46 62 60 58 58 63 66 74 74 70 73 75 74 58 50 51 49 48 48 49 49 49 47 46 44 48 55 60 65 70 73 72 75 75 71 73 68 70 70 64 57 56 58 51 44 40
53 53 48 59 67 76 66 58 58 73 75 80 74 79 79 77 63 57 57 54 52 54 52 53 50 51 51 47 43 47 55 59 64 70 75 71 69 63 62 66 63 65 70 69 65 59 58 53 51
59 54 62 56 67 55 65 64 59 65 72 77 78 76 75 77 68 66 62 55 60 56 54 57 59 60 55 50 45 38 41 48 55 58 63 64 66 64 57 51 53 58 69 77 71 68 65 63 57